<?xml version="1.0" encoding="UTF-8" standalone="no" ?>
<gpx xmlns="http://www.topografix.com/GPX/1/1" xmlns:xsi="http://www.w3.org/2001/XMLSchema-instance" xsi:schemaLocation="http://www.topografix.com/GPX/1/1 http://www.topografix.com/GPX/1/1/gpx.xsd" version="1.1" creator="VisuGPX - https://www.visugpx.com">
  <metadata>
    <name>Cocteau - Esquine - Porfait</name>
  </metadata>
  <trk>
    <name><![CDATA[Cocteau - Esquine - Porfait_1]]></name>
    <trkseg>
      <trkpt lat="43.50346" lon="6.75766">
        <ele>37.6</ele>
        <time>2017-06-01T07:34:17.000Z</time>
      </trkpt>
      <trkpt lat="43.50341" lon="6.75764">
        <ele>0.20000000298023</ele>
        <time>2017-06-01T07:34:22.000Z</time>
      </trkpt>
      <trkpt lat="43.50338" lon="6.75764">
        <ele>0.40000000596046</ele>
        <time>2017-06-01T07:34:24.000Z</time>
      </trkpt>
      <trkpt lat="43.50322" lon="6.75763">
        <ele>0.80000001192093</ele>
        <time>2017-06-01T07:34:29.000Z</time>
      </trkpt>
      <trkpt lat="43.50317" lon="6.75763">
        <ele>1.2000000476837</ele>
        <time>2017-06-01T07:34:30.000Z</time>
      </trkpt>
      <trkpt lat="43.50312" lon="6.75764">
        <ele>1.6000000238419</ele>
        <time>2017-06-01T07:34:31.000Z</time>
      </trkpt>
      <trkpt lat="43.50298" lon="6.75767">
        <ele>1.6000000238419</ele>
        <time>2017-06-01T07:34:34.000Z</time>
      </trkpt>
      <trkpt lat="43.50293" lon="6.7577">
        <ele>1.6000000238419</ele>
        <time>2017-06-01T07:34:35.000Z</time>
      </trkpt>
      <trkpt lat="43.50275" lon="6.75784">
        <ele>1.6000000238419</ele>
        <time>2017-06-01T07:34:39.000Z</time>
      </trkpt>
      <trkpt lat="43.50245" lon="6.75803">
        <ele>1.7999999523163</ele>
        <time>2017-06-01T07:34:46.000Z</time>
      </trkpt>
      <trkpt lat="43.50211" lon="6.75817">
        <ele>1.7999999523163</ele>
        <time>2017-06-01T07:34:53.000Z</time>
      </trkpt>
      <trkpt lat="43.50192" lon="6.75827">
        <ele>1.7999999523163</ele>
        <time>2017-06-01T07:34:57.000Z</time>
      </trkpt>
      <trkpt lat="43.50179" lon="6.75835">
        <ele>2</ele>
        <time>2017-06-01T07:35:00.000Z</time>
      </trkpt>
      <trkpt lat="43.50151" lon="6.75844">
        <ele>1.7999999523163</ele>
        <time>2017-06-01T07:35:06.000Z</time>
      </trkpt>
      <trkpt lat="43.50121" lon="6.75846">
        <ele>0.40000000596046</ele>
        <time>2017-06-01T07:35:10.000Z</time>
      </trkpt>
      <trkpt lat="43.50111" lon="6.75846">
        <ele>-2</ele>
        <time>2017-06-01T07:35:11.000Z</time>
      </trkpt>
      <trkpt lat="43.50101" lon="6.75844">
        <ele>-3.2000000476837</ele>
        <time>2017-06-01T07:35:12.000Z</time>
      </trkpt>
      <trkpt lat="43.50091" lon="6.75841">
        <ele>-4.5999999046326</ele>
        <time>2017-06-01T07:35:13.000Z</time>
      </trkpt>
      <trkpt lat="43.50081" lon="6.75836">
        <ele>-5.4000000953674</ele>
        <time>2017-06-01T07:35:14.000Z</time>
      </trkpt>
      <trkpt lat="43.50071" lon="6.75832">
        <ele>-5.8000001907349</ele>
        <time>2017-06-01T07:35:15.000Z</time>
      </trkpt>
      <trkpt lat="43.50049" lon="6.75828">
        <ele>-5</ele>
        <time>2017-06-01T07:35:18.000Z</time>
      </trkpt>
      <trkpt lat="43.50044" lon="6.75828">
        <ele>-4.5999999046326</ele>
        <time>2017-06-01T07:35:19.000Z</time>
      </trkpt>
      <trkpt lat="43.50028" lon="6.75823">
        <ele>-3.5999999046326</ele>
        <time>2017-06-01T07:35:22.000Z</time>
      </trkpt>
      <trkpt lat="43.50018" lon="6.75818">
        <ele>-3.5999999046326</ele>
        <time>2017-06-01T07:35:24.000Z</time>
      </trkpt>
      <trkpt lat="43.4999" lon="6.75808">
        <ele>-4.1999998092651</ele>
        <time>2017-06-01T07:35:29.000Z</time>
      </trkpt>
      <trkpt lat="43.49958" lon="6.75797">
        <ele>-4.5999999046326</ele>
        <time>2017-06-01T07:35:34.000Z</time>
      </trkpt>
      <trkpt lat="43.49945" lon="6.75794">
        <ele>-5.1999998092651</ele>
        <time>2017-06-01T07:35:36.000Z</time>
      </trkpt>
      <trkpt lat="43.49932" lon="6.75794">
        <ele>-5.1999998092651</ele>
        <time>2017-06-01T07:35:38.000Z</time>
      </trkpt>
      <trkpt lat="43.49923" lon="6.75796">
        <ele>-4.5999999046326</ele>
        <time>2017-06-01T07:35:40.000Z</time>
      </trkpt>
      <trkpt lat="43.4991" lon="6.758">
        <ele>-3.5999999046326</ele>
        <time>2017-06-01T07:35:44.000Z</time>
      </trkpt>
      <trkpt lat="43.49899" lon="6.75802">
        <ele>-2.5999999046326</ele>
        <time>2017-06-01T07:35:48.000Z</time>
      </trkpt>
      <trkpt lat="43.4989" lon="6.75804">
        <ele>-2.2000000476837</ele>
        <time>2017-06-01T07:35:51.000Z</time>
      </trkpt>
      <trkpt lat="43.49883" lon="6.75816">
        <ele>-1.7999999523163</ele>
        <time>2017-06-01T07:35:55.000Z</time>
      </trkpt>
      <trkpt lat="43.49881" lon="6.75819">
        <ele>-1.6000000238419</ele>
        <time>2017-06-01T07:35:56.000Z</time>
      </trkpt>
      <trkpt lat="43.4988" lon="6.75827">
        <ele>-0.40000000596046</ele>
        <time>2017-06-01T07:35:59.000Z</time>
      </trkpt>
      <trkpt lat="43.49879" lon="6.75832">
        <ele>37.8</ele>
        <time>2017-06-01T07:36:01.000Z</time>
      </trkpt>
      <trkpt lat="43.4988" lon="6.75839">
        <ele>0.60000002384186</ele>
        <time>2017-06-01T07:36:04.000Z</time>
      </trkpt>
      <trkpt lat="43.49882" lon="6.75844">
        <ele>0.80000001192093</ele>
        <time>2017-06-01T07:36:06.000Z</time>
      </trkpt>
      <trkpt lat="43.49878" lon="6.75857">
        <ele>1.3999999761581</ele>
        <time>2017-06-01T07:36:10.000Z</time>
      </trkpt>
      <trkpt lat="43.49878" lon="6.75861">
        <ele>1.3999999761581</ele>
        <time>2017-06-01T07:36:11.000Z</time>
      </trkpt>
      <trkpt lat="43.49879" lon="6.75892">
        <ele>1.3999999761581</ele>
        <time>2017-06-01T07:36:17.000Z</time>
      </trkpt>
      <trkpt lat="43.49875" lon="6.75938">
        <ele>0.20000000298023</ele>
        <time>2017-06-01T07:36:24.000Z</time>
      </trkpt>
      <trkpt lat="43.49872" lon="6.75982">
        <ele>0.20000000298023</ele>
        <time>2017-06-01T07:36:32.000Z</time>
      </trkpt>
      <trkpt lat="43.49875" lon="6.75995">
        <ele>0.40000000596046</ele>
        <time>2017-06-01T07:36:36.000Z</time>
      </trkpt>
      <trkpt lat="43.49884" lon="6.76026">
        <ele>1</ele>
        <time>2017-06-01T07:36:43.000Z</time>
      </trkpt>
      <trkpt lat="43.49893" lon="6.76046">
        <ele>1.7999999523163</ele>
        <time>2017-06-01T07:36:47.000Z</time>
      </trkpt>
      <trkpt lat="43.49896" lon="6.76055">
        <ele>2</ele>
        <time>2017-06-01T07:36:49.000Z</time>
      </trkpt>
      <trkpt lat="43.49903" lon="6.76082">
        <ele>3</ele>
        <time>2017-06-01T07:36:54.000Z</time>
      </trkpt>
      <trkpt lat="43.49902" lon="6.76093">
        <ele>3.5999999046326</ele>
        <time>2017-06-01T07:36:56.000Z</time>
      </trkpt>
      <trkpt lat="43.499" lon="6.76102">
        <ele>4.1999998092651</ele>
        <time>2017-06-01T07:36:58.000Z</time>
      </trkpt>
      <trkpt lat="43.49894" lon="6.76118">
        <ele>4.8000001907349</ele>
        <time>2017-06-01T07:37:02.000Z</time>
      </trkpt>
      <trkpt lat="43.49886" lon="6.76136">
        <ele>5.4000000953674</ele>
        <time>2017-06-01T07:37:06.000Z</time>
      </trkpt>
      <trkpt lat="43.49886" lon="6.76147">
        <ele>5.5999999046326</ele>
        <time>2017-06-01T07:37:08.000Z</time>
      </trkpt>
      <trkpt lat="43.49894" lon="6.76164">
        <ele>6.4000000953674</ele>
        <time>2017-06-01T07:37:12.000Z</time>
      </trkpt>
      <trkpt lat="43.49897" lon="6.76167">
        <ele>6.4000000953674</ele>
        <time>2017-06-01T07:37:13.000Z</time>
      </trkpt>
      <trkpt lat="43.49905" lon="6.76189">
        <ele>7.4000000953674</ele>
        <time>2017-06-01T07:37:18.000Z</time>
      </trkpt>
      <trkpt lat="43.49907" lon="6.76218">
        <ele>8.6000003814697</ele>
        <time>2017-06-01T07:37:25.000Z</time>
      </trkpt>
      <trkpt lat="43.49902" lon="6.76243">
        <ele>9.3999996185303</ele>
        <time>2017-06-01T07:37:31.000Z</time>
      </trkpt>
      <trkpt lat="43.499" lon="6.76246">
        <ele>9.6000003814697</ele>
        <time>2017-06-01T07:37:32.000Z</time>
      </trkpt>
      <trkpt lat="43.49891" lon="6.76259">
        <ele>10.60000038147</ele>
        <time>2017-06-01T07:37:36.000Z</time>
      </trkpt>
      <trkpt lat="43.49888" lon="6.76262">
        <ele>10.800000190735</ele>
        <time>2017-06-01T07:37:37.000Z</time>
      </trkpt>
      <trkpt lat="43.49877" lon="6.76284">
        <ele>11.39999961853</ele>
        <time>2017-06-01T07:37:43.000Z</time>
      </trkpt>
      <trkpt lat="43.49875" lon="6.76295">
        <ele>12</ele>
        <time>2017-06-01T07:37:46.000Z</time>
      </trkpt>
      <trkpt lat="43.49873" lon="6.76313">
        <ele>12.199999809265</ele>
        <time>2017-06-01T07:37:50.000Z</time>
      </trkpt>
      <trkpt lat="43.49864" lon="6.76343">
        <ele>12.800000190735</ele>
        <time>2017-06-01T07:37:57.000Z</time>
      </trkpt>
      <trkpt lat="43.49863" lon="6.76347">
        <ele>13</ele>
        <time>2017-06-01T07:37:58.000Z</time>
      </trkpt>
      <trkpt lat="43.4986" lon="6.76373">
        <ele>14</ele>
        <time>2017-06-01T07:38:04.000Z</time>
      </trkpt>
      <trkpt lat="43.4986" lon="6.76382">
        <ele>14</ele>
        <time>2017-06-01T07:38:06.000Z</time>
      </trkpt>
      <trkpt lat="43.49858" lon="6.76414">
        <ele>15</ele>
        <time>2017-06-01T07:38:13.000Z</time>
      </trkpt>
      <trkpt lat="43.49858" lon="6.76419">
        <ele>15.199999809265</ele>
        <time>2017-06-01T07:38:14.000Z</time>
      </trkpt>
      <trkpt lat="43.49861" lon="6.76457">
        <ele>16.200000762939</ele>
        <time>2017-06-01T07:38:22.000Z</time>
      </trkpt>
      <trkpt lat="43.49862" lon="6.76461">
        <ele>16.39999961853</ele>
        <time>2017-06-01T07:38:23.000Z</time>
      </trkpt>
      <trkpt lat="43.4987" lon="6.76494">
        <ele>17.200000762939</ele>
        <time>2017-06-01T07:38:30.000Z</time>
      </trkpt>
      <trkpt lat="43.49872" lon="6.76523">
        <ele>18.200000762939</ele>
        <time>2017-06-01T07:38:36.000Z</time>
      </trkpt>
      <trkpt lat="43.49872" lon="6.76533">
        <ele>18.39999961853</ele>
        <time>2017-06-01T07:38:38.000Z</time>
      </trkpt>
      <trkpt lat="43.49871" lon="6.76555">
        <ele>19.39999961853</ele>
        <time>2017-06-01T07:38:43.000Z</time>
      </trkpt>
      <trkpt lat="43.49871" lon="6.7656">
        <ele>19.60000038147</ele>
        <time>2017-06-01T07:38:44.000Z</time>
      </trkpt>
      <trkpt lat="43.49871" lon="6.76578">
        <ele>20.60000038147</ele>
        <time>2017-06-01T07:38:48.000Z</time>
      </trkpt>
      <trkpt lat="43.49873" lon="6.76588">
        <ele>21</ele>
        <time>2017-06-01T07:38:50.000Z</time>
      </trkpt>
      <trkpt lat="43.49883" lon="6.76612">
        <ele>21.60000038147</ele>
        <time>2017-06-01T07:38:56.000Z</time>
      </trkpt>
      <trkpt lat="43.49884" lon="6.76616">
        <ele>21.799999237061</ele>
        <time>2017-06-01T07:38:57.000Z</time>
      </trkpt>
      <trkpt lat="43.49896" lon="6.7665">
        <ele>22.60000038147</ele>
        <time>2017-06-01T07:39:05.000Z</time>
      </trkpt>
      <trkpt lat="43.49899" lon="6.76659">
        <ele>22.799999237061</ele>
        <time>2017-06-01T07:39:07.000Z</time>
      </trkpt>
      <trkpt lat="43.49908" lon="6.7669">
        <ele>23.39999961853</ele>
        <time>2017-06-01T07:39:14.000Z</time>
      </trkpt>
      <trkpt lat="43.49908" lon="6.76707">
        <ele>23.799999237061</ele>
        <time>2017-06-01T07:39:18.000Z</time>
      </trkpt>
      <trkpt lat="43.49908" lon="6.76722">
        <ele>24</ele>
        <time>2017-06-01T07:39:21.000Z</time>
      </trkpt>
      <trkpt lat="43.49903" lon="6.76748">
        <ele>24.60000038147</ele>
        <time>2017-06-01T07:39:27.000Z</time>
      </trkpt>
      <trkpt lat="43.49901" lon="6.76751">
        <ele>24.799999237061</ele>
        <time>2017-06-01T07:39:28.000Z</time>
      </trkpt>
      <trkpt lat="43.49888" lon="6.76769">
        <ele>25.799999237061</ele>
        <time>2017-06-01T07:39:34.000Z</time>
      </trkpt>
      <trkpt lat="43.49886" lon="6.76771">
        <ele>26</ele>
        <time>2017-06-01T07:39:35.000Z</time>
      </trkpt>
      <trkpt lat="43.49866" lon="6.76794">
        <ele>27.200000762939</ele>
        <time>2017-06-01T07:39:43.000Z</time>
      </trkpt>
      <trkpt lat="43.4985" lon="6.76816">
        <ele>28</ele>
        <time>2017-06-01T07:39:50.000Z</time>
      </trkpt>
      <trkpt lat="43.49847" lon="6.76825">
        <ele>28.200000762939</ele>
        <time>2017-06-01T07:39:52.000Z</time>
      </trkpt>
      <trkpt lat="43.49843" lon="6.76845">
        <ele>28.799999237061</ele>
        <time>2017-06-01T07:39:56.000Z</time>
      </trkpt>
      <trkpt lat="43.49841" lon="6.76859">
        <ele>29.200000762939</ele>
        <time>2017-06-01T07:39:59.000Z</time>
      </trkpt>
      <trkpt lat="43.49839" lon="6.76884">
        <ele>29.799999237061</ele>
        <time>2017-06-01T07:40:04.000Z</time>
      </trkpt>
      <trkpt lat="43.49836" lon="6.76921">
        <ele>30.39999961853</ele>
        <time>2017-06-01T07:40:11.000Z</time>
      </trkpt>
      <trkpt lat="43.49834" lon="6.76931">
        <ele>30.60000038147</ele>
        <time>2017-06-01T07:40:13.000Z</time>
      </trkpt>
      <trkpt lat="43.49827" lon="6.76952">
        <ele>31.39999961853</ele>
        <time>2017-06-01T07:40:18.000Z</time>
      </trkpt>
      <trkpt lat="43.49825" lon="6.76956">
        <ele>31.60000038147</ele>
        <time>2017-06-01T07:40:19.000Z</time>
      </trkpt>
      <trkpt lat="43.49808" lon="6.76978">
        <ele>32.599998474121</ele>
        <time>2017-06-01T07:40:26.000Z</time>
      </trkpt>
      <trkpt lat="43.49804" lon="6.76984">
        <ele>32.799999237061</ele>
        <time>2017-06-01T07:40:28.000Z</time>
      </trkpt>
      <trkpt lat="43.4979" lon="6.76996">
        <ele>33.599998474121</ele>
        <time>2017-06-01T07:40:33.000Z</time>
      </trkpt>
      <trkpt lat="43.49784" lon="6.76999">
        <ele>34</ele>
        <time>2017-06-01T07:40:35.000Z</time>
      </trkpt>
      <trkpt lat="43.49772" lon="6.77012">
        <ele>34.599998474121</ele>
        <time>2017-06-01T07:40:40.000Z</time>
      </trkpt>
      <trkpt lat="43.49768" lon="6.77018">
        <ele>35</ele>
        <time>2017-06-01T07:40:42.000Z</time>
      </trkpt>
      <trkpt lat="43.49759" lon="6.77035">
        <ele>36</ele>
        <time>2017-06-01T07:40:47.000Z</time>
      </trkpt>
      <trkpt lat="43.49751" lon="6.77053">
        <ele>36.599998474121</ele>
        <time>2017-06-01T07:40:52.000Z</time>
      </trkpt>
      <trkpt lat="43.49748" lon="6.77064">
        <ele>37</ele>
        <time>2017-06-01T07:40:55.000Z</time>
      </trkpt>
      <trkpt lat="43.4974" lon="6.77081">
        <ele>37.799999237061</ele>
        <time>2017-06-01T07:41:00.000Z</time>
      </trkpt>
      <trkpt lat="43.49736" lon="6.77087">
        <ele>38.200000762939</ele>
        <time>2017-06-01T07:41:02.000Z</time>
      </trkpt>
      <trkpt lat="43.49726" lon="6.77095">
        <ele>38.799999237061</ele>
        <time>2017-06-01T07:41:06.000Z</time>
      </trkpt>
      <trkpt lat="43.49714" lon="6.77094">
        <ele>39.200000762939</ele>
        <time>2017-06-01T07:41:10.000Z</time>
      </trkpt>
      <trkpt lat="43.49712" lon="6.77092">
        <ele>39.599998474121</ele>
        <time>2017-06-01T07:41:11.000Z</time>
      </trkpt>
      <trkpt lat="43.49706" lon="6.77079">
        <ele>40</ele>
        <time>2017-06-01T07:41:15.000Z</time>
      </trkpt>
      <trkpt lat="43.49706" lon="6.77071">
        <ele>40.200000762939</ele>
        <time>2017-06-01T07:41:17.000Z</time>
      </trkpt>
      <trkpt lat="43.49708" lon="6.77058">
        <ele>40.400001525879</ele>
        <time>2017-06-01T07:41:20.000Z</time>
      </trkpt>
      <trkpt lat="43.49714" lon="6.7703">
        <ele>41.200000762939</ele>
        <time>2017-06-01T07:41:26.000Z</time>
      </trkpt>
      <trkpt lat="43.49714" lon="6.77026">
        <ele>41.200000762939</ele>
        <time>2017-06-01T07:41:27.000Z</time>
      </trkpt>
      <trkpt lat="43.49709" lon="6.77002">
        <ele>41.799999237061</ele>
        <time>2017-06-01T07:41:32.000Z</time>
      </trkpt>
      <trkpt lat="43.49706" lon="6.76989">
        <ele>42.599998474121</ele>
        <time>2017-06-01T07:41:35.000Z</time>
      </trkpt>
      <trkpt lat="43.49703" lon="6.76974">
        <ele>43.200000762939</ele>
        <time>2017-06-01T07:41:39.000Z</time>
      </trkpt>
      <trkpt lat="43.49702" lon="6.76966">
        <ele>43.599998474121</ele>
        <time>2017-06-01T07:41:41.000Z</time>
      </trkpt>
      <trkpt lat="43.49698" lon="6.76949">
        <ele>44.599998474121</ele>
        <time>2017-06-01T07:41:45.000Z</time>
      </trkpt>
      <trkpt lat="43.49697" lon="6.76945">
        <ele>44.799999237061</ele>
        <time>2017-06-01T07:41:46.000Z</time>
      </trkpt>
      <trkpt lat="43.49695" lon="6.76928">
        <ele>45.599998474121</ele>
        <time>2017-06-01T07:41:51.000Z</time>
      </trkpt>
      <trkpt lat="43.49694" lon="6.7692">
        <ele>46</ele>
        <time>2017-06-01T07:41:53.000Z</time>
      </trkpt>
      <trkpt lat="43.49693" lon="6.76899">
        <ele>46.799999237061</ele>
        <time>2017-06-01T07:41:58.000Z</time>
      </trkpt>
      <trkpt lat="43.49694" lon="6.76896">
        <ele>47</ele>
        <time>2017-06-01T07:41:59.000Z</time>
      </trkpt>
      <trkpt lat="43.497" lon="6.76887">
        <ele>47.799999237061</ele>
        <time>2017-06-01T07:42:02.000Z</time>
      </trkpt>
      <trkpt lat="43.49704" lon="6.76882">
        <ele>48</ele>
        <time>2017-06-01T07:42:04.000Z</time>
      </trkpt>
      <trkpt lat="43.49716" lon="6.76868">
        <ele>49.200000762939</ele>
        <time>2017-06-01T07:42:09.000Z</time>
      </trkpt>
      <trkpt lat="43.49732" lon="6.76851">
        <ele>50.400001525879</ele>
        <time>2017-06-01T07:42:16.000Z</time>
      </trkpt>
      <trkpt lat="43.49744" lon="6.76838">
        <ele>51.400001525879</ele>
        <time>2017-06-01T07:42:22.000Z</time>
      </trkpt>
      <trkpt lat="43.49745" lon="6.76835">
        <ele>51.799999237061</ele>
        <time>2017-06-01T07:42:23.000Z</time>
      </trkpt>
      <trkpt lat="43.49747" lon="6.76821">
        <ele>52.400001525879</ele>
        <time>2017-06-01T07:42:27.000Z</time>
      </trkpt>
      <trkpt lat="43.49746" lon="6.7681">
        <ele>52.799999237061</ele>
        <time>2017-06-01T07:42:30.000Z</time>
      </trkpt>
      <trkpt lat="43.49742" lon="6.76794">
        <ele>53.599998474121</ele>
        <time>2017-06-01T07:42:34.000Z</time>
      </trkpt>
      <trkpt lat="43.4974" lon="6.76787">
        <ele>54</ele>
        <time>2017-06-01T07:42:36.000Z</time>
      </trkpt>
      <trkpt lat="43.49733" lon="6.76766">
        <ele>55</ele>
        <time>2017-06-01T07:42:42.000Z</time>
      </trkpt>
      <trkpt lat="43.49732" lon="6.76762">
        <ele>55.200000762939</ele>
        <time>2017-06-01T07:42:43.000Z</time>
      </trkpt>
      <trkpt lat="43.4973" lon="6.76738">
        <ele>56.200000762939</ele>
        <time>2017-06-01T07:42:49.000Z</time>
      </trkpt>
      <trkpt lat="43.49723" lon="6.76711">
        <ele>57.400001525879</ele>
        <time>2017-06-01T07:42:56.000Z</time>
      </trkpt>
      <trkpt lat="43.49714" lon="6.76692">
        <ele>58.400001525879</ele>
        <time>2017-06-01T07:43:02.000Z</time>
      </trkpt>
      <trkpt lat="43.49711" lon="6.76685">
        <ele>58.599998474121</ele>
        <time>2017-06-01T07:43:04.000Z</time>
      </trkpt>
      <trkpt lat="43.49706" lon="6.76671">
        <ele>59.400001525879</ele>
        <time>2017-06-01T07:43:08.000Z</time>
      </trkpt>
      <trkpt lat="43.49701" lon="6.76653">
        <ele>60.400001525879</ele>
        <time>2017-06-01T07:43:13.000Z</time>
      </trkpt>
      <trkpt lat="43.497" lon="6.76649">
        <ele>60.599998474121</ele>
        <time>2017-06-01T07:43:14.000Z</time>
      </trkpt>
      <trkpt lat="43.49691" lon="6.76638">
        <ele>61.200000762939</ele>
        <time>2017-06-01T07:43:19.000Z</time>
      </trkpt>
      <trkpt lat="43.49686" lon="6.76641">
        <ele>61.599998474121</ele>
        <time>2017-06-01T07:43:21.000Z</time>
      </trkpt>
      <trkpt lat="43.49685" lon="6.76644">
        <ele>61.799999237061</ele>
        <time>2017-06-01T07:43:22.000Z</time>
      </trkpt>
      <trkpt lat="43.49687" lon="6.76657">
        <ele>62.599998474121</ele>
        <time>2017-06-01T07:43:26.000Z</time>
      </trkpt>
      <trkpt lat="43.49689" lon="6.76667">
        <ele>63.200000762939</ele>
        <time>2017-06-01T07:43:29.000Z</time>
      </trkpt>
      <trkpt lat="43.49689" lon="6.76683">
        <ele>63.400001525879</ele>
        <time>2017-06-01T07:43:33.000Z</time>
      </trkpt>
      <trkpt lat="43.49689" lon="6.76691">
        <ele>63.799999237061</ele>
        <time>2017-06-01T07:43:35.000Z</time>
      </trkpt>
      <trkpt lat="43.49688" lon="6.76722">
        <ele>65</ele>
        <time>2017-06-01T07:43:43.000Z</time>
      </trkpt>
      <trkpt lat="43.49686" lon="6.76757">
        <ele>66</ele>
        <time>2017-06-01T07:43:52.000Z</time>
      </trkpt>
      <trkpt lat="43.49686" lon="6.76761">
        <ele>66.199996948242</ele>
        <time>2017-06-01T07:43:53.000Z</time>
      </trkpt>
      <trkpt lat="43.4968" lon="6.76778">
        <ele>66.599998474121</ele>
        <time>2017-06-01T07:43:58.000Z</time>
      </trkpt>
      <trkpt lat="43.49676" lon="6.76784">
        <ele>67.199996948242</ele>
        <time>2017-06-01T07:44:00.000Z</time>
      </trkpt>
      <trkpt lat="43.49665" lon="6.76793">
        <ele>68</ele>
        <time>2017-06-01T07:44:05.000Z</time>
      </trkpt>
      <trkpt lat="43.4966" lon="6.76796">
        <ele>68.400001525879</ele>
        <time>2017-06-01T07:44:07.000Z</time>
      </trkpt>
      <trkpt lat="43.49646" lon="6.76804">
        <ele>69.199996948242</ele>
        <time>2017-06-01T07:44:12.000Z</time>
      </trkpt>
      <trkpt lat="43.49638" lon="6.76809">
        <ele>69.599998474121</ele>
        <time>2017-06-01T07:44:15.000Z</time>
      </trkpt>
      <trkpt lat="43.49626" lon="6.76811">
        <ele>70.400001525879</ele>
        <time>2017-06-01T07:44:19.000Z</time>
      </trkpt>
      <trkpt lat="43.4962" lon="6.76814">
        <ele>70.800003051758</ele>
        <time>2017-06-01T07:44:21.000Z</time>
      </trkpt>
      <trkpt lat="43.49613" lon="6.76822">
        <ele>71.400001525879</ele>
        <time>2017-06-01T07:44:24.000Z</time>
      </trkpt>
      <trkpt lat="43.49606" lon="6.76831">
        <ele>71.800003051758</ele>
        <time>2017-06-01T07:44:27.000Z</time>
      </trkpt>
      <trkpt lat="43.49595" lon="6.76847">
        <ele>72.800003051758</ele>
        <time>2017-06-01T07:44:32.000Z</time>
      </trkpt>
      <trkpt lat="43.4959" lon="6.76853">
        <ele>73</ele>
        <time>2017-06-01T07:44:34.000Z</time>
      </trkpt>
      <trkpt lat="43.49577" lon="6.76866">
        <ele>73.800003051758</ele>
        <time>2017-06-01T07:44:39.000Z</time>
      </trkpt>
      <trkpt lat="43.49573" lon="6.76872">
        <ele>74.199996948242</ele>
        <time>2017-06-01T07:44:41.000Z</time>
      </trkpt>
      <trkpt lat="43.49566" lon="6.76884">
        <ele>74.800003051758</ele>
        <time>2017-06-01T07:44:45.000Z</time>
      </trkpt>
      <trkpt lat="43.49563" lon="6.7689">
        <ele>75.400001525879</ele>
        <time>2017-06-01T07:44:47.000Z</time>
      </trkpt>
      <trkpt lat="43.49552" lon="6.76906">
        <ele>76.599998474121</ele>
        <time>2017-06-01T07:44:53.000Z</time>
      </trkpt>
      <trkpt lat="43.49549" lon="6.76908">
        <ele>76.800003051758</ele>
        <time>2017-06-01T07:44:54.000Z</time>
      </trkpt>
      <trkpt lat="43.49531" lon="6.76913">
        <ele>77.400001525879</ele>
        <time>2017-06-01T07:45:00.000Z</time>
      </trkpt>
      <trkpt lat="43.49528" lon="6.76913">
        <ele>77.599998474121</ele>
        <time>2017-06-01T07:45:01.000Z</time>
      </trkpt>
      <trkpt lat="43.49511" lon="6.7691">
        <ele>78.800003051758</ele>
        <time>2017-06-01T07:45:07.000Z</time>
      </trkpt>
      <trkpt lat="43.49508" lon="6.7691">
        <ele>78.800003051758</ele>
        <time>2017-06-01T07:45:08.000Z</time>
      </trkpt>
      <trkpt lat="43.49496" lon="6.76912">
        <ele>79.599998474121</ele>
        <time>2017-06-01T07:45:13.000Z</time>
      </trkpt>
      <trkpt lat="43.49493" lon="6.76913">
        <ele>79.800003051758</ele>
        <time>2017-06-01T07:45:14.000Z</time>
      </trkpt>
      <trkpt lat="43.49479" lon="6.76914">
        <ele>81</ele>
        <time>2017-06-01T07:45:19.000Z</time>
      </trkpt>
      <trkpt lat="43.49465" lon="6.7691">
        <ele>82</ele>
        <time>2017-06-01T07:45:25.000Z</time>
      </trkpt>
      <trkpt lat="43.49457" lon="6.76905">
        <ele>83</ele>
        <time>2017-06-01T07:45:29.000Z</time>
      </trkpt>
      <trkpt lat="43.49449" lon="6.769">
        <ele>84</ele>
        <time>2017-06-01T07:45:33.000Z</time>
      </trkpt>
      <trkpt lat="43.49448" lon="6.769">
        <ele>84.199996948242</ele>
        <time>2017-06-01T07:45:34.000Z</time>
      </trkpt>
      <trkpt lat="43.49442" lon="6.76896">
        <ele>85.199996948242</ele>
        <time>2017-06-01T07:45:37.000Z</time>
      </trkpt>
      <trkpt lat="43.49436" lon="6.76894">
        <ele>86</ele>
        <time>2017-06-01T07:45:40.000Z</time>
      </trkpt>
      <trkpt lat="43.49432" lon="6.76892">
        <ele>86.400001525879</ele>
        <time>2017-06-01T07:45:42.000Z</time>
      </trkpt>
      <trkpt lat="43.49423" lon="6.76888">
        <ele>87.599998474121</ele>
        <time>2017-06-01T07:45:47.000Z</time>
      </trkpt>
      <trkpt lat="43.49412" lon="6.76884">
        <ele>88.800003051758</ele>
        <time>2017-06-01T07:45:52.000Z</time>
      </trkpt>
      <trkpt lat="43.49405" lon="6.76881">
        <ele>89.400001525879</ele>
        <time>2017-06-01T07:45:55.000Z</time>
      </trkpt>
      <trkpt lat="43.49399" lon="6.76877">
        <ele>89.800003051758</ele>
        <time>2017-06-01T07:45:58.000Z</time>
      </trkpt>
      <trkpt lat="43.49389" lon="6.76869">
        <ele>90.400001525879</ele>
        <time>2017-06-01T07:46:03.000Z</time>
      </trkpt>
      <trkpt lat="43.49385" lon="6.76865">
        <ele>90.800003051758</ele>
        <time>2017-06-01T07:46:05.000Z</time>
      </trkpt>
      <trkpt lat="43.49371" lon="6.76851">
        <ele>91.800003051758</ele>
        <time>2017-06-01T07:46:12.000Z</time>
      </trkpt>
      <trkpt lat="43.49358" lon="6.76836">
        <ele>93</ele>
        <time>2017-06-01T07:46:19.000Z</time>
      </trkpt>
      <trkpt lat="43.49355" lon="6.76832">
        <ele>93.199996948242</ele>
        <time>2017-06-01T07:46:21.000Z</time>
      </trkpt>
      <trkpt lat="43.49348" lon="6.76824">
        <ele>94.199996948242</ele>
        <time>2017-06-01T07:46:25.000Z</time>
      </trkpt>
      <trkpt lat="43.49341" lon="6.76817">
        <ele>95</ele>
        <time>2017-06-01T07:46:29.000Z</time>
      </trkpt>
      <trkpt lat="43.49339" lon="6.76815">
        <ele>95.199996948242</ele>
        <time>2017-06-01T07:46:30.000Z</time>
      </trkpt>
      <trkpt lat="43.49333" lon="6.76807">
        <ele>96.400001525879</ele>
        <time>2017-06-01T07:46:34.000Z</time>
      </trkpt>
      <trkpt lat="43.49333" lon="6.76804">
        <ele>96.599998474121</ele>
        <time>2017-06-01T07:46:35.000Z</time>
      </trkpt>
      <trkpt lat="43.49333" lon="6.76802">
        <ele>96.800003051758</ele>
        <time>2017-06-01T07:46:36.000Z</time>
      </trkpt>
      <trkpt lat="43.49341" lon="6.76799">
        <ele>97</ele>
        <time>2017-06-01T07:46:39.000Z</time>
      </trkpt>
      <trkpt lat="43.49348" lon="6.76801">
        <ele>97.199996948242</ele>
        <time>2017-06-01T07:46:41.000Z</time>
      </trkpt>
      <trkpt lat="43.49361" lon="6.76802">
        <ele>97</ele>
        <time>2017-06-01T07:46:44.000Z</time>
      </trkpt>
      <trkpt lat="43.49398" lon="6.76799">
        <ele>97</ele>
        <time>2017-06-01T07:46:52.000Z</time>
      </trkpt>
      <trkpt lat="43.49427" lon="6.76793">
        <ele>97.400001525879</ele>
        <time>2017-06-01T07:46:59.000Z</time>
      </trkpt>
      <trkpt lat="43.49453" lon="6.76786">
        <ele>98.400001525879</ele>
        <time>2017-06-01T07:47:07.000Z</time>
      </trkpt>
      <trkpt lat="43.49456" lon="6.76785">
        <ele>98.599998474121</ele>
        <time>2017-06-01T07:47:08.000Z</time>
      </trkpt>
      <trkpt lat="43.49467" lon="6.76783">
        <ele>99.800003051758</ele>
        <time>2017-06-01T07:47:12.000Z</time>
      </trkpt>
      <trkpt lat="43.49474" lon="6.76782">
        <ele>100.40000152588</ele>
        <time>2017-06-01T07:47:15.000Z</time>
      </trkpt>
      <trkpt lat="43.49478" lon="6.7678">
        <ele>101</ele>
        <time>2017-06-01T07:47:17.000Z</time>
      </trkpt>
      <trkpt lat="43.49489" lon="6.76772">
        <ele>101.59999847412</ele>
        <time>2017-06-01T07:47:22.000Z</time>
      </trkpt>
      <trkpt lat="43.49495" lon="6.76764">
        <ele>102</ele>
        <time>2017-06-01T07:47:25.000Z</time>
      </trkpt>
      <trkpt lat="43.49505" lon="6.76747">
        <ele>102.40000152588</ele>
        <time>2017-06-01T07:47:30.000Z</time>
      </trkpt>
      <trkpt lat="43.49515" lon="6.76715">
        <ele>103</ele>
        <time>2017-06-01T07:47:37.000Z</time>
      </trkpt>
      <trkpt lat="43.49516" lon="6.7671">
        <ele>103.19999694824</ele>
        <time>2017-06-01T07:47:38.000Z</time>
      </trkpt>
      <trkpt lat="43.49519" lon="6.76689">
        <ele>103.80000305176</ele>
        <time>2017-06-01T07:47:42.000Z</time>
      </trkpt>
      <trkpt lat="43.49518" lon="6.76669">
        <ele>104</ele>
        <time>2017-06-01T07:47:46.000Z</time>
      </trkpt>
      <trkpt lat="43.49515" lon="6.76653">
        <ele>104.19999694824</ele>
        <time>2017-06-01T07:47:49.000Z</time>
      </trkpt>
      <trkpt lat="43.4951" lon="6.76634">
        <ele>104.80000305176</ele>
        <time>2017-06-01T07:47:53.000Z</time>
      </trkpt>
      <trkpt lat="43.49497" lon="6.76608">
        <ele>105.19999694824</ele>
        <time>2017-06-01T07:47:59.000Z</time>
      </trkpt>
      <trkpt lat="43.49495" lon="6.76605">
        <ele>105.40000152588</ele>
        <time>2017-06-01T07:48:00.000Z</time>
      </trkpt>
      <trkpt lat="43.49481" lon="6.76592">
        <ele>106.19999694824</ele>
        <time>2017-06-01T07:48:05.000Z</time>
      </trkpt>
      <trkpt lat="43.49478" lon="6.7659">
        <ele>106.40000152588</ele>
        <time>2017-06-01T07:48:06.000Z</time>
      </trkpt>
      <trkpt lat="43.49466" lon="6.76588">
        <ele>107.59999847412</ele>
        <time>2017-06-01T07:48:11.000Z</time>
      </trkpt>
      <trkpt lat="43.49463" lon="6.76588">
        <ele>107.80000305176</ele>
        <time>2017-06-01T07:48:12.000Z</time>
      </trkpt>
      <trkpt lat="43.49453" lon="6.76591">
        <ele>108.80000305176</ele>
        <time>2017-06-01T07:48:16.000Z</time>
      </trkpt>
      <trkpt lat="43.49445" lon="6.76595">
        <ele>109.40000152588</ele>
        <time>2017-06-01T07:48:19.000Z</time>
      </trkpt>
      <trkpt lat="43.4944" lon="6.76598">
        <ele>109.80000305176</ele>
        <time>2017-06-01T07:48:21.000Z</time>
      </trkpt>
      <trkpt lat="43.49428" lon="6.76607">
        <ele>110.59999847412</ele>
        <time>2017-06-01T07:48:26.000Z</time>
      </trkpt>
      <trkpt lat="43.49419" lon="6.76611">
        <ele>110.80000305176</ele>
        <time>2017-06-01T07:48:29.000Z</time>
      </trkpt>
      <trkpt lat="43.49407" lon="6.76615">
        <ele>111.80000305176</ele>
        <time>2017-06-01T07:48:34.000Z</time>
      </trkpt>
      <trkpt lat="43.49404" lon="6.76616">
        <ele>112</ele>
        <time>2017-06-01T07:48:35.000Z</time>
      </trkpt>
      <trkpt lat="43.494" lon="6.76618">
        <ele>112.19999694824</ele>
        <time>2017-06-01T07:48:37.000Z</time>
      </trkpt>
      <trkpt lat="43.49398" lon="6.76624">
        <ele>112.40000152588</ele>
        <time>2017-06-01T07:48:39.000Z</time>
      </trkpt>
      <trkpt lat="43.49399" lon="6.76629">
        <ele>113</ele>
        <time>2017-06-01T07:48:41.000Z</time>
      </trkpt>
      <trkpt lat="43.49403" lon="6.76631">
        <ele>113.59999847412</ele>
        <time>2017-06-01T07:48:43.000Z</time>
      </trkpt>
      <trkpt lat="43.49414" lon="6.76629">
        <ele>114</ele>
        <time>2017-06-01T07:48:47.000Z</time>
      </trkpt>
      <trkpt lat="43.49417" lon="6.76628">
        <ele>114.19999694824</ele>
        <time>2017-06-01T07:48:48.000Z</time>
      </trkpt>
      <trkpt lat="43.49444" lon="6.76621">
        <ele>114.40000152588</ele>
        <time>2017-06-01T07:48:56.000Z</time>
      </trkpt>
      <trkpt lat="43.49459" lon="6.76619">
        <ele>115</ele>
        <time>2017-06-01T07:49:01.000Z</time>
      </trkpt>
      <trkpt lat="43.49462" lon="6.7662">
        <ele>115.19999694824</ele>
        <time>2017-06-01T07:49:02.000Z</time>
      </trkpt>
      <trkpt lat="43.49463" lon="6.76623">
        <ele>115.40000152588</ele>
        <time>2017-06-01T07:49:03.000Z</time>
      </trkpt>
      <trkpt lat="43.49461" lon="6.76631">
        <ele>116.19999694824</ele>
        <time>2017-06-01T07:49:07.000Z</time>
      </trkpt>
      <trkpt lat="43.49459" lon="6.76632">
        <ele>116.40000152588</ele>
        <time>2017-06-01T07:49:08.000Z</time>
      </trkpt>
      <trkpt lat="43.49448" lon="6.76634">
        <ele>117.19999694824</ele>
        <time>2017-06-01T07:49:12.000Z</time>
      </trkpt>
      <trkpt lat="43.49446" lon="6.76635">
        <ele>117.40000152588</ele>
        <time>2017-06-01T07:49:13.000Z</time>
      </trkpt>
      <trkpt lat="43.49443" lon="6.76636">
        <ele>117.59999847412</ele>
        <time>2017-06-01T07:49:14.000Z</time>
      </trkpt>
      <trkpt lat="43.49433" lon="6.76643">
        <ele>118.40000152588</ele>
        <time>2017-06-01T07:49:18.000Z</time>
      </trkpt>
      <trkpt lat="43.4942" lon="6.76651">
        <ele>119.40000152588</ele>
        <time>2017-06-01T07:49:23.000Z</time>
      </trkpt>
      <trkpt lat="43.49417" lon="6.76653">
        <ele>119.59999847412</ele>
        <time>2017-06-01T07:49:24.000Z</time>
      </trkpt>
      <trkpt lat="43.49395" lon="6.7666">
        <ele>120.19999694824</ele>
        <time>2017-06-01T07:49:31.000Z</time>
      </trkpt>
      <trkpt lat="43.49388" lon="6.76662">
        <ele>120.59999847412</ele>
        <time>2017-06-01T07:49:33.000Z</time>
      </trkpt>
      <trkpt lat="43.49373" lon="6.76664">
        <ele>121.59999847412</ele>
        <time>2017-06-01T07:49:38.000Z</time>
      </trkpt>
      <trkpt lat="43.4937" lon="6.76664">
        <ele>121.80000305176</ele>
        <time>2017-06-01T07:49:39.000Z</time>
      </trkpt>
      <trkpt lat="43.49358" lon="6.76663">
        <ele>122.80000305176</ele>
        <time>2017-06-01T07:49:43.000Z</time>
      </trkpt>
      <trkpt lat="43.49353" lon="6.76659">
        <ele>123.19999694824</ele>
        <time>2017-06-01T07:49:45.000Z</time>
      </trkpt>
      <trkpt lat="43.49347" lon="6.76641">
        <ele>123.40000152588</ele>
        <time>2017-06-01T07:49:49.000Z</time>
      </trkpt>
      <trkpt lat="43.49346" lon="6.76625">
        <ele>123.80000305176</ele>
        <time>2017-06-01T07:49:52.000Z</time>
      </trkpt>
      <trkpt lat="43.49343" lon="6.76605">
        <ele>124.19999694824</ele>
        <time>2017-06-01T07:49:56.000Z</time>
      </trkpt>
      <trkpt lat="43.49333" lon="6.76573">
        <ele>124.40000152588</ele>
        <time>2017-06-01T07:50:02.000Z</time>
      </trkpt>
      <trkpt lat="43.49315" lon="6.76525">
        <ele>124.40000152588</ele>
        <time>2017-06-01T07:50:10.000Z</time>
      </trkpt>
      <trkpt lat="43.49299" lon="6.76512">
        <ele>124.19999694824</ele>
        <time>2017-06-01T07:50:14.000Z</time>
      </trkpt>
      <trkpt lat="43.49282" lon="6.76512">
        <ele>124.59999847412</ele>
        <time>2017-06-01T07:50:18.000Z</time>
      </trkpt>
      <trkpt lat="43.49277" lon="6.76517">
        <ele>124.80000305176</ele>
        <time>2017-06-01T07:50:20.000Z</time>
      </trkpt>
      <trkpt lat="43.49275" lon="6.76519">
        <ele>125</ele>
        <time>2017-06-01T07:50:21.000Z</time>
      </trkpt>
      <trkpt lat="43.49274" lon="6.76521">
        <ele>125.40000152588</ele>
        <time>2017-06-01T07:50:22.000Z</time>
      </trkpt>
      <trkpt lat="43.49269" lon="6.76527">
        <ele>126.19999694824</ele>
        <time>2017-06-01T07:50:25.000Z</time>
      </trkpt>
      <trkpt lat="43.49264" lon="6.76537">
        <ele>127.40000152588</ele>
        <time>2017-06-01T07:50:29.000Z</time>
      </trkpt>
      <trkpt lat="43.49258" lon="6.7655">
        <ele>128.60000610352</ele>
        <time>2017-06-01T07:50:34.000Z</time>
      </trkpt>
      <trkpt lat="43.49255" lon="6.76559">
        <ele>129.19999694824</ele>
        <time>2017-06-01T07:50:37.000Z</time>
      </trkpt>
      <trkpt lat="43.49254" lon="6.76564">
        <ele>129.60000610352</ele>
        <time>2017-06-01T07:50:39.000Z</time>
      </trkpt>
      <trkpt lat="43.49253" lon="6.76573">
        <ele>130.39999389648</ele>
        <time>2017-06-01T07:50:42.000Z</time>
      </trkpt>
      <trkpt lat="43.49253" lon="6.76582">
        <ele>131</ele>
        <time>2017-06-01T07:50:45.000Z</time>
      </trkpt>
      <trkpt lat="43.49253" lon="6.76598">
        <ele>132</ele>
        <time>2017-06-01T07:50:50.000Z</time>
      </trkpt>
      <trkpt lat="43.49254" lon="6.76605">
        <ele>132.39999389648</ele>
        <time>2017-06-01T07:50:52.000Z</time>
      </trkpt>
      <trkpt lat="43.49255" lon="6.76616">
        <ele>133</ele>
        <time>2017-06-01T07:50:55.000Z</time>
      </trkpt>
      <trkpt lat="43.49259" lon="6.76632">
        <ele>133.80000305176</ele>
        <time>2017-06-01T07:51:00.000Z</time>
      </trkpt>
      <trkpt lat="43.4926" lon="6.76635">
        <ele>134</ele>
        <time>2017-06-01T07:51:01.000Z</time>
      </trkpt>
      <trkpt lat="43.49262" lon="6.76658">
        <ele>134.80000305176</ele>
        <time>2017-06-01T07:51:07.000Z</time>
      </trkpt>
      <trkpt lat="43.49252" lon="6.76671">
        <ele>134.80000305176</ele>
        <time>2017-06-01T07:51:11.000Z</time>
      </trkpt>
      <trkpt lat="43.49229" lon="6.76686">
        <ele>134.19999694824</ele>
        <time>2017-06-01T07:51:16.000Z</time>
      </trkpt>
      <trkpt lat="43.49213" lon="6.76706">
        <ele>134</ele>
        <time>2017-06-01T07:51:20.000Z</time>
      </trkpt>
      <trkpt lat="43.4921" lon="6.76712">
        <ele>134.19999694824</ele>
        <time>2017-06-01T07:51:21.000Z</time>
      </trkpt>
      <trkpt lat="43.49198" lon="6.76746">
        <ele>135.19999694824</ele>
        <time>2017-06-01T07:51:27.000Z</time>
      </trkpt>
      <trkpt lat="43.49192" lon="6.76761">
        <ele>136.19999694824</ele>
        <time>2017-06-01T07:51:31.000Z</time>
      </trkpt>
      <trkpt lat="43.49191" lon="6.76765">
        <ele>136.60000610352</ele>
        <time>2017-06-01T07:51:32.000Z</time>
      </trkpt>
      <trkpt lat="43.49185" lon="6.76781">
        <ele>137.60000610352</ele>
        <time>2017-06-01T07:51:36.000Z</time>
      </trkpt>
      <trkpt lat="43.49182" lon="6.76789">
        <ele>137.80000305176</ele>
        <time>2017-06-01T07:51:38.000Z</time>
      </trkpt>
      <trkpt lat="43.49166" lon="6.76804">
        <ele>138.19999694824</ele>
        <time>2017-06-01T07:51:43.000Z</time>
      </trkpt>
      <trkpt lat="43.4915" lon="6.76811">
        <ele>138.60000610352</ele>
        <time>2017-06-01T07:51:48.000Z</time>
      </trkpt>
      <trkpt lat="43.49148" lon="6.76812">
        <ele>139</ele>
        <time>2017-06-01T07:51:49.000Z</time>
      </trkpt>
      <trkpt lat="43.4914" lon="6.76812">
        <ele>139.80000305176</ele>
        <time>2017-06-01T07:51:53.000Z</time>
      </trkpt>
      <trkpt lat="43.49134" lon="6.7681">
        <ele>140.19999694824</ele>
        <time>2017-06-01T07:51:56.000Z</time>
      </trkpt>
      <trkpt lat="43.49126" lon="6.76809">
        <ele>141</ele>
        <time>2017-06-01T07:52:00.000Z</time>
      </trkpt>
      <trkpt lat="43.49116" lon="6.7681">
        <ele>141.39999389648</ele>
        <time>2017-06-01T07:52:04.000Z</time>
      </trkpt>
      <trkpt lat="43.491" lon="6.76815">
        <ele>142</ele>
        <time>2017-06-01T07:52:10.000Z</time>
      </trkpt>
      <trkpt lat="43.49095" lon="6.76817">
        <ele>142.39999389648</ele>
        <time>2017-06-01T07:52:12.000Z</time>
      </trkpt>
      <trkpt lat="43.49085" lon="6.76823">
        <ele>143</ele>
        <time>2017-06-01T07:52:16.000Z</time>
      </trkpt>
      <trkpt lat="43.49079" lon="6.76823">
        <ele>143.19999694824</ele>
        <time>2017-06-01T07:52:18.000Z</time>
      </trkpt>
      <trkpt lat="43.4906" lon="6.76813">
        <ele>143.19999694824</ele>
        <time>2017-06-01T07:52:23.000Z</time>
      </trkpt>
      <trkpt lat="43.49033" lon="6.76799">
        <ele>142</ele>
        <time>2017-06-01T07:52:28.000Z</time>
      </trkpt>
      <trkpt lat="43.49028" lon="6.76796">
        <ele>141.80000305176</ele>
        <time>2017-06-01T07:52:29.000Z</time>
      </trkpt>
      <trkpt lat="43.48995" lon="6.76776">
        <ele>141.39999389648</ele>
        <time>2017-06-01T07:52:36.000Z</time>
      </trkpt>
      <trkpt lat="43.48988" lon="6.76784">
        <ele>142.19999694824</ele>
        <time>2017-06-01T07:52:39.000Z</time>
      </trkpt>
      <trkpt lat="43.48993" lon="6.76792">
        <ele>143</ele>
        <time>2017-06-01T07:52:42.000Z</time>
      </trkpt>
      <trkpt lat="43.48995" lon="6.76793">
        <ele>143.19999694824</ele>
        <time>2017-06-01T07:52:43.000Z</time>
      </trkpt>
      <trkpt lat="43.48997" lon="6.76794">
        <ele>143.39999389648</ele>
        <time>2017-06-01T07:52:44.000Z</time>
      </trkpt>
      <trkpt lat="43.49004" lon="6.768">
        <ele>144</ele>
        <time>2017-06-01T07:52:47.000Z</time>
      </trkpt>
      <trkpt lat="43.49006" lon="6.76802">
        <ele>144.60000610352</ele>
        <time>2017-06-01T07:52:48.000Z</time>
      </trkpt>
      <trkpt lat="43.49019" lon="6.76814">
        <ele>145.80000305176</ele>
        <time>2017-06-01T07:52:54.000Z</time>
      </trkpt>
      <trkpt lat="43.49021" lon="6.76817">
        <ele>146</ele>
        <time>2017-06-01T07:52:55.000Z</time>
      </trkpt>
      <trkpt lat="43.49033" lon="6.76827">
        <ele>146.80000305176</ele>
        <time>2017-06-01T07:53:00.000Z</time>
      </trkpt>
      <trkpt lat="43.49037" lon="6.76831">
        <ele>147.39999389648</ele>
        <time>2017-06-01T07:53:02.000Z</time>
      </trkpt>
      <trkpt lat="43.49043" lon="6.76835">
        <ele>148</ele>
        <time>2017-06-01T07:53:05.000Z</time>
      </trkpt>
      <trkpt lat="43.49051" lon="6.76838">
        <ele>148.39999389648</ele>
        <time>2017-06-01T07:53:08.000Z</time>
      </trkpt>
      <trkpt lat="43.49058" lon="6.76842">
        <ele>149.19999694824</ele>
        <time>2017-06-01T07:53:11.000Z</time>
      </trkpt>
      <trkpt lat="43.49066" lon="6.76852">
        <ele>150.19999694824</ele>
        <time>2017-06-01T07:53:15.000Z</time>
      </trkpt>
      <trkpt lat="43.49067" lon="6.76854">
        <ele>150.60000610352</ele>
        <time>2017-06-01T07:53:16.000Z</time>
      </trkpt>
      <trkpt lat="43.49074" lon="6.76864">
        <ele>151.60000610352</ele>
        <time>2017-06-01T07:53:20.000Z</time>
      </trkpt>
      <trkpt lat="43.49078" lon="6.76868">
        <ele>152</ele>
        <time>2017-06-01T07:53:22.000Z</time>
      </trkpt>
      <trkpt lat="43.49084" lon="6.76872">
        <ele>152.80000305176</ele>
        <time>2017-06-01T07:53:25.000Z</time>
      </trkpt>
      <trkpt lat="43.49092" lon="6.76874">
        <ele>153.19999694824</ele>
        <time>2017-06-01T07:53:28.000Z</time>
      </trkpt>
      <trkpt lat="43.49109" lon="6.76879">
        <ele>153.60000610352</ele>
        <time>2017-06-01T07:53:34.000Z</time>
      </trkpt>
      <trkpt lat="43.49113" lon="6.76885">
        <ele>154.19999694824</ele>
        <time>2017-06-01T07:53:36.000Z</time>
      </trkpt>
      <trkpt lat="43.49118" lon="6.76895">
        <ele>154.80000305176</ele>
        <time>2017-06-01T07:53:39.000Z</time>
      </trkpt>
      <trkpt lat="43.49124" lon="6.76908">
        <ele>155.19999694824</ele>
        <time>2017-06-01T07:53:43.000Z</time>
      </trkpt>
      <trkpt lat="43.49127" lon="6.76914">
        <ele>155.80000305176</ele>
        <time>2017-06-01T07:53:45.000Z</time>
      </trkpt>
      <trkpt lat="43.49132" lon="6.76925">
        <ele>156.39999389648</ele>
        <time>2017-06-01T07:53:49.000Z</time>
      </trkpt>
      <trkpt lat="43.49134" lon="6.76932">
        <ele>156.80000305176</ele>
        <time>2017-06-01T07:53:51.000Z</time>
      </trkpt>
      <trkpt lat="43.49132" lon="6.76947">
        <ele>157.60000610352</ele>
        <time>2017-06-01T07:53:55.000Z</time>
      </trkpt>
      <trkpt lat="43.49131" lon="6.7695">
        <ele>157.80000305176</ele>
        <time>2017-06-01T07:53:56.000Z</time>
      </trkpt>
      <trkpt lat="43.49128" lon="6.76962">
        <ele>159</ele>
        <time>2017-06-01T07:54:00.000Z</time>
      </trkpt>
      <trkpt lat="43.49127" lon="6.76966">
        <ele>159</ele>
        <time>2017-06-01T07:54:01.000Z</time>
      </trkpt>
      <trkpt lat="43.49123" lon="6.76988">
        <ele>160.19999694824</ele>
        <time>2017-06-01T07:54:07.000Z</time>
      </trkpt>
      <trkpt lat="43.49121" lon="6.76995">
        <ele>160.60000610352</ele>
        <time>2017-06-01T07:54:09.000Z</time>
      </trkpt>
      <trkpt lat="43.49117" lon="6.77032">
        <ele>161</ele>
        <time>2017-06-01T07:54:17.000Z</time>
      </trkpt>
      <trkpt lat="43.49114" lon="6.77066">
        <ele>160.60000610352</ele>
        <time>2017-06-01T07:54:23.000Z</time>
      </trkpt>
      <trkpt lat="43.49113" lon="6.77071">
        <ele>160.80000305176</ele>
        <time>2017-06-01T07:54:24.000Z</time>
      </trkpt>
      <trkpt lat="43.49105" lon="6.7711">
        <ele>161.19999694824</ele>
        <time>2017-06-01T07:54:32.000Z</time>
      </trkpt>
      <trkpt lat="43.49101" lon="6.77127">
        <ele>162.39999389648</ele>
        <time>2017-06-01T07:54:38.000Z</time>
      </trkpt>
      <trkpt lat="43.491" lon="6.77131">
        <ele>162.60000610352</ele>
        <time>2017-06-01T07:54:39.000Z</time>
      </trkpt>
      <trkpt lat="43.49098" lon="6.77144">
        <ele>163.60000610352</ele>
        <time>2017-06-01T07:54:43.000Z</time>
      </trkpt>
      <trkpt lat="43.49098" lon="6.77154">
        <ele>164.19999694824</ele>
        <time>2017-06-01T07:54:46.000Z</time>
      </trkpt>
      <trkpt lat="43.49097" lon="6.77164">
        <ele>164.80000305176</ele>
        <time>2017-06-01T07:54:49.000Z</time>
      </trkpt>
      <trkpt lat="43.49095" lon="6.77177">
        <ele>165.60000610352</ele>
        <time>2017-06-01T07:54:53.000Z</time>
      </trkpt>
      <trkpt lat="43.49094" lon="6.77183">
        <ele>165.80000305176</ele>
        <time>2017-06-01T07:54:55.000Z</time>
      </trkpt>
      <trkpt lat="43.49093" lon="6.77195">
        <ele>167</ele>
        <time>2017-06-01T07:54:59.000Z</time>
      </trkpt>
      <trkpt lat="43.49092" lon="6.77203">
        <ele>167.60000610352</ele>
        <time>2017-06-01T07:55:02.000Z</time>
      </trkpt>
      <trkpt lat="43.4909" lon="6.77209">
        <ele>168</ele>
        <time>2017-06-01T07:55:04.000Z</time>
      </trkpt>
      <trkpt lat="43.49087" lon="6.77224">
        <ele>169.19999694824</ele>
        <time>2017-06-01T07:55:09.000Z</time>
      </trkpt>
      <trkpt lat="43.49086" lon="6.77229">
        <ele>169.60000610352</ele>
        <time>2017-06-01T07:55:11.000Z</time>
      </trkpt>
      <trkpt lat="43.49085" lon="6.77238">
        <ele>170.39999389648</ele>
        <time>2017-06-01T07:55:14.000Z</time>
      </trkpt>
      <trkpt lat="43.49087" lon="6.77251">
        <ele>171</ele>
        <time>2017-06-01T07:55:18.000Z</time>
      </trkpt>
      <trkpt lat="43.49089" lon="6.77257">
        <ele>171.39999389648</ele>
        <time>2017-06-01T07:55:20.000Z</time>
      </trkpt>
      <trkpt lat="43.49096" lon="6.77269">
        <ele>172.19999694824</ele>
        <time>2017-06-01T07:55:24.000Z</time>
      </trkpt>
      <trkpt lat="43.49099" lon="6.77274">
        <ele>172.39999389648</ele>
        <time>2017-06-01T07:55:26.000Z</time>
      </trkpt>
      <trkpt lat="43.49105" lon="6.77287">
        <ele>173.60000610352</ele>
        <time>2017-06-01T07:55:31.000Z</time>
      </trkpt>
      <trkpt lat="43.49106" lon="6.7729">
        <ele>173.80000305176</ele>
        <time>2017-06-01T07:55:32.000Z</time>
      </trkpt>
      <trkpt lat="43.4911" lon="6.77303">
        <ele>174.80000305176</ele>
        <time>2017-06-01T07:55:36.000Z</time>
      </trkpt>
      <trkpt lat="43.49112" lon="6.77316">
        <ele>175.39999389648</ele>
        <time>2017-06-01T07:55:40.000Z</time>
      </trkpt>
      <trkpt lat="43.49113" lon="6.77323">
        <ele>175.80000305176</ele>
        <time>2017-06-01T07:55:42.000Z</time>
      </trkpt>
      <trkpt lat="43.49115" lon="6.7734">
        <ele>176.80000305176</ele>
        <time>2017-06-01T07:55:47.000Z</time>
      </trkpt>
      <trkpt lat="43.49116" lon="6.77343">
        <ele>177</ele>
        <time>2017-06-01T07:55:48.000Z</time>
      </trkpt>
      <trkpt lat="43.49121" lon="6.77356">
        <ele>178.19999694824</ele>
        <time>2017-06-01T07:55:53.000Z</time>
      </trkpt>
      <trkpt lat="43.4913" lon="6.77374">
        <ele>179.19999694824</ele>
        <time>2017-06-01T07:55:59.000Z</time>
      </trkpt>
      <trkpt lat="43.49131" lon="6.77377">
        <ele>179.39999389648</ele>
        <time>2017-06-01T07:56:00.000Z</time>
      </trkpt>
      <trkpt lat="43.49144" lon="6.77411">
        <ele>179.60000610352</ele>
        <time>2017-06-01T07:56:08.000Z</time>
      </trkpt>
      <trkpt lat="43.49151" lon="6.77427">
        <ele>179.60000610352</ele>
        <time>2017-06-01T07:56:11.000Z</time>
      </trkpt>
      <trkpt lat="43.49158" lon="6.77437">
        <ele>179.19999694824</ele>
        <time>2017-06-01T07:56:13.000Z</time>
      </trkpt>
      <trkpt lat="43.49173" lon="6.77452">
        <ele>178.19999694824</ele>
        <time>2017-06-01T07:56:16.000Z</time>
      </trkpt>
      <trkpt lat="43.49178" lon="6.77457">
        <ele>178</ele>
        <time>2017-06-01T07:56:17.000Z</time>
      </trkpt>
      <trkpt lat="43.49183" lon="6.77463">
        <ele>177.60000610352</ele>
        <time>2017-06-01T07:56:18.000Z</time>
      </trkpt>
      <trkpt lat="43.49192" lon="6.77482">
        <ele>176.60000610352</ele>
        <time>2017-06-01T07:56:20.000Z</time>
      </trkpt>
      <trkpt lat="43.49194" lon="6.77492">
        <ele>176</ele>
        <time>2017-06-01T07:56:21.000Z</time>
      </trkpt>
      <trkpt lat="43.49196" lon="6.77504">
        <ele>175.39999389648</ele>
        <time>2017-06-01T07:56:22.000Z</time>
      </trkpt>
      <trkpt lat="43.49195" lon="6.77526">
        <ele>174.39999389648</ele>
        <time>2017-06-01T07:56:24.000Z</time>
      </trkpt>
      <trkpt lat="43.49191" lon="6.77545">
        <ele>174.39999389648</ele>
        <time>2017-06-01T07:56:26.000Z</time>
      </trkpt>
      <trkpt lat="43.49188" lon="6.77552">
        <ele>174.80000305176</ele>
        <time>2017-06-01T07:56:27.000Z</time>
      </trkpt>
      <trkpt lat="43.49175" lon="6.77569">
        <ele>175.60000610352</ele>
        <time>2017-06-01T07:56:31.000Z</time>
      </trkpt>
      <trkpt lat="43.49162" lon="6.7758">
        <ele>176.80000305176</ele>
        <time>2017-06-01T07:56:36.000Z</time>
      </trkpt>
      <trkpt lat="43.49159" lon="6.77582">
        <ele>177</ele>
        <time>2017-06-01T07:56:37.000Z</time>
      </trkpt>
      <trkpt lat="43.49149" lon="6.77588">
        <ele>178</ele>
        <time>2017-06-01T07:56:41.000Z</time>
      </trkpt>
      <trkpt lat="43.49147" lon="6.7759">
        <ele>178.39999389648</ele>
        <time>2017-06-01T07:56:42.000Z</time>
      </trkpt>
      <trkpt lat="43.49142" lon="6.77592">
        <ele>179</ele>
        <time>2017-06-01T07:56:44.000Z</time>
      </trkpt>
      <trkpt lat="43.49141" lon="6.77593">
        <ele>179.39999389648</ele>
        <time>2017-06-01T07:56:45.000Z</time>
      </trkpt>
      <trkpt lat="43.49131" lon="6.77598">
        <ele>180.39999389648</ele>
        <time>2017-06-01T07:56:50.000Z</time>
      </trkpt>
      <trkpt lat="43.49122" lon="6.77608">
        <ele>181.60000610352</ele>
        <time>2017-06-01T07:56:55.000Z</time>
      </trkpt>
      <trkpt lat="43.4912" lon="6.7761">
        <ele>182</ele>
        <time>2017-06-01T07:56:56.000Z</time>
      </trkpt>
      <trkpt lat="43.49113" lon="6.77619">
        <ele>182.80000305176</ele>
        <time>2017-06-01T07:57:00.000Z</time>
      </trkpt>
      <trkpt lat="43.49106" lon="6.77628">
        <ele>183.60000610352</ele>
        <time>2017-06-01T07:57:04.000Z</time>
      </trkpt>
      <trkpt lat="43.49104" lon="6.7763">
        <ele>183.80000305176</ele>
        <time>2017-06-01T07:57:05.000Z</time>
      </trkpt>
      <trkpt lat="43.491" lon="6.77645">
        <ele>185</ele>
        <time>2017-06-01T07:57:10.000Z</time>
      </trkpt>
      <trkpt lat="43.49099" lon="6.77648">
        <ele>185.19999694824</ele>
        <time>2017-06-01T07:57:11.000Z</time>
      </trkpt>
      <trkpt lat="43.49098" lon="6.77662">
        <ele>186.19999694824</ele>
        <time>2017-06-01T07:57:15.000Z</time>
      </trkpt>
      <trkpt lat="43.491" lon="6.77672">
        <ele>186.80000305176</ele>
        <time>2017-06-01T07:57:18.000Z</time>
      </trkpt>
      <trkpt lat="43.49099" lon="6.77685">
        <ele>187.39999389648</ele>
        <time>2017-06-01T07:57:22.000Z</time>
      </trkpt>
      <trkpt lat="43.49095" lon="6.77693">
        <ele>187.80000305176</ele>
        <time>2017-06-01T07:57:25.000Z</time>
      </trkpt>
      <trkpt lat="43.4909" lon="6.77698">
        <ele>188.39999389648</ele>
        <time>2017-06-01T07:57:28.000Z</time>
      </trkpt>
      <trkpt lat="43.49084" lon="6.777">
        <ele>189</ele>
        <time>2017-06-01T07:57:31.000Z</time>
      </trkpt>
      <trkpt lat="43.49078" lon="6.77699">
        <ele>189.60000610352</ele>
        <time>2017-06-01T07:57:34.000Z</time>
      </trkpt>
      <trkpt lat="43.49072" lon="6.77692">
        <ele>190.39999389648</ele>
        <time>2017-06-01T07:57:38.000Z</time>
      </trkpt>
      <trkpt lat="43.49071" lon="6.77689">
        <ele>190.60000610352</ele>
        <time>2017-06-01T07:57:39.000Z</time>
      </trkpt>
      <trkpt lat="43.49069" lon="6.77676">
        <ele>191</ele>
        <time>2017-06-01T07:57:43.000Z</time>
      </trkpt>
      <trkpt lat="43.49068" lon="6.77662">
        <ele>191.60000610352</ele>
        <time>2017-06-01T07:57:47.000Z</time>
      </trkpt>
      <trkpt lat="43.49066" lon="6.77653">
        <ele>192</ele>
        <time>2017-06-01T07:57:50.000Z</time>
      </trkpt>
      <trkpt lat="43.49059" lon="6.77639">
        <ele>192.80000305176</ele>
        <time>2017-06-01T07:57:55.000Z</time>
      </trkpt>
      <trkpt lat="43.49054" lon="6.7763">
        <ele>193.39999389648</ele>
        <time>2017-06-01T07:57:58.000Z</time>
      </trkpt>
      <trkpt lat="43.4905" lon="6.7762">
        <ele>193.80000305176</ele>
        <time>2017-06-01T07:58:01.000Z</time>
      </trkpt>
      <trkpt lat="43.49042" lon="6.77597">
        <ele>194.60000610352</ele>
        <time>2017-06-01T07:58:07.000Z</time>
      </trkpt>
      <trkpt lat="43.49037" lon="6.77588">
        <ele>194.80000305176</ele>
        <time>2017-06-01T07:58:09.000Z</time>
      </trkpt>
      <trkpt lat="43.49026" lon="6.77568">
        <ele>195</ele>
        <time>2017-06-01T07:58:14.000Z</time>
      </trkpt>
      <trkpt lat="43.49016" lon="6.77549">
        <ele>195.80000305176</ele>
        <time>2017-06-01T07:58:19.000Z</time>
      </trkpt>
      <trkpt lat="43.49012" lon="6.77535">
        <ele>195.80000305176</ele>
        <time>2017-06-01T07:58:22.000Z</time>
      </trkpt>
      <trkpt lat="43.49009" lon="6.77495">
        <ele>196</ele>
        <time>2017-06-01T07:58:29.000Z</time>
      </trkpt>
      <trkpt lat="43.49005" lon="6.77463">
        <ele>196</ele>
        <time>2017-06-01T07:58:34.000Z</time>
      </trkpt>
      <trkpt lat="43.49006" lon="6.77456">
        <ele>195.80000305176</ele>
        <time>2017-06-01T07:58:35.000Z</time>
      </trkpt>
      <trkpt lat="43.49007" lon="6.7745">
        <ele>196</ele>
        <time>2017-06-01T07:58:36.000Z</time>
      </trkpt>
      <trkpt lat="43.49012" lon="6.77427">
        <ele>196.19999694824</ele>
        <time>2017-06-01T07:58:40.000Z</time>
      </trkpt>
      <trkpt lat="43.4902" lon="6.77389">
        <ele>196.19999694824</ele>
        <time>2017-06-01T07:58:47.000Z</time>
      </trkpt>
      <trkpt lat="43.49019" lon="6.77368">
        <ele>197</ele>
        <time>2017-06-01T07:58:51.000Z</time>
      </trkpt>
      <trkpt lat="43.49018" lon="6.77354">
        <ele>197.39999389648</ele>
        <time>2017-06-01T07:58:54.000Z</time>
      </trkpt>
      <trkpt lat="43.49008" lon="6.77327">
        <ele>197.60000610352</ele>
        <time>2017-06-01T07:59:00.000Z</time>
      </trkpt>
      <trkpt lat="43.48999" lon="6.7731">
        <ele>198</ele>
        <time>2017-06-01T07:59:05.000Z</time>
      </trkpt>
      <trkpt lat="43.48997" lon="6.77308">
        <ele>198.19999694824</ele>
        <time>2017-06-01T07:59:06.000Z</time>
      </trkpt>
      <trkpt lat="43.48985" lon="6.77295">
        <ele>199.39999389648</ele>
        <time>2017-06-01T07:59:12.000Z</time>
      </trkpt>
      <trkpt lat="43.48974" lon="6.77285">
        <ele>200.39999389648</ele>
        <time>2017-06-01T07:59:17.000Z</time>
      </trkpt>
      <trkpt lat="43.48971" lon="6.77284">
        <ele>200.60000610352</ele>
        <time>2017-06-01T07:59:18.000Z</time>
      </trkpt>
      <trkpt lat="43.48959" lon="6.77278">
        <ele>201.60000610352</ele>
        <time>2017-06-01T07:59:23.000Z</time>
      </trkpt>
      <trkpt lat="43.48954" lon="6.77275">
        <ele>202</ele>
        <time>2017-06-01T07:59:25.000Z</time>
      </trkpt>
      <trkpt lat="43.48938" lon="6.77266">
        <ele>202.80000305176</ele>
        <time>2017-06-01T07:59:31.000Z</time>
      </trkpt>
      <trkpt lat="43.48932" lon="6.77261">
        <ele>203</ele>
        <time>2017-06-01T07:59:33.000Z</time>
      </trkpt>
      <trkpt lat="43.48907" lon="6.77236">
        <ele>203.60000610352</ele>
        <time>2017-06-01T07:59:41.000Z</time>
      </trkpt>
      <trkpt lat="43.48885" lon="6.77213">
        <ele>204</ele>
        <time>2017-06-01T07:59:48.000Z</time>
      </trkpt>
      <trkpt lat="43.48882" lon="6.77209">
        <ele>204</ele>
        <time>2017-06-01T07:59:49.000Z</time>
      </trkpt>
      <trkpt lat="43.48853" lon="6.77175">
        <ele>203.80000305176</ele>
        <time>2017-06-01T07:59:56.000Z</time>
      </trkpt>
      <trkpt lat="43.48822" lon="6.77147">
        <ele>203.39999389648</ele>
        <time>2017-06-01T08:00:02.000Z</time>
      </trkpt>
      <trkpt lat="43.48804" lon="6.77133">
        <ele>202.80000305176</ele>
        <time>2017-06-01T08:00:05.000Z</time>
      </trkpt>
      <trkpt lat="43.48788" lon="6.77115">
        <ele>202.39999389648</ele>
        <time>2017-06-01T08:00:08.000Z</time>
      </trkpt>
      <trkpt lat="43.48782" lon="6.77109">
        <ele>202</ele>
        <time>2017-06-01T08:00:09.000Z</time>
      </trkpt>
      <trkpt lat="43.48776" lon="6.77105">
        <ele>201.60000610352</ele>
        <time>2017-06-01T08:00:10.000Z</time>
      </trkpt>
      <trkpt lat="43.4877" lon="6.77104">
        <ele>201.60000610352</ele>
        <time>2017-06-01T08:00:11.000Z</time>
      </trkpt>
      <trkpt lat="43.48752" lon="6.77115">
        <ele>201</ele>
        <time>2017-06-01T08:00:14.000Z</time>
      </trkpt>
      <trkpt lat="43.48747" lon="6.77121">
        <ele>201.39999389648</ele>
        <time>2017-06-01T08:00:15.000Z</time>
      </trkpt>
      <trkpt lat="43.48742" lon="6.77125">
        <ele>201.60000610352</ele>
        <time>2017-06-01T08:00:16.000Z</time>
      </trkpt>
      <trkpt lat="43.48732" lon="6.77131">
        <ele>202.19999694824</ele>
        <time>2017-06-01T08:00:18.000Z</time>
      </trkpt>
      <trkpt lat="43.48721" lon="6.77129">
        <ele>202.80000305176</ele>
        <time>2017-06-01T08:00:20.000Z</time>
      </trkpt>
      <trkpt lat="43.48715" lon="6.77126">
        <ele>203</ele>
        <time>2017-06-01T08:00:21.000Z</time>
      </trkpt>
      <trkpt lat="43.4871" lon="6.77124">
        <ele>203</ele>
        <time>2017-06-01T08:00:22.000Z</time>
      </trkpt>
      <trkpt lat="43.48704" lon="6.77123">
        <ele>203</ele>
        <time>2017-06-01T08:00:23.000Z</time>
      </trkpt>
      <trkpt lat="43.48693" lon="6.77127">
        <ele>203</ele>
        <time>2017-06-01T08:00:25.000Z</time>
      </trkpt>
      <trkpt lat="43.48682" lon="6.77141">
        <ele>203.60000610352</ele>
        <time>2017-06-01T08:00:28.000Z</time>
      </trkpt>
      <trkpt lat="43.4868" lon="6.77146">
        <ele>203.80000305176</ele>
        <time>2017-06-01T08:00:29.000Z</time>
      </trkpt>
      <trkpt lat="43.48676" lon="6.77163">
        <ele>204.60000610352</ele>
        <time>2017-06-01T08:00:32.000Z</time>
      </trkpt>
      <trkpt lat="43.48675" lon="6.77175">
        <ele>204.80000305176</ele>
        <time>2017-06-01T08:00:34.000Z</time>
      </trkpt>
      <trkpt lat="43.48673" lon="6.77192">
        <ele>205.39999389648</ele>
        <time>2017-06-01T08:00:37.000Z</time>
      </trkpt>
      <trkpt lat="43.48669" lon="6.77222">
        <ele>206</ele>
        <time>2017-06-01T08:00:42.000Z</time>
      </trkpt>
      <trkpt lat="43.48666" lon="6.77233">
        <ele>206</ele>
        <time>2017-06-01T08:00:44.000Z</time>
      </trkpt>
      <trkpt lat="43.4865" lon="6.77283">
        <ele>205.60000610352</ele>
        <time>2017-06-01T08:00:52.000Z</time>
      </trkpt>
      <trkpt lat="43.48644" lon="6.77297">
        <ele>205.19999694824</ele>
        <time>2017-06-01T08:00:54.000Z</time>
      </trkpt>
      <trkpt lat="43.48639" lon="6.77303">
        <ele>204.80000305176</ele>
        <time>2017-06-01T08:00:55.000Z</time>
      </trkpt>
      <trkpt lat="43.48633" lon="6.77308">
        <ele>204.19999694824</ele>
        <time>2017-06-01T08:00:56.000Z</time>
      </trkpt>
      <trkpt lat="43.48622" lon="6.77314">
        <ele>203.19999694824</ele>
        <time>2017-06-01T08:00:58.000Z</time>
      </trkpt>
      <trkpt lat="43.48615" lon="6.77315">
        <ele>202.39999389648</ele>
        <time>2017-06-01T08:00:59.000Z</time>
      </trkpt>
      <trkpt lat="43.48608" lon="6.77314">
        <ele>202</ele>
        <time>2017-06-01T08:01:00.000Z</time>
      </trkpt>
      <trkpt lat="43.48594" lon="6.77308">
        <ele>201.19999694824</ele>
        <time>2017-06-01T08:01:02.000Z</time>
      </trkpt>
      <trkpt lat="43.48587" lon="6.77304">
        <ele>200.60000610352</ele>
        <time>2017-06-01T08:01:03.000Z</time>
      </trkpt>
      <trkpt lat="43.48573" lon="6.77294">
        <ele>199.19999694824</ele>
        <time>2017-06-01T08:01:05.000Z</time>
      </trkpt>
      <trkpt lat="43.48565" lon="6.77288">
        <ele>198.39999389648</ele>
        <time>2017-06-01T08:01:06.000Z</time>
      </trkpt>
      <trkpt lat="43.48557" lon="6.77282">
        <ele>197.80000305176</ele>
        <time>2017-06-01T08:01:07.000Z</time>
      </trkpt>
      <trkpt lat="43.48541" lon="6.77272">
        <ele>196.60000610352</ele>
        <time>2017-06-01T08:01:09.000Z</time>
      </trkpt>
      <trkpt lat="43.48524" lon="6.77262">
        <ele>195.60000610352</ele>
        <time>2017-06-01T08:01:11.000Z</time>
      </trkpt>
      <trkpt lat="43.48517" lon="6.77255">
        <ele>194.80000305176</ele>
        <time>2017-06-01T08:01:12.000Z</time>
      </trkpt>
      <trkpt lat="43.4851" lon="6.77246">
        <ele>193.80000305176</ele>
        <time>2017-06-01T08:01:13.000Z</time>
      </trkpt>
      <trkpt lat="43.48504" lon="6.77237">
        <ele>192.60000610352</ele>
        <time>2017-06-01T08:01:14.000Z</time>
      </trkpt>
      <trkpt lat="43.48494" lon="6.77216">
        <ele>191.80000305176</ele>
        <time>2017-06-01T08:01:16.000Z</time>
      </trkpt>
      <trkpt lat="43.48488" lon="6.77207">
        <ele>190.80000305176</ele>
        <time>2017-06-01T08:01:17.000Z</time>
      </trkpt>
      <trkpt lat="43.48481" lon="6.772">
        <ele>190</ele>
        <time>2017-06-01T08:01:18.000Z</time>
      </trkpt>
      <trkpt lat="43.48473" lon="6.77194">
        <ele>189.19999694824</ele>
        <time>2017-06-01T08:01:19.000Z</time>
      </trkpt>
      <trkpt lat="43.48455" lon="6.77187">
        <ele>188.19999694824</ele>
        <time>2017-06-01T08:01:21.000Z</time>
      </trkpt>
      <trkpt lat="43.48446" lon="6.77184">
        <ele>187.60000610352</ele>
        <time>2017-06-01T08:01:22.000Z</time>
      </trkpt>
      <trkpt lat="43.48437" lon="6.77181">
        <ele>186.80000305176</ele>
        <time>2017-06-01T08:01:23.000Z</time>
      </trkpt>
      <trkpt lat="43.48419" lon="6.77173">
        <ele>184.80000305176</ele>
        <time>2017-06-01T08:01:25.000Z</time>
      </trkpt>
      <trkpt lat="43.48411" lon="6.77169">
        <ele>184</ele>
        <time>2017-06-01T08:01:26.000Z</time>
      </trkpt>
      <trkpt lat="43.48405" lon="6.77165">
        <ele>183</ele>
        <time>2017-06-01T08:01:27.000Z</time>
      </trkpt>
      <trkpt lat="43.48395" lon="6.77153">
        <ele>181.19999694824</ele>
        <time>2017-06-01T08:01:29.000Z</time>
      </trkpt>
      <trkpt lat="43.48392" lon="6.77138">
        <ele>179.80000305176</ele>
        <time>2017-06-01T08:01:31.000Z</time>
      </trkpt>
      <trkpt lat="43.48392" lon="6.7713">
        <ele>179.39999389648</ele>
        <time>2017-06-01T08:01:32.000Z</time>
      </trkpt>
      <trkpt lat="43.48393" lon="6.77113">
        <ele>178.80000305176</ele>
        <time>2017-06-01T08:01:34.000Z</time>
      </trkpt>
      <trkpt lat="43.48397" lon="6.77095">
        <ele>178.39999389648</ele>
        <time>2017-06-01T08:01:36.000Z</time>
      </trkpt>
      <trkpt lat="43.48397" lon="6.77086">
        <ele>178.39999389648</ele>
        <time>2017-06-01T08:01:37.000Z</time>
      </trkpt>
      <trkpt lat="43.48396" lon="6.77068">
        <ele>177.80000305176</ele>
        <time>2017-06-01T08:01:39.000Z</time>
      </trkpt>
      <trkpt lat="43.48394" lon="6.77059">
        <ele>177.60000610352</ele>
        <time>2017-06-01T08:01:40.000Z</time>
      </trkpt>
      <trkpt lat="43.48392" lon="6.7705">
        <ele>177.60000610352</ele>
        <time>2017-06-01T08:01:41.000Z</time>
      </trkpt>
      <trkpt lat="43.48387" lon="6.7702">
        <ele>176.80000305176</ele>
        <time>2017-06-01T08:01:44.000Z</time>
      </trkpt>
      <trkpt lat="43.48385" lon="6.7701">
        <ele>176.19999694824</ele>
        <time>2017-06-01T08:01:45.000Z</time>
      </trkpt>
      <trkpt lat="43.48379" lon="6.76978">
        <ele>175</ele>
        <time>2017-06-01T08:01:48.000Z</time>
      </trkpt>
      <trkpt lat="43.48377" lon="6.76959">
        <ele>173.19999694824</ele>
        <time>2017-06-01T08:01:50.000Z</time>
      </trkpt>
      <trkpt lat="43.48379" lon="6.76941">
        <ele>171.60000610352</ele>
        <time>2017-06-01T08:01:52.000Z</time>
      </trkpt>
      <trkpt lat="43.48382" lon="6.76926">
        <ele>170.19999694824</ele>
        <time>2017-06-01T08:01:54.000Z</time>
      </trkpt>
      <trkpt lat="43.48385" lon="6.76914">
        <ele>169</ele>
        <time>2017-06-01T08:01:56.000Z</time>
      </trkpt>
      <trkpt lat="43.48383" lon="6.76905">
        <ele>167.80000305176</ele>
        <time>2017-06-01T08:01:58.000Z</time>
      </trkpt>
      <trkpt lat="43.48379" lon="6.76903">
        <ele>166.19999694824</ele>
        <time>2017-06-01T08:02:00.000Z</time>
      </trkpt>
      <trkpt lat="43.48377" lon="6.76904">
        <ele>165.60000610352</ele>
        <time>2017-06-01T08:02:01.000Z</time>
      </trkpt>
      <trkpt lat="43.48374" lon="6.76904">
        <ele>165</ele>
        <time>2017-06-01T08:02:02.000Z</time>
      </trkpt>
      <trkpt lat="43.48365" lon="6.76911">
        <ele>164.39999389648</ele>
        <time>2017-06-01T08:02:05.000Z</time>
      </trkpt>
      <trkpt lat="43.48358" lon="6.76925">
        <ele>163.80000305176</ele>
        <time>2017-06-01T08:02:08.000Z</time>
      </trkpt>
      <trkpt lat="43.48355" lon="6.76931">
        <ele>163.39999389648</ele>
        <time>2017-06-01T08:02:09.000Z</time>
      </trkpt>
      <trkpt lat="43.48353" lon="6.76936">
        <ele>163</ele>
        <time>2017-06-01T08:02:10.000Z</time>
      </trkpt>
      <trkpt lat="43.48351" lon="6.76939">
        <ele>162.39999389648</ele>
        <time>2017-06-01T08:02:11.000Z</time>
      </trkpt>
      <trkpt lat="43.48348" lon="6.76938">
        <ele>161.80000305176</ele>
        <time>2017-06-01T08:02:12.000Z</time>
      </trkpt>
      <trkpt lat="43.48343" lon="6.76933">
        <ele>160.80000305176</ele>
        <time>2017-06-01T08:02:14.000Z</time>
      </trkpt>
      <trkpt lat="43.48342" lon="6.76929">
        <ele>160.19999694824</ele>
        <time>2017-06-01T08:02:15.000Z</time>
      </trkpt>
      <trkpt lat="43.48341" lon="6.76923">
        <ele>159.80000305176</ele>
        <time>2017-06-01T08:02:16.000Z</time>
      </trkpt>
      <trkpt lat="43.4834" lon="6.76916">
        <ele>159.39999389648</ele>
        <time>2017-06-01T08:02:17.000Z</time>
      </trkpt>
      <trkpt lat="43.48338" lon="6.76909">
        <ele>159</ele>
        <time>2017-06-01T08:02:18.000Z</time>
      </trkpt>
      <trkpt lat="43.48336" lon="6.76901">
        <ele>158.60000610352</ele>
        <time>2017-06-01T08:02:19.000Z</time>
      </trkpt>
      <trkpt lat="43.48328" lon="6.76874">
        <ele>157</ele>
        <time>2017-06-01T08:02:22.000Z</time>
      </trkpt>
      <trkpt lat="43.48321" lon="6.76855">
        <ele>155.80000305176</ele>
        <time>2017-06-01T08:02:24.000Z</time>
      </trkpt>
      <trkpt lat="43.48316" lon="6.76835">
        <ele>153.60000610352</ele>
        <time>2017-06-01T08:02:26.000Z</time>
      </trkpt>
      <trkpt lat="43.48315" lon="6.76826">
        <ele>152.60000610352</ele>
        <time>2017-06-01T08:02:27.000Z</time>
      </trkpt>
      <trkpt lat="43.48314" lon="6.76818">
        <ele>151.60000610352</ele>
        <time>2017-06-01T08:02:28.000Z</time>
      </trkpt>
      <trkpt lat="43.48314" lon="6.76809">
        <ele>151</ele>
        <time>2017-06-01T08:02:29.000Z</time>
      </trkpt>
      <trkpt lat="43.48315" lon="6.76793">
        <ele>149.60000610352</ele>
        <time>2017-06-01T08:02:31.000Z</time>
      </trkpt>
      <trkpt lat="43.48316" lon="6.76786">
        <ele>149</ele>
        <time>2017-06-01T08:02:32.000Z</time>
      </trkpt>
      <trkpt lat="43.48319" lon="6.76779">
        <ele>148.19999694824</ele>
        <time>2017-06-01T08:02:33.000Z</time>
      </trkpt>
      <trkpt lat="43.48322" lon="6.76772">
        <ele>147.80000305176</ele>
        <time>2017-06-01T08:02:34.000Z</time>
      </trkpt>
      <trkpt lat="43.48324" lon="6.76765">
        <ele>147.19999694824</ele>
        <time>2017-06-01T08:02:35.000Z</time>
      </trkpt>
      <trkpt lat="43.48325" lon="6.76758">
        <ele>146.39999389648</ele>
        <time>2017-06-01T08:02:36.000Z</time>
      </trkpt>
      <trkpt lat="43.48326" lon="6.76751">
        <ele>145.60000610352</ele>
        <time>2017-06-01T08:02:37.000Z</time>
      </trkpt>
      <trkpt lat="43.48323" lon="6.76737">
        <ele>144</ele>
        <time>2017-06-01T08:02:39.000Z</time>
      </trkpt>
      <trkpt lat="43.48321" lon="6.7673">
        <ele>143.39999389648</ele>
        <time>2017-06-01T08:02:40.000Z</time>
      </trkpt>
      <trkpt lat="43.48317" lon="6.76722">
        <ele>142.80000305176</ele>
        <time>2017-06-01T08:02:41.000Z</time>
      </trkpt>
      <trkpt lat="43.48308" lon="6.76706">
        <ele>141.60000610352</ele>
        <time>2017-06-01T08:02:43.000Z</time>
      </trkpt>
      <trkpt lat="43.48302" lon="6.76697">
        <ele>140.80000305176</ele>
        <time>2017-06-01T08:02:44.000Z</time>
      </trkpt>
      <trkpt lat="43.48297" lon="6.76687">
        <ele>139.60000610352</ele>
        <time>2017-06-01T08:02:45.000Z</time>
      </trkpt>
      <trkpt lat="43.48287" lon="6.76666">
        <ele>137.80000305176</ele>
        <time>2017-06-01T08:02:47.000Z</time>
      </trkpt>
      <trkpt lat="43.48277" lon="6.76645">
        <ele>135.39999389648</ele>
        <time>2017-06-01T08:02:49.000Z</time>
      </trkpt>
      <trkpt lat="43.48271" lon="6.76636">
        <ele>133</ele>
        <time>2017-06-01T08:02:50.000Z</time>
      </trkpt>
      <trkpt lat="43.48265" lon="6.76627">
        <ele>132</ele>
        <time>2017-06-01T08:02:51.000Z</time>
      </trkpt>
      <trkpt lat="43.48259" lon="6.76618">
        <ele>130.80000305176</ele>
        <time>2017-06-01T08:02:52.000Z</time>
      </trkpt>
      <trkpt lat="43.48253" lon="6.76609">
        <ele>129.60000610352</ele>
        <time>2017-06-01T08:02:53.000Z</time>
      </trkpt>
      <trkpt lat="43.48247" lon="6.76603">
        <ele>128.60000610352</ele>
        <time>2017-06-01T08:02:54.000Z</time>
      </trkpt>
      <trkpt lat="43.48239" lon="6.76596">
        <ele>127.40000152588</ele>
        <time>2017-06-01T08:02:55.000Z</time>
      </trkpt>
      <trkpt lat="43.48225" lon="6.76585">
        <ele>125.80000305176</ele>
        <time>2017-06-01T08:02:57.000Z</time>
      </trkpt>
      <trkpt lat="43.48217" lon="6.7658">
        <ele>124.80000305176</ele>
        <time>2017-06-01T08:02:58.000Z</time>
      </trkpt>
      <trkpt lat="43.4821" lon="6.76577">
        <ele>123.80000305176</ele>
        <time>2017-06-01T08:02:59.000Z</time>
      </trkpt>
      <trkpt lat="43.48203" lon="6.76576">
        <ele>123</ele>
        <time>2017-06-01T08:03:00.000Z</time>
      </trkpt>
      <trkpt lat="43.48196" lon="6.76573">
        <ele>122.19999694824</ele>
        <time>2017-06-01T08:03:01.000Z</time>
      </trkpt>
      <trkpt lat="43.48189" lon="6.7657">
        <ele>121</ele>
        <time>2017-06-01T08:03:02.000Z</time>
      </trkpt>
      <trkpt lat="43.48183" lon="6.76565">
        <ele>119.80000305176</ele>
        <time>2017-06-01T08:03:03.000Z</time>
      </trkpt>
      <trkpt lat="43.48178" lon="6.76559">
        <ele>119</ele>
        <time>2017-06-01T08:03:04.000Z</time>
      </trkpt>
      <trkpt lat="43.48174" lon="6.76553">
        <ele>118.19999694824</ele>
        <time>2017-06-01T08:03:05.000Z</time>
      </trkpt>
      <trkpt lat="43.48171" lon="6.76549">
        <ele>117.40000152588</ele>
        <time>2017-06-01T08:03:06.000Z</time>
      </trkpt>
      <trkpt lat="43.48167" lon="6.76546">
        <ele>116.19999694824</ele>
        <time>2017-06-01T08:03:07.000Z</time>
      </trkpt>
      <trkpt lat="43.48163" lon="6.76544">
        <ele>115.59999847412</ele>
        <time>2017-06-01T08:03:08.000Z</time>
      </trkpt>
      <trkpt lat="43.48159" lon="6.76547">
        <ele>115</ele>
        <time>2017-06-01T08:03:09.000Z</time>
      </trkpt>
      <trkpt lat="43.48157" lon="6.76552">
        <ele>114.80000305176</ele>
        <time>2017-06-01T08:03:10.000Z</time>
      </trkpt>
      <trkpt lat="43.48156" lon="6.76566">
        <ele>113.80000305176</ele>
        <time>2017-06-01T08:03:12.000Z</time>
      </trkpt>
      <trkpt lat="43.48156" lon="6.76574">
        <ele>113.40000152588</ele>
        <time>2017-06-01T08:03:13.000Z</time>
      </trkpt>
      <trkpt lat="43.48156" lon="6.76583">
        <ele>112.40000152588</ele>
        <time>2017-06-01T08:03:14.000Z</time>
      </trkpt>
      <trkpt lat="43.48155" lon="6.76603">
        <ele>111</ele>
        <time>2017-06-01T08:03:16.000Z</time>
      </trkpt>
      <trkpt lat="43.48156" lon="6.76614">
        <ele>110.40000152588</ele>
        <time>2017-06-01T08:03:17.000Z</time>
      </trkpt>
      <trkpt lat="43.48156" lon="6.76624">
        <ele>109.59999847412</ele>
        <time>2017-06-01T08:03:18.000Z</time>
      </trkpt>
      <trkpt lat="43.48156" lon="6.76638">
        <ele>108.19999694824</ele>
        <time>2017-06-01T08:03:20.000Z</time>
      </trkpt>
      <trkpt lat="43.48151" lon="6.76644">
        <ele>107.19999694824</ele>
        <time>2017-06-01T08:03:23.000Z</time>
      </trkpt>
      <trkpt lat="43.48143" lon="6.76628">
        <ele>106.40000152588</ele>
        <time>2017-06-01T08:03:26.000Z</time>
      </trkpt>
      <trkpt lat="43.48141" lon="6.76619">
        <ele>105.59999847412</ele>
        <time>2017-06-01T08:03:27.000Z</time>
      </trkpt>
      <trkpt lat="43.48134" lon="6.76603">
        <ele>104</ele>
        <time>2017-06-01T08:03:29.000Z</time>
      </trkpt>
      <trkpt lat="43.4813" lon="6.76597">
        <ele>103.59999847412</ele>
        <time>2017-06-01T08:03:30.000Z</time>
      </trkpt>
      <trkpt lat="43.48125" lon="6.76591">
        <ele>103</ele>
        <time>2017-06-01T08:03:31.000Z</time>
      </trkpt>
      <trkpt lat="43.4811" lon="6.76583">
        <ele>101</ele>
        <time>2017-06-01T08:03:33.000Z</time>
      </trkpt>
      <trkpt lat="43.48093" lon="6.76574">
        <ele>98.800003051758</ele>
        <time>2017-06-01T08:03:35.000Z</time>
      </trkpt>
      <trkpt lat="43.48075" lon="6.76563">
        <ele>97.199996948242</ele>
        <time>2017-06-01T08:03:37.000Z</time>
      </trkpt>
      <trkpt lat="43.48066" lon="6.76558">
        <ele>96</ele>
        <time>2017-06-01T08:03:38.000Z</time>
      </trkpt>
      <trkpt lat="43.48049" lon="6.76544">
        <ele>94.599998474121</ele>
        <time>2017-06-01T08:03:40.000Z</time>
      </trkpt>
      <trkpt lat="43.48042" lon="6.76535">
        <ele>94.199996948242</ele>
        <time>2017-06-01T08:03:41.000Z</time>
      </trkpt>
      <trkpt lat="43.48031" lon="6.76513">
        <ele>93.199996948242</ele>
        <time>2017-06-01T08:03:43.000Z</time>
      </trkpt>
      <trkpt lat="43.48018" lon="6.76495">
        <ele>92.199996948242</ele>
        <time>2017-06-01T08:03:45.000Z</time>
      </trkpt>
      <trkpt lat="43.48001" lon="6.76483">
        <ele>90.800003051758</ele>
        <time>2017-06-01T08:03:47.000Z</time>
      </trkpt>
      <trkpt lat="43.47991" lon="6.76479">
        <ele>89.599998474121</ele>
        <time>2017-06-01T08:03:48.000Z</time>
      </trkpt>
      <trkpt lat="43.47982" lon="6.76474">
        <ele>88.599998474121</ele>
        <time>2017-06-01T08:03:49.000Z</time>
      </trkpt>
      <trkpt lat="43.47975" lon="6.76469">
        <ele>87.800003051758</ele>
        <time>2017-06-01T08:03:50.000Z</time>
      </trkpt>
      <trkpt lat="43.47969" lon="6.76463">
        <ele>87.199996948242</ele>
        <time>2017-06-01T08:03:51.000Z</time>
      </trkpt>
      <trkpt lat="43.47957" lon="6.76435">
        <ele>86.400001525879</ele>
        <time>2017-06-01T08:03:54.000Z</time>
      </trkpt>
      <trkpt lat="43.47955" lon="6.76425">
        <ele>86.199996948242</ele>
        <time>2017-06-01T08:03:55.000Z</time>
      </trkpt>
      <trkpt lat="43.47953" lon="6.76414">
        <ele>85.800003051758</ele>
        <time>2017-06-01T08:03:56.000Z</time>
      </trkpt>
      <trkpt lat="43.47948" lon="6.76392">
        <ele>84.599998474121</ele>
        <time>2017-06-01T08:03:58.000Z</time>
      </trkpt>
      <trkpt lat="43.47943" lon="6.76381">
        <ele>83.800003051758</ele>
        <time>2017-06-01T08:03:59.000Z</time>
      </trkpt>
      <trkpt lat="43.47937" lon="6.76371">
        <ele>83.199996948242</ele>
        <time>2017-06-01T08:04:00.000Z</time>
      </trkpt>
      <trkpt lat="43.47923" lon="6.76352">
        <ele>80.199996948242</ele>
        <time>2017-06-01T08:04:02.000Z</time>
      </trkpt>
      <trkpt lat="43.47916" lon="6.76342">
        <ele>78.800003051758</ele>
        <time>2017-06-01T08:04:03.000Z</time>
      </trkpt>
      <trkpt lat="43.47908" lon="6.76331">
        <ele>77.199996948242</ele>
        <time>2017-06-01T08:04:04.000Z</time>
      </trkpt>
      <trkpt lat="43.479" lon="6.7632">
        <ele>75.599998474121</ele>
        <time>2017-06-01T08:04:05.000Z</time>
      </trkpt>
      <trkpt lat="43.47892" lon="6.76308">
        <ele>73.400001525879</ele>
        <time>2017-06-01T08:04:06.000Z</time>
      </trkpt>
      <trkpt lat="43.47885" lon="6.76297">
        <ele>71.400001525879</ele>
        <time>2017-06-01T08:04:07.000Z</time>
      </trkpt>
      <trkpt lat="43.47878" lon="6.76285">
        <ele>70</ele>
        <time>2017-06-01T08:04:08.000Z</time>
      </trkpt>
      <trkpt lat="43.47866" lon="6.76261">
        <ele>68.400001525879</ele>
        <time>2017-06-01T08:04:10.000Z</time>
      </trkpt>
      <trkpt lat="43.47862" lon="6.76249">
        <ele>67.599998474121</ele>
        <time>2017-06-01T08:04:11.000Z</time>
      </trkpt>
      <trkpt lat="43.47858" lon="6.76238">
        <ele>67.199996948242</ele>
        <time>2017-06-01T08:04:12.000Z</time>
      </trkpt>
      <trkpt lat="43.47854" lon="6.76217">
        <ele>66.800003051758</ele>
        <time>2017-06-01T08:04:14.000Z</time>
      </trkpt>
      <trkpt lat="43.47846" lon="6.76201">
        <ele>65.400001525879</ele>
        <time>2017-06-01T08:04:16.000Z</time>
      </trkpt>
      <trkpt lat="43.4784" lon="6.76195">
        <ele>64.400001525879</ele>
        <time>2017-06-01T08:04:17.000Z</time>
      </trkpt>
      <trkpt lat="43.47833" lon="6.76193">
        <ele>63.799999237061</ele>
        <time>2017-06-01T08:04:18.000Z</time>
      </trkpt>
      <trkpt lat="43.47827" lon="6.76193">
        <ele>63.599998474121</ele>
        <time>2017-06-01T08:04:19.000Z</time>
      </trkpt>
      <trkpt lat="43.47813" lon="6.76201">
        <ele>63.599998474121</ele>
        <time>2017-06-01T08:04:22.000Z</time>
      </trkpt>
      <trkpt lat="43.47806" lon="6.76205">
        <ele>64.400001525879</ele>
        <time>2017-06-01T08:04:24.000Z</time>
      </trkpt>
      <trkpt lat="43.47802" lon="6.76206">
        <ele>64.800003051758</ele>
        <time>2017-06-01T08:04:25.000Z</time>
      </trkpt>
      <trkpt lat="43.47797" lon="6.76207">
        <ele>65.599998474121</ele>
        <time>2017-06-01T08:04:27.000Z</time>
      </trkpt>
      <trkpt lat="43.47795" lon="6.76208">
        <ele>65.800003051758</ele>
        <time>2017-06-01T08:04:28.000Z</time>
      </trkpt>
      <trkpt lat="43.47783" lon="6.76211">
        <ele>66.599998474121</ele>
        <time>2017-06-01T08:04:33.000Z</time>
      </trkpt>
      <trkpt lat="43.4778" lon="6.76211">
        <ele>67</ele>
        <time>2017-06-01T08:04:34.000Z</time>
      </trkpt>
      <trkpt lat="43.47772" lon="6.76209">
        <ele>68</ele>
        <time>2017-06-01T08:04:37.000Z</time>
      </trkpt>
      <trkpt lat="43.47765" lon="6.76206">
        <ele>68.599998474121</ele>
        <time>2017-06-01T08:04:40.000Z</time>
      </trkpt>
      <trkpt lat="43.4776" lon="6.76204">
        <ele>69</ele>
        <time>2017-06-01T08:04:42.000Z</time>
      </trkpt>
      <trkpt lat="43.47746" lon="6.76198">
        <ele>70</ele>
        <time>2017-06-01T08:04:47.000Z</time>
      </trkpt>
      <trkpt lat="43.47743" lon="6.76197">
        <ele>70.199996948242</ele>
        <time>2017-06-01T08:04:48.000Z</time>
      </trkpt>
      <trkpt lat="43.47732" lon="6.76189">
        <ele>71.199996948242</ele>
        <time>2017-06-01T08:04:52.000Z</time>
      </trkpt>
      <trkpt lat="43.47728" lon="6.76183">
        <ele>71.599998474121</ele>
        <time>2017-06-01T08:04:54.000Z</time>
      </trkpt>
      <trkpt lat="43.47719" lon="6.7617">
        <ele>72.199996948242</ele>
        <time>2017-06-01T08:04:58.000Z</time>
      </trkpt>
      <trkpt lat="43.47712" lon="6.7616">
        <ele>72.599998474121</ele>
        <time>2017-06-01T08:05:01.000Z</time>
      </trkpt>
      <trkpt lat="43.47699" lon="6.76151">
        <ele>73.400001525879</ele>
        <time>2017-06-01T08:05:06.000Z</time>
      </trkpt>
      <trkpt lat="43.47694" lon="6.76148">
        <ele>73.800003051758</ele>
        <time>2017-06-01T08:05:08.000Z</time>
      </trkpt>
      <trkpt lat="43.47685" lon="6.76137">
        <ele>74.400001525879</ele>
        <time>2017-06-01T08:05:12.000Z</time>
      </trkpt>
      <trkpt lat="43.47685" lon="6.76132">
        <ele>74.599998474121</ele>
        <time>2017-06-01T08:05:13.000Z</time>
      </trkpt>
      <trkpt lat="43.47689" lon="6.76118">
        <ele>75.400001525879</ele>
        <time>2017-06-01T08:05:17.000Z</time>
      </trkpt>
      <trkpt lat="43.4769" lon="6.76114">
        <ele>75.599998474121</ele>
        <time>2017-06-01T08:05:18.000Z</time>
      </trkpt>
      <trkpt lat="43.47693" lon="6.76108">
        <ele>76.199996948242</ele>
        <time>2017-06-01T08:05:20.000Z</time>
      </trkpt>
      <trkpt lat="43.47696" lon="6.761">
        <ele>76.800003051758</ele>
        <time>2017-06-01T08:05:22.000Z</time>
      </trkpt>
      <trkpt lat="43.47697" lon="6.76092">
        <ele>77.199996948242</ele>
        <time>2017-06-01T08:05:24.000Z</time>
      </trkpt>
      <trkpt lat="43.47698" lon="6.76075">
        <ele>77.800003051758</ele>
        <time>2017-06-01T08:05:28.000Z</time>
      </trkpt>
      <trkpt lat="43.47697" lon="6.76071">
        <ele>77.800003051758</ele>
        <time>2017-06-01T08:05:29.000Z</time>
      </trkpt>
      <trkpt lat="43.47686" lon="6.76049">
        <ele>78.599998474121</ele>
        <time>2017-06-01T08:05:35.000Z</time>
      </trkpt>
      <trkpt lat="43.47681" lon="6.76042">
        <ele>78.800003051758</ele>
        <time>2017-06-01T08:05:37.000Z</time>
      </trkpt>
      <trkpt lat="43.47667" lon="6.76031">
        <ele>79.599998474121</ele>
        <time>2017-06-01T08:05:42.000Z</time>
      </trkpt>
      <trkpt lat="43.47653" lon="6.7602">
        <ele>79.800003051758</ele>
        <time>2017-06-01T08:05:47.000Z</time>
      </trkpt>
      <trkpt lat="43.4764" lon="6.7601">
        <ele>79.800003051758</ele>
        <time>2017-06-01T08:05:51.000Z</time>
      </trkpt>
      <trkpt lat="43.47636" lon="6.76006">
        <ele>79.800003051758</ele>
        <time>2017-06-01T08:05:52.000Z</time>
      </trkpt>
      <trkpt lat="43.4763" lon="6.75993">
        <ele>80</ele>
        <time>2017-06-01T08:05:55.000Z</time>
      </trkpt>
      <trkpt lat="43.47622" lon="6.75976">
        <ele>79.400001525879</ele>
        <time>2017-06-01T08:05:58.000Z</time>
      </trkpt>
      <trkpt lat="43.47614" lon="6.75962">
        <ele>78.400001525879</ele>
        <time>2017-06-01T08:06:00.000Z</time>
      </trkpt>
      <trkpt lat="43.47605" lon="6.75947">
        <ele>77.199996948242</ele>
        <time>2017-06-01T08:06:02.000Z</time>
      </trkpt>
      <trkpt lat="43.47593" lon="6.75933">
        <ele>76</ele>
        <time>2017-06-01T08:06:04.000Z</time>
      </trkpt>
      <trkpt lat="43.47585" lon="6.75927">
        <ele>75.199996948242</ele>
        <time>2017-06-01T08:06:05.000Z</time>
      </trkpt>
      <trkpt lat="43.47578" lon="6.75921">
        <ele>74.599998474121</ele>
        <time>2017-06-01T08:06:06.000Z</time>
      </trkpt>
      <trkpt lat="43.47552" lon="6.75907">
        <ele>73.800003051758</ele>
        <time>2017-06-01T08:06:09.000Z</time>
      </trkpt>
      <trkpt lat="43.47544" lon="6.75901">
        <ele>73.199996948242</ele>
        <time>2017-06-01T08:06:10.000Z</time>
      </trkpt>
      <trkpt lat="43.47536" lon="6.75894">
        <ele>72.599998474121</ele>
        <time>2017-06-01T08:06:11.000Z</time>
      </trkpt>
      <trkpt lat="43.47527" lon="6.75885">
        <ele>71.599998474121</ele>
        <time>2017-06-01T08:06:12.000Z</time>
      </trkpt>
      <trkpt lat="43.47521" lon="6.75873">
        <ele>70.400001525879</ele>
        <time>2017-06-01T08:06:13.000Z</time>
      </trkpt>
      <trkpt lat="43.47515" lon="6.75861">
        <ele>69</ele>
        <time>2017-06-01T08:06:14.000Z</time>
      </trkpt>
      <trkpt lat="43.4751" lon="6.75851">
        <ele>68.400001525879</ele>
        <time>2017-06-01T08:06:15.000Z</time>
      </trkpt>
      <trkpt lat="43.47504" lon="6.75842">
        <ele>67.199996948242</ele>
        <time>2017-06-01T08:06:16.000Z</time>
      </trkpt>
      <trkpt lat="43.47497" lon="6.75837">
        <ele>66</ele>
        <time>2017-06-01T08:06:17.000Z</time>
      </trkpt>
      <trkpt lat="43.4749" lon="6.75836">
        <ele>64.599998474121</ele>
        <time>2017-06-01T08:06:18.000Z</time>
      </trkpt>
      <trkpt lat="43.47483" lon="6.75841">
        <ele>63.599998474121</ele>
        <time>2017-06-01T08:06:19.000Z</time>
      </trkpt>
      <trkpt lat="43.47474" lon="6.75862">
        <ele>61.599998474121</ele>
        <time>2017-06-01T08:06:21.000Z</time>
      </trkpt>
      <trkpt lat="43.47471" lon="6.75873">
        <ele>61</ele>
        <time>2017-06-01T08:06:22.000Z</time>
      </trkpt>
      <trkpt lat="43.47466" lon="6.75883">
        <ele>60.200000762939</ele>
        <time>2017-06-01T08:06:23.000Z</time>
      </trkpt>
      <trkpt lat="43.47452" lon="6.75915">
        <ele>58.599998474121</ele>
        <time>2017-06-01T08:06:26.000Z</time>
      </trkpt>
      <trkpt lat="43.47445" lon="6.75925">
        <ele>57.799999237061</ele>
        <time>2017-06-01T08:06:27.000Z</time>
      </trkpt>
      <trkpt lat="43.47438" lon="6.75934">
        <ele>57.400001525879</ele>
        <time>2017-06-01T08:06:28.000Z</time>
      </trkpt>
      <trkpt lat="43.47429" lon="6.75942">
        <ele>56.799999237061</ele>
        <time>2017-06-01T08:06:29.000Z</time>
      </trkpt>
      <trkpt lat="43.4742" lon="6.7595">
        <ele>56.200000762939</ele>
        <time>2017-06-01T08:06:30.000Z</time>
      </trkpt>
      <trkpt lat="43.47411" lon="6.75958">
        <ele>55.200000762939</ele>
        <time>2017-06-01T08:06:31.000Z</time>
      </trkpt>
      <trkpt lat="43.47403" lon="6.75967">
        <ele>53.799999237061</ele>
        <time>2017-06-01T08:06:32.000Z</time>
      </trkpt>
      <trkpt lat="43.47395" lon="6.75977">
        <ele>52.400001525879</ele>
        <time>2017-06-01T08:06:33.000Z</time>
      </trkpt>
      <trkpt lat="43.47388" lon="6.75987">
        <ele>50.599998474121</ele>
        <time>2017-06-01T08:06:34.000Z</time>
      </trkpt>
      <trkpt lat="43.47381" lon="6.75994">
        <ele>49</ele>
        <time>2017-06-01T08:06:35.000Z</time>
      </trkpt>
      <trkpt lat="43.47372" lon="6.75999">
        <ele>47.400001525879</ele>
        <time>2017-06-01T08:06:36.000Z</time>
      </trkpt>
      <trkpt lat="43.47361" lon="6.76003">
        <ele>46.400001525879</ele>
        <time>2017-06-01T08:06:37.000Z</time>
      </trkpt>
      <trkpt lat="43.47351" lon="6.76005">
        <ele>45</ele>
        <time>2017-06-01T08:06:38.000Z</time>
      </trkpt>
      <trkpt lat="43.47341" lon="6.76007">
        <ele>43.599998474121</ele>
        <time>2017-06-01T08:06:39.000Z</time>
      </trkpt>
      <trkpt lat="43.47331" lon="6.76008">
        <ele>41.799999237061</ele>
        <time>2017-06-01T08:06:40.000Z</time>
      </trkpt>
      <trkpt lat="43.47322" lon="6.76007">
        <ele>40</ele>
        <time>2017-06-01T08:06:41.000Z</time>
      </trkpt>
      <trkpt lat="43.47314" lon="6.76003">
        <ele>38.400001525879</ele>
        <time>2017-06-01T08:06:42.000Z</time>
      </trkpt>
      <trkpt lat="43.47307" lon="6.75995">
        <ele>37</ele>
        <time>2017-06-01T08:06:43.000Z</time>
      </trkpt>
      <trkpt lat="43.47303" lon="6.75984">
        <ele>35.799999237061</ele>
        <time>2017-06-01T08:06:44.000Z</time>
      </trkpt>
      <trkpt lat="43.473" lon="6.75972">
        <ele>34.799999237061</ele>
        <time>2017-06-01T08:06:45.000Z</time>
      </trkpt>
      <trkpt lat="43.47298" lon="6.75959">
        <ele>33.599998474121</ele>
        <time>2017-06-01T08:06:46.000Z</time>
      </trkpt>
      <trkpt lat="43.47298" lon="6.75945">
        <ele>32.599998474121</ele>
        <time>2017-06-01T08:06:47.000Z</time>
      </trkpt>
      <trkpt lat="43.473" lon="6.75931">
        <ele>31.39999961853</ele>
        <time>2017-06-01T08:06:48.000Z</time>
      </trkpt>
      <trkpt lat="43.47307" lon="6.75906">
        <ele>29.39999961853</ele>
        <time>2017-06-01T08:06:50.000Z</time>
      </trkpt>
      <trkpt lat="43.47313" lon="6.75894">
        <ele>28.200000762939</ele>
        <time>2017-06-01T08:06:51.000Z</time>
      </trkpt>
      <trkpt lat="43.47319" lon="6.75885">
        <ele>26.799999237061</ele>
        <time>2017-06-01T08:06:52.000Z</time>
      </trkpt>
      <trkpt lat="43.47321" lon="6.75875">
        <ele>25.39999961853</ele>
        <time>2017-06-01T08:06:53.000Z</time>
      </trkpt>
      <trkpt lat="43.47321" lon="6.75865">
        <ele>24.60000038147</ele>
        <time>2017-06-01T08:06:54.000Z</time>
      </trkpt>
      <trkpt lat="43.47317" lon="6.75857">
        <ele>23.799999237061</ele>
        <time>2017-06-01T08:06:55.000Z</time>
      </trkpt>
      <trkpt lat="43.47311" lon="6.7585">
        <ele>23</ele>
        <time>2017-06-01T08:06:56.000Z</time>
      </trkpt>
      <trkpt lat="43.47304" lon="6.75844">
        <ele>22.200000762939</ele>
        <time>2017-06-01T08:06:57.000Z</time>
      </trkpt>
      <trkpt lat="43.47292" lon="6.75825">
        <ele>20.39999961853</ele>
        <time>2017-06-01T08:06:59.000Z</time>
      </trkpt>
      <trkpt lat="43.47289" lon="6.75813">
        <ele>19.200000762939</ele>
        <time>2017-06-01T08:07:00.000Z</time>
      </trkpt>
      <trkpt lat="43.47289" lon="6.75799">
        <ele>18.200000762939</ele>
        <time>2017-06-01T08:07:01.000Z</time>
      </trkpt>
      <trkpt lat="43.47288" lon="6.75785">
        <ele>17.39999961853</ele>
        <time>2017-06-01T08:07:02.000Z</time>
      </trkpt>
      <trkpt lat="43.47289" lon="6.75755">
        <ele>16</ele>
        <time>2017-06-01T08:07:04.000Z</time>
      </trkpt>
      <trkpt lat="43.47289" lon="6.75739">
        <ele>15.199999809265</ele>
        <time>2017-06-01T08:07:05.000Z</time>
      </trkpt>
      <trkpt lat="43.4729" lon="6.75724">
        <ele>14.60000038147</ele>
        <time>2017-06-01T08:07:06.000Z</time>
      </trkpt>
      <trkpt lat="43.47292" lon="6.75695">
        <ele>13</ele>
        <time>2017-06-01T08:07:08.000Z</time>
      </trkpt>
      <trkpt lat="43.47291" lon="6.75683">
        <ele>11.800000190735</ele>
        <time>2017-06-01T08:07:09.000Z</time>
      </trkpt>
      <trkpt lat="43.47287" lon="6.75674">
        <ele>10.60000038147</ele>
        <time>2017-06-01T08:07:10.000Z</time>
      </trkpt>
      <trkpt lat="43.47281" lon="6.75668">
        <ele>9.6000003814697</ele>
        <time>2017-06-01T08:07:11.000Z</time>
      </trkpt>
      <trkpt lat="43.47265" lon="6.75669">
        <ele>8</ele>
        <time>2017-06-01T08:07:13.000Z</time>
      </trkpt>
      <trkpt lat="43.47256" lon="6.75673">
        <ele>6.8000001907349</ele>
        <time>2017-06-01T08:07:14.000Z</time>
      </trkpt>
      <trkpt lat="43.47239" lon="6.75684">
        <ele>5.4000000953674</ele>
        <time>2017-06-01T08:07:16.000Z</time>
      </trkpt>
      <trkpt lat="43.47231" lon="6.75691">
        <ele>5</ele>
        <time>2017-06-01T08:07:17.000Z</time>
      </trkpt>
      <trkpt lat="43.47222" lon="6.757">
        <ele>4.1999998092651</ele>
        <time>2017-06-01T08:07:18.000Z</time>
      </trkpt>
      <trkpt lat="43.47209" lon="6.75721">
        <ele>2.7999999523163</ele>
        <time>2017-06-01T08:07:20.000Z</time>
      </trkpt>
      <trkpt lat="43.47205" lon="6.75732">
        <ele>1.6000000238419</ele>
        <time>2017-06-01T08:07:21.000Z</time>
      </trkpt>
      <trkpt lat="43.472" lon="6.75742">
        <ele>0.40000000596046</ele>
        <time>2017-06-01T08:07:22.000Z</time>
      </trkpt>
      <trkpt lat="43.47194" lon="6.75751">
        <ele>-0.60000002384186</ele>
        <time>2017-06-01T08:07:23.000Z</time>
      </trkpt>
      <trkpt lat="43.47188" lon="6.75758">
        <ele>-1</ele>
        <time>2017-06-01T08:07:24.000Z</time>
      </trkpt>
      <trkpt lat="43.47164" lon="6.75782">
        <ele>-2.4000000953674</ele>
        <time>2017-06-01T08:07:28.000Z</time>
      </trkpt>
      <trkpt lat="43.4716" lon="6.75788">
        <ele>-3.2000000476837</ele>
        <time>2017-06-01T08:07:29.000Z</time>
      </trkpt>
      <trkpt lat="43.47158" lon="6.75796">
        <ele>-4</ele>
        <time>2017-06-01T08:07:30.000Z</time>
      </trkpt>
      <trkpt lat="43.47159" lon="6.75811">
        <ele>-4.4000000953674</ele>
        <time>2017-06-01T08:07:32.000Z</time>
      </trkpt>
      <trkpt lat="43.4716" lon="6.75819">
        <ele>-4.4000000953674</ele>
        <time>2017-06-01T08:07:33.000Z</time>
      </trkpt>
      <trkpt lat="43.47159" lon="6.75841">
        <ele>-4.4000000953674</ele>
        <time>2017-06-01T08:07:36.000Z</time>
      </trkpt>
      <trkpt lat="43.47156" lon="6.75854">
        <ele>-4.4000000953674</ele>
        <time>2017-06-01T08:07:38.000Z</time>
      </trkpt>
      <trkpt lat="43.47145" lon="6.75878">
        <ele>-4.5999999046326</ele>
        <time>2017-06-01T08:07:42.000Z</time>
      </trkpt>
      <trkpt lat="43.47138" lon="6.75902">
        <ele>-4.4000000953674</ele>
        <time>2017-06-01T08:07:46.000Z</time>
      </trkpt>
      <trkpt lat="43.47138" lon="6.75908">
        <ele>-4.1999998092651</ele>
        <time>2017-06-01T08:07:47.000Z</time>
      </trkpt>
      <trkpt lat="43.47135" lon="6.75932">
        <ele>-3.2000000476837</ele>
        <time>2017-06-01T08:07:52.000Z</time>
      </trkpt>
      <trkpt lat="43.47135" lon="6.75936">
        <ele>-3</ele>
        <time>2017-06-01T08:07:53.000Z</time>
      </trkpt>
      <trkpt lat="43.47132" lon="6.75957">
        <ele>-1.7999999523163</ele>
        <time>2017-06-01T08:07:59.000Z</time>
      </trkpt>
      <trkpt lat="43.47129" lon="6.75972">
        <ele>-0.40000000596046</ele>
        <time>2017-06-01T08:08:04.000Z</time>
      </trkpt>
      <trkpt lat="43.47129" lon="6.75975">
        <ele>-0.20000000298023</ele>
        <time>2017-06-01T08:08:05.000Z</time>
      </trkpt>
      <trkpt lat="43.47126" lon="6.75988">
        <ele>0.60000002384186</ele>
        <time>2017-06-01T08:08:10.000Z</time>
      </trkpt>
      <trkpt lat="43.47125" lon="6.75996">
        <ele>1.3999999761581</ele>
        <time>2017-06-01T08:08:13.000Z</time>
      </trkpt>
      <trkpt lat="43.47124" lon="6.76001">
        <ele>1.7999999523163</ele>
        <time>2017-06-01T08:08:15.000Z</time>
      </trkpt>
      <trkpt lat="43.47123" lon="6.7601">
        <ele>2.7999999523163</ele>
        <time>2017-06-01T08:08:19.000Z</time>
      </trkpt>
      <trkpt lat="43.47122" lon="6.76018">
        <ele>3.4000000953674</ele>
        <time>2017-06-01T08:08:22.000Z</time>
      </trkpt>
      <trkpt lat="43.4712" lon="6.76025">
        <ele>4</ele>
        <time>2017-06-01T08:08:25.000Z</time>
      </trkpt>
      <trkpt lat="43.47118" lon="6.76034">
        <ele>5.1999998092651</ele>
        <time>2017-06-01T08:08:29.000Z</time>
      </trkpt>
      <trkpt lat="43.47118" lon="6.76036">
        <ele>5.4000000953674</ele>
        <time>2017-06-01T08:08:30.000Z</time>
      </trkpt>
      <trkpt lat="43.47116" lon="6.76045">
        <ele>6.1999998092651</ele>
        <time>2017-06-01T08:08:34.000Z</time>
      </trkpt>
      <trkpt lat="43.47113" lon="6.76057">
        <ele>7.4000000953674</ele>
        <time>2017-06-01T08:08:39.000Z</time>
      </trkpt>
      <trkpt lat="43.47112" lon="6.76062">
        <ele>7.8000001907349</ele>
        <time>2017-06-01T08:08:41.000Z</time>
      </trkpt>
      <trkpt lat="43.4711" lon="6.76069">
        <ele>8.3999996185303</ele>
        <time>2017-06-01T08:08:44.000Z</time>
      </trkpt>
      <trkpt lat="43.47107" lon="6.76082">
        <ele>9.8000001907349</ele>
        <time>2017-06-01T08:08:50.000Z</time>
      </trkpt>
      <trkpt lat="43.47105" lon="6.76089">
        <ele>10.199999809265</ele>
        <time>2017-06-01T08:08:53.000Z</time>
      </trkpt>
      <trkpt lat="43.47102" lon="6.76097">
        <ele>10.800000190735</ele>
        <time>2017-06-01T08:08:56.000Z</time>
      </trkpt>
      <trkpt lat="43.47098" lon="6.76111">
        <ele>11.800000190735</ele>
        <time>2017-06-01T08:09:02.000Z</time>
      </trkpt>
      <trkpt lat="43.47096" lon="6.76115">
        <ele>12.199999809265</ele>
        <time>2017-06-01T08:09:04.000Z</time>
      </trkpt>
      <trkpt lat="43.47092" lon="6.76127">
        <ele>13.199999809265</ele>
        <time>2017-06-01T08:09:09.000Z</time>
      </trkpt>
      <trkpt lat="43.47087" lon="6.76139">
        <ele>14.199999809265</ele>
        <time>2017-06-01T08:09:14.000Z</time>
      </trkpt>
      <trkpt lat="43.4708" lon="6.76156">
        <ele>15.39999961853</ele>
        <time>2017-06-01T08:09:21.000Z</time>
      </trkpt>
      <trkpt lat="43.47077" lon="6.76166">
        <ele>16.200000762939</ele>
        <time>2017-06-01T08:09:25.000Z</time>
      </trkpt>
      <trkpt lat="43.47076" lon="6.7617">
        <ele>16.60000038147</ele>
        <time>2017-06-01T08:09:27.000Z</time>
      </trkpt>
      <trkpt lat="43.47071" lon="6.76181">
        <ele>17.60000038147</ele>
        <time>2017-06-01T08:09:32.000Z</time>
      </trkpt>
      <trkpt lat="43.4707" lon="6.76183">
        <ele>17.799999237061</ele>
        <time>2017-06-01T08:09:33.000Z</time>
      </trkpt>
      <trkpt lat="43.47067" lon="6.76191">
        <ele>18.60000038147</ele>
        <time>2017-06-01T08:09:37.000Z</time>
      </trkpt>
      <trkpt lat="43.47065" lon="6.76197">
        <ele>19.799999237061</ele>
        <time>2017-06-01T08:09:40.000Z</time>
      </trkpt>
      <trkpt lat="43.47065" lon="6.76199">
        <ele>19.799999237061</ele>
        <time>2017-06-01T08:09:41.000Z</time>
      </trkpt>
      <trkpt lat="43.47062" lon="6.7621">
        <ele>21</ele>
        <time>2017-06-01T08:09:46.000Z</time>
      </trkpt>
      <trkpt lat="43.47061" lon="6.76216">
        <ele>21.799999237061</ele>
        <time>2017-06-01T08:09:49.000Z</time>
      </trkpt>
      <trkpt lat="43.47061" lon="6.76218">
        <ele>22</ele>
        <time>2017-06-01T08:09:50.000Z</time>
      </trkpt>
      <trkpt lat="43.47059" lon="6.76229">
        <ele>23.200000762939</ele>
        <time>2017-06-01T08:09:55.000Z</time>
      </trkpt>
      <trkpt lat="43.47058" lon="6.76236">
        <ele>23.799999237061</ele>
        <time>2017-06-01T08:09:58.000Z</time>
      </trkpt>
      <trkpt lat="43.47057" lon="6.7624">
        <ele>24.200000762939</ele>
        <time>2017-06-01T08:10:00.000Z</time>
      </trkpt>
      <trkpt lat="43.47056" lon="6.76248">
        <ele>25.799999237061</ele>
        <time>2017-06-01T08:10:04.000Z</time>
      </trkpt>
      <trkpt lat="43.47055" lon="6.76251">
        <ele>25.799999237061</ele>
        <time>2017-06-01T08:10:05.000Z</time>
      </trkpt>
      <trkpt lat="43.47054" lon="6.76262">
        <ele>27</ele>
        <time>2017-06-01T08:10:10.000Z</time>
      </trkpt>
      <trkpt lat="43.47051" lon="6.76273">
        <ele>27.799999237061</ele>
        <time>2017-06-01T08:10:15.000Z</time>
      </trkpt>
      <trkpt lat="43.47051" lon="6.76275">
        <ele>28.200000762939</ele>
        <time>2017-06-01T08:10:16.000Z</time>
      </trkpt>
      <trkpt lat="43.47047" lon="6.76283">
        <ele>29.200000762939</ele>
        <time>2017-06-01T08:10:20.000Z</time>
      </trkpt>
      <trkpt lat="43.47042" lon="6.76295">
        <ele>30.39999961853</ele>
        <time>2017-06-01T08:10:26.000Z</time>
      </trkpt>
      <trkpt lat="43.47037" lon="6.76302">
        <ele>31.60000038147</ele>
        <time>2017-06-01T08:10:30.000Z</time>
      </trkpt>
      <trkpt lat="43.47031" lon="6.7631">
        <ele>32.400001525879</ele>
        <time>2017-06-01T08:10:35.000Z</time>
      </trkpt>
      <trkpt lat="43.47028" lon="6.76313">
        <ele>32.599998474121</ele>
        <time>2017-06-01T08:10:37.000Z</time>
      </trkpt>
      <trkpt lat="43.4702" lon="6.76319">
        <ele>33.799999237061</ele>
        <time>2017-06-01T08:10:42.000Z</time>
      </trkpt>
      <trkpt lat="43.47016" lon="6.76323">
        <ele>34.400001525879</ele>
        <time>2017-06-01T08:10:45.000Z</time>
      </trkpt>
      <trkpt lat="43.47013" lon="6.76326">
        <ele>34.799999237061</ele>
        <time>2017-06-01T08:10:47.000Z</time>
      </trkpt>
      <trkpt lat="43.47005" lon="6.76332">
        <ele>35.799999237061</ele>
        <time>2017-06-01T08:10:52.000Z</time>
      </trkpt>
      <trkpt lat="43.47" lon="6.76336">
        <ele>36.200000762939</ele>
        <time>2017-06-01T08:10:55.000Z</time>
      </trkpt>
      <trkpt lat="43.46994" lon="6.76343">
        <ele>37</ele>
        <time>2017-06-01T08:10:59.000Z</time>
      </trkpt>
      <trkpt lat="43.46986" lon="6.7635">
        <ele>37.799999237061</ele>
        <time>2017-06-01T08:11:04.000Z</time>
      </trkpt>
      <trkpt lat="43.46984" lon="6.76352">
        <ele>38</ele>
        <time>2017-06-01T08:11:05.000Z</time>
      </trkpt>
      <trkpt lat="43.46975" lon="6.76362">
        <ele>38.599998474121</ele>
        <time>2017-06-01T08:11:11.000Z</time>
      </trkpt>
      <trkpt lat="43.46972" lon="6.76366">
        <ele>39</ele>
        <time>2017-06-01T08:11:13.000Z</time>
      </trkpt>
      <trkpt lat="43.46962" lon="6.7638">
        <ele>40</ele>
        <time>2017-06-01T08:11:20.000Z</time>
      </trkpt>
      <trkpt lat="43.4696" lon="6.76382">
        <ele>40.200000762939</ele>
        <time>2017-06-01T08:11:21.000Z</time>
      </trkpt>
      <trkpt lat="43.46952" lon="6.76394">
        <ele>41.200000762939</ele>
        <time>2017-06-01T08:11:27.000Z</time>
      </trkpt>
      <trkpt lat="43.46946" lon="6.76402">
        <ele>41.799999237061</ele>
        <time>2017-06-01T08:11:31.000Z</time>
      </trkpt>
      <trkpt lat="43.46941" lon="6.76408">
        <ele>42.200000762939</ele>
        <time>2017-06-01T08:11:34.000Z</time>
      </trkpt>
      <trkpt lat="43.4693" lon="6.76423">
        <ele>43.400001525879</ele>
        <time>2017-06-01T08:11:41.000Z</time>
      </trkpt>
      <trkpt lat="43.46929" lon="6.76426">
        <ele>43.599998474121</ele>
        <time>2017-06-01T08:11:42.000Z</time>
      </trkpt>
      <trkpt lat="43.46916" lon="6.76444">
        <ele>44.400001525879</ele>
        <time>2017-06-01T08:11:49.000Z</time>
      </trkpt>
      <trkpt lat="43.4691" lon="6.76452">
        <ele>44.799999237061</ele>
        <time>2017-06-01T08:11:52.000Z</time>
      </trkpt>
      <trkpt lat="43.46901" lon="6.76466">
        <ele>45.400001525879</ele>
        <time>2017-06-01T08:11:57.000Z</time>
      </trkpt>
      <trkpt lat="43.4689" lon="6.76483">
        <ele>46.400001525879</ele>
        <time>2017-06-01T08:12:03.000Z</time>
      </trkpt>
      <trkpt lat="43.46888" lon="6.76486">
        <ele>46.599998474121</ele>
        <time>2017-06-01T08:12:04.000Z</time>
      </trkpt>
      <trkpt lat="43.46872" lon="6.76509">
        <ele>47.200000762939</ele>
        <time>2017-06-01T08:12:12.000Z</time>
      </trkpt>
      <trkpt lat="43.46859" lon="6.76518">
        <ele>47.599998474121</ele>
        <time>2017-06-01T08:12:18.000Z</time>
      </trkpt>
      <trkpt lat="43.46845" lon="6.76533">
        <ele>47.599998474121</ele>
        <time>2017-06-01T08:12:23.000Z</time>
      </trkpt>
      <trkpt lat="43.46831" lon="6.76546">
        <ele>46.799999237061</ele>
        <time>2017-06-01T08:12:27.000Z</time>
      </trkpt>
      <trkpt lat="43.46826" lon="6.76549">
        <ele>46.599998474121</ele>
        <time>2017-06-01T08:12:28.000Z</time>
      </trkpt>
      <trkpt lat="43.46822" lon="6.76552">
        <ele>46.400001525879</ele>
        <time>2017-06-01T08:12:29.000Z</time>
      </trkpt>
      <trkpt lat="43.46818" lon="6.76556">
        <ele>46.400001525879</ele>
        <time>2017-06-01T08:12:30.000Z</time>
      </trkpt>
      <trkpt lat="43.46813" lon="6.76567">
        <ele>46.200000762939</ele>
        <time>2017-06-01T08:12:32.000Z</time>
      </trkpt>
      <trkpt lat="43.46804" lon="6.76589">
        <ele>46</ele>
        <time>2017-06-01T08:12:36.000Z</time>
      </trkpt>
      <trkpt lat="43.46793" lon="6.76601">
        <ele>46.200000762939</ele>
        <time>2017-06-01T08:12:39.000Z</time>
      </trkpt>
      <trkpt lat="43.46789" lon="6.76604">
        <ele>46</ele>
        <time>2017-06-01T08:12:40.000Z</time>
      </trkpt>
      <trkpt lat="43.46784" lon="6.76607">
        <ele>45.799999237061</ele>
        <time>2017-06-01T08:12:41.000Z</time>
      </trkpt>
      <trkpt lat="43.46756" lon="6.76629">
        <ele>45.400001525879</ele>
        <time>2017-06-01T08:12:47.000Z</time>
      </trkpt>
      <trkpt lat="43.46745" lon="6.76636">
        <ele>45.200000762939</ele>
        <time>2017-06-01T08:12:49.000Z</time>
      </trkpt>
      <trkpt lat="43.46716" lon="6.76653">
        <ele>44.400001525879</ele>
        <time>2017-06-01T08:12:54.000Z</time>
      </trkpt>
      <trkpt lat="43.46704" lon="6.76658">
        <ele>43.799999237061</ele>
        <time>2017-06-01T08:12:56.000Z</time>
      </trkpt>
      <trkpt lat="43.46662" lon="6.76665">
        <ele>43.200000762939</ele>
        <time>2017-06-01T08:13:03.000Z</time>
      </trkpt>
      <trkpt lat="43.46616" lon="6.76677">
        <ele>43</ele>
        <time>2017-06-01T08:13:11.000Z</time>
      </trkpt>
      <trkpt lat="43.46605" lon="6.76683">
        <ele>43</ele>
        <time>2017-06-01T08:13:13.000Z</time>
      </trkpt>
      <trkpt lat="43.4659" lon="6.76692">
        <ele>42.799999237061</ele>
        <time>2017-06-01T08:13:16.000Z</time>
      </trkpt>
      <trkpt lat="43.46551" lon="6.76713">
        <ele>42.200000762939</ele>
        <time>2017-06-01T08:13:23.000Z</time>
      </trkpt>
      <trkpt lat="43.46545" lon="6.76716">
        <ele>42.200000762939</ele>
        <time>2017-06-01T08:13:24.000Z</time>
      </trkpt>
      <trkpt lat="43.4652" lon="6.7673">
        <ele>41.200000762939</ele>
        <time>2017-06-01T08:13:28.000Z</time>
      </trkpt>
      <trkpt lat="43.46498" lon="6.76742">
        <ele>39.799999237061</ele>
        <time>2017-06-01T08:13:31.000Z</time>
      </trkpt>
      <trkpt lat="43.46474" lon="6.76755">
        <ele>38.799999237061</ele>
        <time>2017-06-01T08:13:34.000Z</time>
      </trkpt>
      <trkpt lat="43.46457" lon="6.76765">
        <ele>37.599998474121</ele>
        <time>2017-06-01T08:13:36.000Z</time>
      </trkpt>
      <trkpt lat="43.46449" lon="6.7677">
        <ele>37.200000762939</ele>
        <time>2017-06-01T08:13:37.000Z</time>
      </trkpt>
      <trkpt lat="43.46432" lon="6.76778">
        <ele>36.400001525879</ele>
        <time>2017-06-01T08:13:39.000Z</time>
      </trkpt>
      <trkpt lat="43.46403" lon="6.76799">
        <ele>35.200000762939</ele>
        <time>2017-06-01T08:13:43.000Z</time>
      </trkpt>
      <trkpt lat="43.46377" lon="6.76827">
        <ele>33.799999237061</ele>
        <time>2017-06-01T08:13:47.000Z</time>
      </trkpt>
      <trkpt lat="43.46363" lon="6.76843">
        <ele>32.599998474121</ele>
        <time>2017-06-01T08:13:49.000Z</time>
      </trkpt>
      <trkpt lat="43.46348" lon="6.76858">
        <ele>31</ele>
        <time>2017-06-01T08:13:51.000Z</time>
      </trkpt>
      <trkpt lat="43.46332" lon="6.76875">
        <ele>29.60000038147</ele>
        <time>2017-06-01T08:13:53.000Z</time>
      </trkpt>
      <trkpt lat="43.46315" lon="6.76892">
        <ele>28.200000762939</ele>
        <time>2017-06-01T08:13:55.000Z</time>
      </trkpt>
      <trkpt lat="43.4629" lon="6.76917">
        <ele>26.799999237061</ele>
        <time>2017-06-01T08:13:58.000Z</time>
      </trkpt>
      <trkpt lat="43.46275" lon="6.76929">
        <ele>25.39999961853</ele>
        <time>2017-06-01T08:14:00.000Z</time>
      </trkpt>
      <trkpt lat="43.4626" lon="6.76936">
        <ele>24.799999237061</ele>
        <time>2017-06-01T08:14:02.000Z</time>
      </trkpt>
      <trkpt lat="43.46253" lon="6.7694">
        <ele>24.60000038147</ele>
        <time>2017-06-01T08:14:03.000Z</time>
      </trkpt>
      <trkpt lat="43.46248" lon="6.76946">
        <ele>24.39999961853</ele>
        <time>2017-06-01T08:14:04.000Z</time>
      </trkpt>
      <trkpt lat="43.46236" lon="6.76958">
        <ele>24</ele>
        <time>2017-06-01T08:14:06.000Z</time>
      </trkpt>
      <trkpt lat="43.4622" lon="6.76964">
        <ele>23.200000762939</ele>
        <time>2017-06-01T08:14:08.000Z</time>
      </trkpt>
      <trkpt lat="43.46212" lon="6.76969">
        <ele>22.60000038147</ele>
        <time>2017-06-01T08:14:09.000Z</time>
      </trkpt>
      <trkpt lat="43.46205" lon="6.76978">
        <ele>21.799999237061</ele>
        <time>2017-06-01T08:14:10.000Z</time>
      </trkpt>
      <trkpt lat="43.46192" lon="6.76996">
        <ele>20.200000762939</ele>
        <time>2017-06-01T08:14:12.000Z</time>
      </trkpt>
      <trkpt lat="43.46191" lon="6.77021">
        <ele>19.39999961853</ele>
        <time>2017-06-01T08:14:14.000Z</time>
      </trkpt>
      <trkpt lat="43.46192" lon="6.77034">
        <ele>19</ele>
        <time>2017-06-01T08:14:15.000Z</time>
      </trkpt>
      <trkpt lat="43.46195" lon="6.77082">
        <ele>18.799999237061</ele>
        <time>2017-06-01T08:14:19.000Z</time>
      </trkpt>
      <trkpt lat="43.46197" lon="6.77137">
        <ele>18.799999237061</ele>
        <time>2017-06-01T08:14:25.000Z</time>
      </trkpt>
      <trkpt lat="43.46198" lon="6.77177">
        <ele>19.799999237061</ele>
        <time>2017-06-01T08:14:31.000Z</time>
      </trkpt>
      <trkpt lat="43.462" lon="6.77207">
        <ele>20.200000762939</ele>
        <time>2017-06-01T08:14:36.000Z</time>
      </trkpt>
      <trkpt lat="43.462" lon="6.77228">
        <ele>20.39999961853</ele>
        <time>2017-06-01T08:14:40.000Z</time>
      </trkpt>
      <trkpt lat="43.462" lon="6.77252">
        <ele>21.200000762939</ele>
        <time>2017-06-01T08:14:45.000Z</time>
      </trkpt>
      <trkpt lat="43.46201" lon="6.77258">
        <ele>21.200000762939</ele>
        <time>2017-06-01T08:14:46.000Z</time>
      </trkpt>
      <trkpt lat="43.46201" lon="6.77283">
        <ele>22.200000762939</ele>
        <time>2017-06-01T08:14:51.000Z</time>
      </trkpt>
      <trkpt lat="43.46201" lon="6.77288">
        <ele>22.39999961853</ele>
        <time>2017-06-01T08:14:52.000Z</time>
      </trkpt>
      <trkpt lat="43.46202" lon="6.77315">
        <ele>23.39999961853</ele>
        <time>2017-06-01T08:14:58.000Z</time>
      </trkpt>
      <trkpt lat="43.46201" lon="6.77319">
        <ele>23.60000038147</ele>
        <time>2017-06-01T08:14:59.000Z</time>
      </trkpt>
      <trkpt lat="43.46203" lon="6.77347">
        <ele>24.60000038147</ele>
        <time>2017-06-01T08:15:07.000Z</time>
      </trkpt>
      <trkpt lat="43.46204" lon="6.77376">
        <ele>25.60000038147</ele>
        <time>2017-06-01T08:15:15.000Z</time>
      </trkpt>
      <trkpt lat="43.4621" lon="6.77389">
        <ele>25.799999237061</ele>
        <time>2017-06-01T08:16:04.000Z</time>
      </trkpt>
      <trkpt lat="43.46217" lon="6.77409">
        <ele>26.200000762939</ele>
        <time>2017-06-01T08:16:09.000Z</time>
      </trkpt>
      <trkpt lat="43.46226" lon="6.77435">
        <ele>26</ele>
        <time>2017-06-01T08:16:14.000Z</time>
      </trkpt>
      <trkpt lat="43.46227" lon="6.77441">
        <ele>25.799999237061</ele>
        <time>2017-06-01T08:16:15.000Z</time>
      </trkpt>
      <trkpt lat="43.46228" lon="6.77458">
        <ele>26.200000762939</ele>
        <time>2017-06-01T08:16:18.000Z</time>
      </trkpt>
      <trkpt lat="43.46229" lon="6.77477">
        <ele>26</ele>
        <time>2017-06-01T08:16:21.000Z</time>
      </trkpt>
      <trkpt lat="43.46231" lon="6.77505">
        <ele>24.799999237061</ele>
        <time>2017-06-01T08:16:27.000Z</time>
      </trkpt>
      <trkpt lat="43.46231" lon="6.77509">
        <ele>24.200000762939</ele>
        <time>2017-06-01T08:16:28.000Z</time>
      </trkpt>
      <trkpt lat="43.46231" lon="6.77513">
        <ele>25.39999961853</ele>
        <time>2017-06-01T08:16:29.000Z</time>
      </trkpt>
      <trkpt lat="43.46231" lon="6.77517">
        <ele>28.200000762939</ele>
        <time>2017-06-01T08:16:30.000Z</time>
      </trkpt>
      <trkpt lat="43.46232" lon="6.77531">
        <ele>25.799999237061</ele>
        <time>2017-06-01T08:16:33.000Z</time>
      </trkpt>
      <trkpt lat="43.46232" lon="6.77536">
        <ele>25.39999961853</ele>
        <time>2017-06-01T08:16:34.000Z</time>
      </trkpt>
      <trkpt lat="43.46232" lon="6.77543">
        <ele>25.39999961853</ele>
        <time>2017-06-01T08:16:35.000Z</time>
      </trkpt>
      <trkpt lat="43.46228" lon="6.77572">
        <ele>24.60000038147</ele>
        <time>2017-06-01T08:16:39.000Z</time>
      </trkpt>
      <trkpt lat="43.46218" lon="6.7763">
        <ele>24.39999961853</ele>
        <time>2017-06-01T08:16:46.000Z</time>
      </trkpt>
      <trkpt lat="43.46208" lon="6.77672">
        <ele>25</ele>
        <time>2017-06-01T08:16:52.000Z</time>
      </trkpt>
      <trkpt lat="43.46195" lon="6.77713">
        <ele>25.60000038147</ele>
        <time>2017-06-01T08:16:59.000Z</time>
      </trkpt>
      <trkpt lat="43.4619" lon="6.77725">
        <ele>25.60000038147</ele>
        <time>2017-06-01T08:17:01.000Z</time>
      </trkpt>
      <trkpt lat="43.46178" lon="6.77751">
        <ele>25.60000038147</ele>
        <time>2017-06-01T08:17:05.000Z</time>
      </trkpt>
      <trkpt lat="43.46164" lon="6.77781">
        <ele>24.39999961853</ele>
        <time>2017-06-01T08:17:09.000Z</time>
      </trkpt>
      <trkpt lat="43.46158" lon="6.77798">
        <ele>23.799999237061</ele>
        <time>2017-06-01T08:17:11.000Z</time>
      </trkpt>
      <trkpt lat="43.46152" lon="6.77815">
        <ele>23</ele>
        <time>2017-06-01T08:17:13.000Z</time>
      </trkpt>
      <trkpt lat="43.46142" lon="6.77843">
        <ele>22.200000762939</ele>
        <time>2017-06-01T08:17:16.000Z</time>
      </trkpt>
      <trkpt lat="43.46141" lon="6.77853">
        <ele>21.799999237061</ele>
        <time>2017-06-01T08:17:17.000Z</time>
      </trkpt>
      <trkpt lat="43.46141" lon="6.77896">
        <ele>20.60000038147</ele>
        <time>2017-06-01T08:17:21.000Z</time>
      </trkpt>
      <trkpt lat="43.46146" lon="6.77917">
        <ele>19.60000038147</ele>
        <time>2017-06-01T08:17:23.000Z</time>
      </trkpt>
      <trkpt lat="43.46152" lon="6.77939">
        <ele>18.799999237061</ele>
        <time>2017-06-01T08:17:25.000Z</time>
      </trkpt>
      <trkpt lat="43.46156" lon="6.77949">
        <ele>18.799999237061</ele>
        <time>2017-06-01T08:17:26.000Z</time>
      </trkpt>
      <trkpt lat="43.46166" lon="6.77968">
        <ele>18.39999961853</ele>
        <time>2017-06-01T08:17:28.000Z</time>
      </trkpt>
      <trkpt lat="43.46172" lon="6.77977">
        <ele>18</ele>
        <time>2017-06-01T08:17:29.000Z</time>
      </trkpt>
      <trkpt lat="43.46189" lon="6.78016">
        <ele>17</ele>
        <time>2017-06-01T08:17:33.000Z</time>
      </trkpt>
      <trkpt lat="43.46192" lon="6.78025">
        <ele>17</ele>
        <time>2017-06-01T08:17:34.000Z</time>
      </trkpt>
      <trkpt lat="43.46201" lon="6.7804">
        <ele>17.200000762939</ele>
        <time>2017-06-01T08:17:36.000Z</time>
      </trkpt>
      <trkpt lat="43.46213" lon="6.78049">
        <ele>17.39999961853</ele>
        <time>2017-06-01T08:17:38.000Z</time>
      </trkpt>
      <trkpt lat="43.46237" lon="6.78055">
        <ele>17.60000038147</ele>
        <time>2017-06-01T08:17:42.000Z</time>
      </trkpt>
      <trkpt lat="43.46243" lon="6.78057">
        <ele>17.799999237061</ele>
        <time>2017-06-01T08:17:43.000Z</time>
      </trkpt>
      <trkpt lat="43.4627" lon="6.78068">
        <ele>18</ele>
        <time>2017-06-01T08:17:48.000Z</time>
      </trkpt>
      <trkpt lat="43.46284" lon="6.78078">
        <ele>18.200000762939</ele>
        <time>2017-06-01T08:17:51.000Z</time>
      </trkpt>
      <trkpt lat="43.46306" lon="6.78093">
        <ele>18.39999961853</ele>
        <time>2017-06-01T08:17:56.000Z</time>
      </trkpt>
      <trkpt lat="43.46331" lon="6.78104">
        <ele>18.799999237061</ele>
        <time>2017-06-01T08:18:02.000Z</time>
      </trkpt>
      <trkpt lat="43.46344" lon="6.78105">
        <ele>19</ele>
        <time>2017-06-01T08:18:05.000Z</time>
      </trkpt>
      <trkpt lat="43.46352" lon="6.78104">
        <ele>19.200000762939</ele>
        <time>2017-06-01T08:18:07.000Z</time>
      </trkpt>
      <trkpt lat="43.46361" lon="6.78101">
        <ele>19.39999961853</ele>
        <time>2017-06-01T08:18:09.000Z</time>
      </trkpt>
      <trkpt lat="43.46369" lon="6.781">
        <ele>19.60000038147</ele>
        <time>2017-06-01T08:18:11.000Z</time>
      </trkpt>
      <trkpt lat="43.46391" lon="6.78096">
        <ele>20.200000762939</ele>
        <time>2017-06-01T08:18:16.000Z</time>
      </trkpt>
      <trkpt lat="43.46395" lon="6.78094">
        <ele>20.200000762939</ele>
        <time>2017-06-01T08:18:17.000Z</time>
      </trkpt>
      <trkpt lat="43.46424" lon="6.78091">
        <ele>21.200000762939</ele>
        <time>2017-06-01T08:18:24.000Z</time>
      </trkpt>
      <trkpt lat="43.46448" lon="6.78086">
        <ele>21.200000762939</ele>
        <time>2017-06-01T08:18:30.000Z</time>
      </trkpt>
      <trkpt lat="43.46457" lon="6.78083">
        <ele>21.60000038147</ele>
        <time>2017-06-01T08:18:32.000Z</time>
      </trkpt>
      <trkpt lat="43.46485" lon="6.78072">
        <ele>22.39999961853</ele>
        <time>2017-06-01T08:18:39.000Z</time>
      </trkpt>
      <trkpt lat="43.46493" lon="6.78071">
        <ele>22.200000762939</ele>
        <time>2017-06-01T08:18:41.000Z</time>
      </trkpt>
      <trkpt lat="43.46525" lon="6.78069">
        <ele>22.39999961853</ele>
        <time>2017-06-01T08:18:49.000Z</time>
      </trkpt>
      <trkpt lat="43.46547" lon="6.78069">
        <ele>23.39999961853</ele>
        <time>2017-06-01T08:18:55.000Z</time>
      </trkpt>
      <trkpt lat="43.4657" lon="6.78081">
        <ele>24</ele>
        <time>2017-06-01T08:19:02.000Z</time>
      </trkpt>
      <trkpt lat="43.46588" lon="6.78102">
        <ele>24.39999961853</ele>
        <time>2017-06-01T08:19:09.000Z</time>
      </trkpt>
      <trkpt lat="43.4659" lon="6.78105">
        <ele>24.60000038147</ele>
        <time>2017-06-01T08:19:10.000Z</time>
      </trkpt>
      <trkpt lat="43.46597" lon="6.78117">
        <ele>25</ele>
        <time>2017-06-01T08:19:15.000Z</time>
      </trkpt>
      <trkpt lat="43.46598" lon="6.78119">
        <ele>25.200000762939</ele>
        <time>2017-06-01T08:19:16.000Z</time>
      </trkpt>
      <trkpt lat="43.46595" lon="6.78131">
        <ele>25.39999961853</ele>
        <time>2017-06-01T08:20:00.000Z</time>
      </trkpt>
      <trkpt lat="43.46592" lon="6.78133">
        <ele>25.60000038147</ele>
        <time>2017-06-01T08:20:02.000Z</time>
      </trkpt>
      <trkpt lat="43.46586" lon="6.78137">
        <ele>25.799999237061</ele>
        <time>2017-06-01T08:20:05.000Z</time>
      </trkpt>
      <trkpt lat="43.46582" lon="6.78139">
        <ele>26.200000762939</ele>
        <time>2017-06-01T08:20:08.000Z</time>
      </trkpt>
      <trkpt lat="43.46581" lon="6.78138">
        <ele>26.200000762939</ele>
        <time>2017-06-01T08:20:09.000Z</time>
      </trkpt>
      <trkpt lat="43.46577" lon="6.78138">
        <ele>26.60000038147</ele>
        <time>2017-06-01T08:20:12.000Z</time>
      </trkpt>
      <trkpt lat="43.46573" lon="6.78137">
        <ele>26.799999237061</ele>
        <time>2017-06-01T08:20:14.000Z</time>
      </trkpt>
      <trkpt lat="43.46569" lon="6.78136">
        <ele>27.200000762939</ele>
        <time>2017-06-01T08:20:16.000Z</time>
      </trkpt>
      <trkpt lat="43.46564" lon="6.78138">
        <ele>27.799999237061</ele>
        <time>2017-06-01T08:20:19.000Z</time>
      </trkpt>
      <trkpt lat="43.46559" lon="6.7814">
        <ele>28.39999961853</ele>
        <time>2017-06-01T08:20:22.000Z</time>
      </trkpt>
      <trkpt lat="43.46554" lon="6.78141">
        <ele>28.799999237061</ele>
        <time>2017-06-01T08:20:25.000Z</time>
      </trkpt>
      <trkpt lat="43.46548" lon="6.78144">
        <ele>29.799999237061</ele>
        <time>2017-06-01T08:20:29.000Z</time>
      </trkpt>
      <trkpt lat="43.46546" lon="6.78145">
        <ele>30</ele>
        <time>2017-06-01T08:20:30.000Z</time>
      </trkpt>
      <trkpt lat="43.46535" lon="6.78151">
        <ele>31</ele>
        <time>2017-06-01T08:20:37.000Z</time>
      </trkpt>
      <trkpt lat="43.46526" lon="6.7816">
        <ele>32.200000762939</ele>
        <time>2017-06-01T08:20:43.000Z</time>
      </trkpt>
      <trkpt lat="43.46521" lon="6.78164">
        <ele>32.799999237061</ele>
        <time>2017-06-01T08:20:46.000Z</time>
      </trkpt>
      <trkpt lat="43.46516" lon="6.78166">
        <ele>33.200000762939</ele>
        <time>2017-06-01T08:20:49.000Z</time>
      </trkpt>
      <trkpt lat="43.46507" lon="6.7817">
        <ele>34.400001525879</ele>
        <time>2017-06-01T08:20:54.000Z</time>
      </trkpt>
      <trkpt lat="43.46495" lon="6.78174">
        <ele>35.400001525879</ele>
        <time>2017-06-01T08:21:00.000Z</time>
      </trkpt>
      <trkpt lat="43.46489" lon="6.78177">
        <ele>35.799999237061</ele>
        <time>2017-06-01T08:21:03.000Z</time>
      </trkpt>
      <trkpt lat="43.46482" lon="6.7818">
        <ele>36.599998474121</ele>
        <time>2017-06-01T08:21:07.000Z</time>
      </trkpt>
      <trkpt lat="43.46472" lon="6.78182">
        <ele>37.200000762939</ele>
        <time>2017-06-01T08:21:12.000Z</time>
      </trkpt>
      <trkpt lat="43.46466" lon="6.78184">
        <ele>38</ele>
        <time>2017-06-01T08:21:15.000Z</time>
      </trkpt>
      <trkpt lat="43.46457" lon="6.78186">
        <ele>38.400001525879</ele>
        <time>2017-06-01T08:21:19.000Z</time>
      </trkpt>
      <trkpt lat="43.46453" lon="6.78188">
        <ele>39</ele>
        <time>2017-06-01T08:21:21.000Z</time>
      </trkpt>
      <trkpt lat="43.46441" lon="6.78194">
        <ele>40</ele>
        <time>2017-06-01T08:21:27.000Z</time>
      </trkpt>
      <trkpt lat="43.46435" lon="6.78198">
        <ele>40.599998474121</ele>
        <time>2017-06-01T08:21:30.000Z</time>
      </trkpt>
      <trkpt lat="43.46429" lon="6.782">
        <ele>41</ele>
        <time>2017-06-01T08:21:33.000Z</time>
      </trkpt>
      <trkpt lat="43.46419" lon="6.78207">
        <ele>42</ele>
        <time>2017-06-01T08:21:38.000Z</time>
      </trkpt>
      <trkpt lat="43.46417" lon="6.78209">
        <ele>42.200000762939</ele>
        <time>2017-06-01T08:21:39.000Z</time>
      </trkpt>
      <trkpt lat="43.46409" lon="6.78219">
        <ele>43.200000762939</ele>
        <time>2017-06-01T08:21:44.000Z</time>
      </trkpt>
      <trkpt lat="43.46404" lon="6.78226">
        <ele>43.799999237061</ele>
        <time>2017-06-01T08:21:47.000Z</time>
      </trkpt>
      <trkpt lat="43.46402" lon="6.78231">
        <ele>44.200000762939</ele>
        <time>2017-06-01T08:21:49.000Z</time>
      </trkpt>
      <trkpt lat="43.46396" lon="6.78246">
        <ele>45.400001525879</ele>
        <time>2017-06-01T08:21:55.000Z</time>
      </trkpt>
      <trkpt lat="43.46396" lon="6.7825">
        <ele>45.599998474121</ele>
        <time>2017-06-01T08:21:56.000Z</time>
      </trkpt>
      <trkpt lat="43.46397" lon="6.7826">
        <ele>46.400001525879</ele>
        <time>2017-06-01T08:22:00.000Z</time>
      </trkpt>
      <trkpt lat="43.464" lon="6.78268">
        <ele>47</ele>
        <time>2017-06-01T08:22:03.000Z</time>
      </trkpt>
      <trkpt lat="43.46401" lon="6.78273">
        <ele>47.599998474121</ele>
        <time>2017-06-01T08:22:05.000Z</time>
      </trkpt>
      <trkpt lat="43.46409" lon="6.78283">
        <ele>48.400001525879</ele>
        <time>2017-06-01T08:22:10.000Z</time>
      </trkpt>
      <trkpt lat="43.46412" lon="6.78286">
        <ele>48.599998474121</ele>
        <time>2017-06-01T08:22:12.000Z</time>
      </trkpt>
      <trkpt lat="43.46423" lon="6.78293">
        <ele>49.799999237061</ele>
        <time>2017-06-01T08:22:18.000Z</time>
      </trkpt>
      <trkpt lat="43.46435" lon="6.78299">
        <ele>50.799999237061</ele>
        <time>2017-06-01T08:22:24.000Z</time>
      </trkpt>
      <trkpt lat="43.46439" lon="6.78301">
        <ele>51.200000762939</ele>
        <time>2017-06-01T08:22:26.000Z</time>
      </trkpt>
      <trkpt lat="43.46448" lon="6.78304">
        <ele>52</ele>
        <time>2017-06-01T08:22:30.000Z</time>
      </trkpt>
      <trkpt lat="43.46456" lon="6.78305">
        <ele>52.799999237061</ele>
        <time>2017-06-01T08:22:34.000Z</time>
      </trkpt>
      <trkpt lat="43.4646" lon="6.78305">
        <ele>53</ele>
        <time>2017-06-01T08:22:36.000Z</time>
      </trkpt>
      <trkpt lat="43.4647" lon="6.78305">
        <ele>53.799999237061</ele>
        <time>2017-06-01T08:22:41.000Z</time>
      </trkpt>
      <trkpt lat="43.46474" lon="6.78304">
        <ele>54</ele>
        <time>2017-06-01T08:22:43.000Z</time>
      </trkpt>
      <trkpt lat="43.46484" lon="6.78301">
        <ele>55.200000762939</ele>
        <time>2017-06-01T08:22:48.000Z</time>
      </trkpt>
      <trkpt lat="43.46486" lon="6.783">
        <ele>55.200000762939</ele>
        <time>2017-06-01T08:22:49.000Z</time>
      </trkpt>
      <trkpt lat="43.46501" lon="6.78295">
        <ele>56.200000762939</ele>
        <time>2017-06-01T08:22:56.000Z</time>
      </trkpt>
      <trkpt lat="43.46508" lon="6.78293">
        <ele>56.400001525879</ele>
        <time>2017-06-01T08:22:59.000Z</time>
      </trkpt>
      <trkpt lat="43.46521" lon="6.78294">
        <ele>57.200000762939</ele>
        <time>2017-06-01T08:23:05.000Z</time>
      </trkpt>
      <trkpt lat="43.4653" lon="6.78294">
        <ele>57.799999237061</ele>
        <time>2017-06-01T08:23:09.000Z</time>
      </trkpt>
      <trkpt lat="43.4654" lon="6.78295">
        <ele>58.400001525879</ele>
        <time>2017-06-01T08:23:13.000Z</time>
      </trkpt>
      <trkpt lat="43.46552" lon="6.78297">
        <ele>59</ele>
        <time>2017-06-01T08:23:18.000Z</time>
      </trkpt>
      <trkpt lat="43.46556" lon="6.78298">
        <ele>59.400001525879</ele>
        <time>2017-06-01T08:23:20.000Z</time>
      </trkpt>
      <trkpt lat="43.46565" lon="6.78301">
        <ele>60.200000762939</ele>
        <time>2017-06-01T08:23:24.000Z</time>
      </trkpt>
      <trkpt lat="43.46571" lon="6.78303">
        <ele>60.400001525879</ele>
        <time>2017-06-01T08:23:27.000Z</time>
      </trkpt>
      <trkpt lat="43.46584" lon="6.78307">
        <ele>61.599998474121</ele>
        <time>2017-06-01T08:23:33.000Z</time>
      </trkpt>
      <trkpt lat="43.46589" lon="6.78307">
        <ele>61.599998474121</ele>
        <time>2017-06-01T08:23:35.000Z</time>
      </trkpt>
      <trkpt lat="43.46602" lon="6.78312">
        <ele>62.599998474121</ele>
        <time>2017-06-01T08:23:41.000Z</time>
      </trkpt>
      <trkpt lat="43.46609" lon="6.78314">
        <ele>63.200000762939</ele>
        <time>2017-06-01T08:23:44.000Z</time>
      </trkpt>
      <trkpt lat="43.46618" lon="6.78319">
        <ele>63.599998474121</ele>
        <time>2017-06-01T08:23:48.000Z</time>
      </trkpt>
      <trkpt lat="43.46631" lon="6.78326">
        <ele>64.599998474121</ele>
        <time>2017-06-01T08:23:54.000Z</time>
      </trkpt>
      <trkpt lat="43.46643" lon="6.78334">
        <ele>65.599998474121</ele>
        <time>2017-06-01T08:24:00.000Z</time>
      </trkpt>
      <trkpt lat="43.46648" lon="6.78336">
        <ele>66</ele>
        <time>2017-06-01T08:24:02.000Z</time>
      </trkpt>
      <trkpt lat="43.46652" lon="6.78339">
        <ele>66.599998474121</ele>
        <time>2017-06-01T08:24:04.000Z</time>
      </trkpt>
      <trkpt lat="43.46664" lon="6.78348">
        <ele>67.599998474121</ele>
        <time>2017-06-01T08:24:10.000Z</time>
      </trkpt>
      <trkpt lat="43.46666" lon="6.7835">
        <ele>67.800003051758</ele>
        <time>2017-06-01T08:24:11.000Z</time>
      </trkpt>
      <trkpt lat="43.46675" lon="6.78364">
        <ele>68.800003051758</ele>
        <time>2017-06-01T08:24:17.000Z</time>
      </trkpt>
      <trkpt lat="43.46677" lon="6.78367">
        <ele>68.800003051758</ele>
        <time>2017-06-01T08:24:18.000Z</time>
      </trkpt>
      <trkpt lat="43.46684" lon="6.78388">
        <ele>69.800003051758</ele>
        <time>2017-06-01T08:24:25.000Z</time>
      </trkpt>
      <trkpt lat="43.46685" lon="6.78392">
        <ele>70</ele>
        <time>2017-06-01T08:24:26.000Z</time>
      </trkpt>
      <trkpt lat="43.46686" lon="6.78417">
        <ele>70.599998474121</ele>
        <time>2017-06-01T08:24:34.000Z</time>
      </trkpt>
      <trkpt lat="43.46686" lon="6.78435">
        <ele>71</ele>
        <time>2017-06-01T08:24:39.000Z</time>
      </trkpt>
      <trkpt lat="43.46684" lon="6.78443">
        <ele>71.199996948242</ele>
        <time>2017-06-01T08:24:41.000Z</time>
      </trkpt>
      <trkpt lat="43.4668" lon="6.78474">
        <ele>71.599998474121</ele>
        <time>2017-06-01T08:24:49.000Z</time>
      </trkpt>
      <trkpt lat="43.4668" lon="6.78483">
        <ele>72</ele>
        <time>2017-06-01T08:24:51.000Z</time>
      </trkpt>
      <trkpt lat="43.46682" lon="6.78501">
        <ele>72.199996948242</ele>
        <time>2017-06-01T08:24:55.000Z</time>
      </trkpt>
      <trkpt lat="43.4669" lon="6.78531">
        <ele>72.400001525879</ele>
        <time>2017-06-01T08:25:02.000Z</time>
      </trkpt>
      <trkpt lat="43.46696" lon="6.78568">
        <ele>72.800003051758</ele>
        <time>2017-06-01T08:25:09.000Z</time>
      </trkpt>
      <trkpt lat="43.46696" lon="6.78607">
        <ele>72.599998474121</ele>
        <time>2017-06-01T08:25:15.000Z</time>
      </trkpt>
      <trkpt lat="43.46686" lon="6.78655">
        <ele>72.599998474121</ele>
        <time>2017-06-01T08:25:22.000Z</time>
      </trkpt>
      <trkpt lat="43.46681" lon="6.78676">
        <ele>73</ele>
        <time>2017-06-01T08:25:25.000Z</time>
      </trkpt>
      <trkpt lat="43.46678" lon="6.7869">
        <ele>73</ele>
        <time>2017-06-01T08:25:27.000Z</time>
      </trkpt>
      <trkpt lat="43.46675" lon="6.78704">
        <ele>73</ele>
        <time>2017-06-01T08:25:29.000Z</time>
      </trkpt>
      <trkpt lat="43.46665" lon="6.78769">
        <ele>74</ele>
        <time>2017-06-01T08:25:39.000Z</time>
      </trkpt>
      <trkpt lat="43.46659" lon="6.78823">
        <ele>74.800003051758</ele>
        <time>2017-06-01T08:25:48.000Z</time>
      </trkpt>
      <trkpt lat="43.4666" lon="6.78845">
        <ele>75</ele>
        <time>2017-06-01T08:25:52.000Z</time>
      </trkpt>
      <trkpt lat="43.46661" lon="6.78851">
        <ele>75</ele>
        <time>2017-06-01T08:25:53.000Z</time>
      </trkpt>
      <trkpt lat="43.4666" lon="6.78857">
        <ele>75</ele>
        <time>2017-06-01T08:25:54.000Z</time>
      </trkpt>
      <trkpt lat="43.4666" lon="6.78863">
        <ele>74.800003051758</ele>
        <time>2017-06-01T08:25:55.000Z</time>
      </trkpt>
      <trkpt lat="43.46661" lon="6.78887">
        <ele>74.400001525879</ele>
        <time>2017-06-01T08:25:59.000Z</time>
      </trkpt>
      <trkpt lat="43.46664" lon="6.78906">
        <ele>74.199996948242</ele>
        <time>2017-06-01T08:26:02.000Z</time>
      </trkpt>
      <trkpt lat="43.46665" lon="6.78916">
        <ele>73.599998474121</ele>
        <time>2017-06-01T08:26:04.000Z</time>
      </trkpt>
      <trkpt lat="43.46666" lon="6.78928">
        <ele>73.199996948242</ele>
        <time>2017-06-01T08:26:06.000Z</time>
      </trkpt>
      <trkpt lat="43.46668" lon="6.78934">
        <ele>73</ele>
        <time>2017-06-01T08:26:07.000Z</time>
      </trkpt>
      <trkpt lat="43.46671" lon="6.78945">
        <ele>72.400001525879</ele>
        <time>2017-06-01T08:26:09.000Z</time>
      </trkpt>
      <trkpt lat="43.46676" lon="6.78956">
        <ele>72.199996948242</ele>
        <time>2017-06-01T08:26:11.000Z</time>
      </trkpt>
      <trkpt lat="43.46682" lon="6.78967">
        <ele>72</ele>
        <time>2017-06-01T08:26:13.000Z</time>
      </trkpt>
      <trkpt lat="43.46693" lon="6.7899">
        <ele>71.599998474121</ele>
        <time>2017-06-01T08:26:17.000Z</time>
      </trkpt>
      <trkpt lat="43.46703" lon="6.79007">
        <ele>71.400001525879</ele>
        <time>2017-06-01T08:26:20.000Z</time>
      </trkpt>
      <trkpt lat="43.46707" lon="6.79012">
        <ele>71.199996948242</ele>
        <time>2017-06-01T08:26:21.000Z</time>
      </trkpt>
      <trkpt lat="43.46723" lon="6.79031">
        <ele>70.400001525879</ele>
        <time>2017-06-01T08:26:25.000Z</time>
      </trkpt>
      <trkpt lat="43.46726" lon="6.79037">
        <ele>70.199996948242</ele>
        <time>2017-06-01T08:26:26.000Z</time>
      </trkpt>
      <trkpt lat="43.4673" lon="6.79043">
        <ele>70.199996948242</ele>
        <time>2017-06-01T08:26:27.000Z</time>
      </trkpt>
      <trkpt lat="43.46746" lon="6.79081">
        <ele>69.800003051758</ele>
        <time>2017-06-01T08:26:33.000Z</time>
      </trkpt>
      <trkpt lat="43.46756" lon="6.79106">
        <ele>70.400001525879</ele>
        <time>2017-06-01T08:26:37.000Z</time>
      </trkpt>
      <trkpt lat="43.46759" lon="6.79125">
        <ele>70.400001525879</ele>
        <time>2017-06-01T08:26:40.000Z</time>
      </trkpt>
      <trkpt lat="43.46762" lon="6.79138">
        <ele>70.599998474121</ele>
        <time>2017-06-01T08:26:42.000Z</time>
      </trkpt>
      <trkpt lat="43.46766" lon="6.79155">
        <ele>70.400001525879</ele>
        <time>2017-06-01T08:26:45.000Z</time>
      </trkpt>
      <trkpt lat="43.46768" lon="6.7916">
        <ele>70.400001525879</ele>
        <time>2017-06-01T08:26:46.000Z</time>
      </trkpt>
      <trkpt lat="43.46776" lon="6.79174">
        <ele>70.800003051758</ele>
        <time>2017-06-01T08:26:49.000Z</time>
      </trkpt>
      <trkpt lat="43.46782" lon="6.79183">
        <ele>71</ele>
        <time>2017-06-01T08:26:51.000Z</time>
      </trkpt>
      <trkpt lat="43.4679" lon="6.79196">
        <ele>71.400001525879</ele>
        <time>2017-06-01T08:26:54.000Z</time>
      </trkpt>
      <trkpt lat="43.46793" lon="6.79201">
        <ele>71.400001525879</ele>
        <time>2017-06-01T08:26:55.000Z</time>
      </trkpt>
      <trkpt lat="43.46819" lon="6.79249">
        <ele>72</ele>
        <time>2017-06-01T08:27:05.000Z</time>
      </trkpt>
      <trkpt lat="43.46829" lon="6.7926">
        <ele>72</ele>
        <time>2017-06-01T08:27:08.000Z</time>
      </trkpt>
      <trkpt lat="43.46841" lon="6.79267">
        <ele>72.199996948242</ele>
        <time>2017-06-01T08:27:11.000Z</time>
      </trkpt>
      <trkpt lat="43.46849" lon="6.7927">
        <ele>72.400001525879</ele>
        <time>2017-06-01T08:27:13.000Z</time>
      </trkpt>
      <trkpt lat="43.46853" lon="6.79269">
        <ele>72.599998474121</ele>
        <time>2017-06-01T08:27:14.000Z</time>
      </trkpt>
      <trkpt lat="43.46865" lon="6.79268">
        <ele>72.800003051758</ele>
        <time>2017-06-01T08:27:17.000Z</time>
      </trkpt>
      <trkpt lat="43.46883" lon="6.79263">
        <ele>72.800003051758</ele>
        <time>2017-06-01T08:27:22.000Z</time>
      </trkpt>
      <trkpt lat="43.46901" lon="6.7926">
        <ele>73.599998474121</ele>
        <time>2017-06-01T08:27:27.000Z</time>
      </trkpt>
      <trkpt lat="43.46912" lon="6.79256">
        <ele>73.599998474121</ele>
        <time>2017-06-01T08:27:30.000Z</time>
      </trkpt>
      <trkpt lat="43.46941" lon="6.79245">
        <ele>74</ele>
        <time>2017-06-01T08:27:38.000Z</time>
      </trkpt>
      <trkpt lat="43.46953" lon="6.79243">
        <ele>74.599998474121</ele>
        <time>2017-06-01T08:27:41.000Z</time>
      </trkpt>
      <trkpt lat="43.46956" lon="6.79246">
        <ele>74.599998474121</ele>
        <time>2017-06-01T08:27:42.000Z</time>
      </trkpt>
      <trkpt lat="43.46959" lon="6.79262">
        <ele>74.800003051758</ele>
        <time>2017-06-01T08:27:45.000Z</time>
      </trkpt>
      <trkpt lat="43.46953" lon="6.79276">
        <ele>75.199996948242</ele>
        <time>2017-06-01T08:27:48.000Z</time>
      </trkpt>
      <trkpt lat="43.46946" lon="6.79288">
        <ele>75.599998474121</ele>
        <time>2017-06-01T08:27:51.000Z</time>
      </trkpt>
      <trkpt lat="43.46944" lon="6.79292">
        <ele>75.599998474121</ele>
        <time>2017-06-01T08:27:52.000Z</time>
      </trkpt>
      <trkpt lat="43.46931" lon="6.79317">
        <ele>75.800003051758</ele>
        <time>2017-06-01T08:27:58.000Z</time>
      </trkpt>
      <trkpt lat="43.46921" lon="6.79346">
        <ele>76.400001525879</ele>
        <time>2017-06-01T08:28:05.000Z</time>
      </trkpt>
      <trkpt lat="43.46922" lon="6.7935">
        <ele>76.400001525879</ele>
        <time>2017-06-01T08:28:06.000Z</time>
      </trkpt>
      <trkpt lat="43.46931" lon="6.79363">
        <ele>76.400001525879</ele>
        <time>2017-06-01T08:28:10.000Z</time>
      </trkpt>
      <trkpt lat="43.46935" lon="6.79369">
        <ele>76.800003051758</ele>
        <time>2017-06-01T08:28:12.000Z</time>
      </trkpt>
      <trkpt lat="43.46936" lon="6.79374">
        <ele>76.800003051758</ele>
        <time>2017-06-01T08:28:13.000Z</time>
      </trkpt>
      <trkpt lat="43.46936" lon="6.79378">
        <ele>76.800003051758</ele>
        <time>2017-06-01T08:28:14.000Z</time>
      </trkpt>
      <trkpt lat="43.46932" lon="6.79392">
        <ele>77</ele>
        <time>2017-06-01T08:28:17.000Z</time>
      </trkpt>
      <trkpt lat="43.46927" lon="6.79404">
        <ele>77</ele>
        <time>2017-06-01T08:28:20.000Z</time>
      </trkpt>
      <trkpt lat="43.46918" lon="6.7944">
        <ele>77.800003051758</ele>
        <time>2017-06-01T08:28:28.000Z</time>
      </trkpt>
      <trkpt lat="43.46918" lon="6.79445">
        <ele>78</ele>
        <time>2017-06-01T08:28:29.000Z</time>
      </trkpt>
      <trkpt lat="43.46914" lon="6.7948">
        <ele>78.400001525879</ele>
        <time>2017-06-01T08:28:37.000Z</time>
      </trkpt>
      <trkpt lat="43.46912" lon="6.79501">
        <ele>78.599998474121</ele>
        <time>2017-06-01T08:28:43.000Z</time>
      </trkpt>
      <trkpt lat="43.46919" lon="6.79503">
        <ele>78.800003051758</ele>
        <time>2017-06-01T08:30:22.000Z</time>
      </trkpt>
      <trkpt lat="43.46928" lon="6.795">
        <ele>79.199996948242</ele>
        <time>2017-06-01T08:30:27.000Z</time>
      </trkpt>
      <trkpt lat="43.46932" lon="6.79497">
        <ele>79.199996948242</ele>
        <time>2017-06-01T08:30:29.000Z</time>
      </trkpt>
      <trkpt lat="43.46948" lon="6.79489">
        <ele>79.800003051758</ele>
        <time>2017-06-01T08:30:36.000Z</time>
      </trkpt>
      <trkpt lat="43.46952" lon="6.79487">
        <ele>80.199996948242</ele>
        <time>2017-06-01T08:30:38.000Z</time>
      </trkpt>
      <trkpt lat="43.46961" lon="6.79483">
        <ele>80.800003051758</ele>
        <time>2017-06-01T08:30:42.000Z</time>
      </trkpt>
      <trkpt lat="43.46974" lon="6.79475">
        <ele>81.400001525879</ele>
        <time>2017-06-01T08:30:48.000Z</time>
      </trkpt>
      <trkpt lat="43.46976" lon="6.79475">
        <ele>81.599998474121</ele>
        <time>2017-06-01T08:30:49.000Z</time>
      </trkpt>
      <trkpt lat="43.46986" lon="6.79468">
        <ele>82.599998474121</ele>
        <time>2017-06-01T08:30:54.000Z</time>
      </trkpt>
      <trkpt lat="43.46993" lon="6.79465">
        <ele>83</ele>
        <time>2017-06-01T08:30:57.000Z</time>
      </trkpt>
      <trkpt lat="43.47007" lon="6.79462">
        <ele>83.800003051758</ele>
        <time>2017-06-01T08:31:03.000Z</time>
      </trkpt>
      <trkpt lat="43.47011" lon="6.79459">
        <ele>84</ele>
        <time>2017-06-01T08:31:05.000Z</time>
      </trkpt>
      <trkpt lat="43.47022" lon="6.79453">
        <ele>84.800003051758</ele>
        <time>2017-06-01T08:31:10.000Z</time>
      </trkpt>
      <trkpt lat="43.47029" lon="6.79451">
        <ele>85.199996948242</ele>
        <time>2017-06-01T08:31:13.000Z</time>
      </trkpt>
      <trkpt lat="43.47039" lon="6.79444">
        <ele>86</ele>
        <time>2017-06-01T08:31:18.000Z</time>
      </trkpt>
      <trkpt lat="43.4705" lon="6.79438">
        <ele>86.599998474121</ele>
        <time>2017-06-01T08:31:24.000Z</time>
      </trkpt>
      <trkpt lat="43.47054" lon="6.79433">
        <ele>87</ele>
        <time>2017-06-01T08:31:27.000Z</time>
      </trkpt>
      <trkpt lat="43.47061" lon="6.79429">
        <ele>87.599998474121</ele>
        <time>2017-06-01T08:31:31.000Z</time>
      </trkpt>
      <trkpt lat="43.47066" lon="6.79427">
        <ele>88.199996948242</ele>
        <time>2017-06-01T08:31:34.000Z</time>
      </trkpt>
      <trkpt lat="43.47072" lon="6.79431">
        <ele>88.400001525879</ele>
        <time>2017-06-01T08:31:37.000Z</time>
      </trkpt>
      <trkpt lat="43.47076" lon="6.79446">
        <ele>89</ele>
        <time>2017-06-01T08:31:42.000Z</time>
      </trkpt>
      <trkpt lat="43.47075" lon="6.79453">
        <ele>89.199996948242</ele>
        <time>2017-06-01T08:31:44.000Z</time>
      </trkpt>
      <trkpt lat="43.4707" lon="6.79469">
        <ele>89.800003051758</ele>
        <time>2017-06-01T08:31:49.000Z</time>
      </trkpt>
      <trkpt lat="43.47068" lon="6.79479">
        <ele>90.199996948242</ele>
        <time>2017-06-01T08:31:52.000Z</time>
      </trkpt>
      <trkpt lat="43.47064" lon="6.79495">
        <ele>91</ele>
        <time>2017-06-01T08:31:57.000Z</time>
      </trkpt>
      <trkpt lat="43.47061" lon="6.79504">
        <ele>91.199996948242</ele>
        <time>2017-06-01T08:32:00.000Z</time>
      </trkpt>
      <trkpt lat="43.47055" lon="6.79517">
        <ele>92.199996948242</ele>
        <time>2017-06-01T08:32:05.000Z</time>
      </trkpt>
      <trkpt lat="43.47053" lon="6.7952">
        <ele>92.199996948242</ele>
        <time>2017-06-01T08:32:06.000Z</time>
      </trkpt>
      <trkpt lat="43.47044" lon="6.79538">
        <ele>93.199996948242</ele>
        <time>2017-06-01T08:32:13.000Z</time>
      </trkpt>
      <trkpt lat="43.47042" lon="6.7954">
        <ele>93.599998474121</ele>
        <time>2017-06-01T08:32:14.000Z</time>
      </trkpt>
      <trkpt lat="43.4704" lon="6.79546">
        <ele>93.599998474121</ele>
        <time>2017-06-01T08:32:16.000Z</time>
      </trkpt>
      <trkpt lat="43.47037" lon="6.79561">
        <ele>94.400001525879</ele>
        <time>2017-06-01T08:32:21.000Z</time>
      </trkpt>
      <trkpt lat="43.47037" lon="6.79564">
        <ele>94.599998474121</ele>
        <time>2017-06-01T08:32:22.000Z</time>
      </trkpt>
      <trkpt lat="43.47041" lon="6.79575">
        <ele>94.800003051758</ele>
        <time>2017-06-01T08:32:26.000Z</time>
      </trkpt>
      <trkpt lat="43.47054" lon="6.79584">
        <ele>95.599998474121</ele>
        <time>2017-06-01T08:32:32.000Z</time>
      </trkpt>
      <trkpt lat="43.47056" lon="6.79585">
        <ele>95.800003051758</ele>
        <time>2017-06-01T08:32:33.000Z</time>
      </trkpt>
      <trkpt lat="43.47074" lon="6.79588">
        <ele>96.599998474121</ele>
        <time>2017-06-01T08:32:40.000Z</time>
      </trkpt>
      <trkpt lat="43.47076" lon="6.79589">
        <ele>96.800003051758</ele>
        <time>2017-06-01T08:32:41.000Z</time>
      </trkpt>
      <trkpt lat="43.47091" lon="6.79592">
        <ele>97.800003051758</ele>
        <time>2017-06-01T08:32:47.000Z</time>
      </trkpt>
      <trkpt lat="43.47096" lon="6.79593">
        <ele>97.800003051758</ele>
        <time>2017-06-01T08:32:49.000Z</time>
      </trkpt>
      <trkpt lat="43.47107" lon="6.79594">
        <ele>98.800003051758</ele>
        <time>2017-06-01T08:32:54.000Z</time>
      </trkpt>
      <trkpt lat="43.47114" lon="6.79592">
        <ele>99.400001525879</ele>
        <time>2017-06-01T08:32:57.000Z</time>
      </trkpt>
      <trkpt lat="43.47126" lon="6.79584">
        <ele>99.800003051758</ele>
        <time>2017-06-01T08:33:03.000Z</time>
      </trkpt>
      <trkpt lat="43.47129" lon="6.79582">
        <ele>100</ele>
        <time>2017-06-01T08:33:04.000Z</time>
      </trkpt>
      <trkpt lat="43.47142" lon="6.79568">
        <ele>101</ele>
        <time>2017-06-01T08:33:11.000Z</time>
      </trkpt>
      <trkpt lat="43.4715" lon="6.79549">
        <ele>102</ele>
        <time>2017-06-01T08:33:18.000Z</time>
      </trkpt>
      <trkpt lat="43.47155" lon="6.79525">
        <ele>103</ele>
        <time>2017-06-01T08:33:26.000Z</time>
      </trkpt>
      <trkpt lat="43.47155" lon="6.79522">
        <ele>103.19999694824</ele>
        <time>2017-06-01T08:33:27.000Z</time>
      </trkpt>
      <trkpt lat="43.47159" lon="6.79501">
        <ele>104</ele>
        <time>2017-06-01T08:33:34.000Z</time>
      </trkpt>
      <trkpt lat="43.47159" lon="6.79498">
        <ele>104.19999694824</ele>
        <time>2017-06-01T08:33:35.000Z</time>
      </trkpt>
      <trkpt lat="43.47161" lon="6.79483">
        <ele>105.19999694824</ele>
        <time>2017-06-01T08:33:40.000Z</time>
      </trkpt>
      <trkpt lat="43.47161" lon="6.7948">
        <ele>105.19999694824</ele>
        <time>2017-06-01T08:33:41.000Z</time>
      </trkpt>
      <trkpt lat="43.47166" lon="6.79452">
        <ele>106.19999694824</ele>
        <time>2017-06-01T08:33:50.000Z</time>
      </trkpt>
      <trkpt lat="43.47169" lon="6.7943">
        <ele>107.40000152588</ele>
        <time>2017-06-01T08:33:57.000Z</time>
      </trkpt>
      <trkpt lat="43.47171" lon="6.7942">
        <ele>107.80000305176</ele>
        <time>2017-06-01T08:34:00.000Z</time>
      </trkpt>
      <trkpt lat="43.47174" lon="6.79409">
        <ele>108.40000152588</ele>
        <time>2017-06-01T08:34:04.000Z</time>
      </trkpt>
      <trkpt lat="43.47176" lon="6.79398">
        <ele>109</ele>
        <time>2017-06-01T08:34:08.000Z</time>
      </trkpt>
      <trkpt lat="43.4718" lon="6.79384">
        <ele>109.59999847412</ele>
        <time>2017-06-01T08:34:13.000Z</time>
      </trkpt>
      <trkpt lat="43.47184" lon="6.7937">
        <ele>110.40000152588</ele>
        <time>2017-06-01T08:34:18.000Z</time>
      </trkpt>
      <trkpt lat="43.47186" lon="6.79361">
        <ele>110.59999847412</ele>
        <time>2017-06-01T08:34:21.000Z</time>
      </trkpt>
      <trkpt lat="43.47192" lon="6.7934">
        <ele>111.80000305176</ele>
        <time>2017-06-01T08:34:28.000Z</time>
      </trkpt>
      <trkpt lat="43.47204" lon="6.79322">
        <ele>112.80000305176</ele>
        <time>2017-06-01T08:34:36.000Z</time>
      </trkpt>
      <trkpt lat="43.47206" lon="6.79321">
        <ele>112.80000305176</ele>
        <time>2017-06-01T08:34:37.000Z</time>
      </trkpt>
      <trkpt lat="43.47217" lon="6.79313">
        <ele>113.40000152588</ele>
        <time>2017-06-01T08:34:42.000Z</time>
      </trkpt>
      <trkpt lat="43.47223" lon="6.7931">
        <ele>113.80000305176</ele>
        <time>2017-06-01T08:34:45.000Z</time>
      </trkpt>
      <trkpt lat="43.47228" lon="6.79305">
        <ele>114.19999694824</ele>
        <time>2017-06-01T08:34:48.000Z</time>
      </trkpt>
      <trkpt lat="43.47236" lon="6.793">
        <ele>115</ele>
        <time>2017-06-01T08:34:52.000Z</time>
      </trkpt>
      <trkpt lat="43.47251" lon="6.79293">
        <ele>115.40000152588</ele>
        <time>2017-06-01T08:34:59.000Z</time>
      </trkpt>
      <trkpt lat="43.47265" lon="6.79294">
        <ele>115.80000305176</ele>
        <time>2017-06-01T08:35:05.000Z</time>
      </trkpt>
      <trkpt lat="43.47268" lon="6.79294">
        <ele>116</ele>
        <time>2017-06-01T08:35:06.000Z</time>
      </trkpt>
      <trkpt lat="43.47277" lon="6.79297">
        <ele>112.80000305176</ele>
        <time>2017-06-01T08:35:10.000Z</time>
      </trkpt>
      <trkpt lat="43.47278" lon="6.79298">
        <ele>117</ele>
        <time>2017-06-01T08:35:11.000Z</time>
      </trkpt>
      <trkpt lat="43.4728" lon="6.79298">
        <ele>118.19999694824</ele>
        <time>2017-06-01T08:35:12.000Z</time>
      </trkpt>
      <trkpt lat="43.47282" lon="6.79299">
        <ele>121.19999694824</ele>
        <time>2017-06-01T08:35:13.000Z</time>
      </trkpt>
      <trkpt lat="43.47284" lon="6.79299">
        <ele>117.19999694824</ele>
        <time>2017-06-01T08:35:14.000Z</time>
      </trkpt>
      <trkpt lat="43.47292" lon="6.79306">
        <ele>116.80000305176</ele>
        <time>2017-06-01T08:35:18.000Z</time>
      </trkpt>
      <trkpt lat="43.47301" lon="6.79319">
        <ele>117.19999694824</ele>
        <time>2017-06-01T08:35:23.000Z</time>
      </trkpt>
      <trkpt lat="43.47311" lon="6.79349">
        <ele>117.80000305176</ele>
        <time>2017-06-01T08:35:30.000Z</time>
      </trkpt>
      <trkpt lat="43.47309" lon="6.79375">
        <ele>118.40000152588</ele>
        <time>2017-06-01T08:35:35.000Z</time>
      </trkpt>
      <trkpt lat="43.47308" lon="6.79385">
        <ele>118.59999847412</ele>
        <time>2017-06-01T08:35:37.000Z</time>
      </trkpt>
      <trkpt lat="43.47303" lon="6.79428">
        <ele>119.40000152588</ele>
        <time>2017-06-01T08:35:45.000Z</time>
      </trkpt>
      <trkpt lat="43.47303" lon="6.79439">
        <ele>119.80000305176</ele>
        <time>2017-06-01T08:35:47.000Z</time>
      </trkpt>
      <trkpt lat="43.47308" lon="6.7948">
        <ele>120.40000152588</ele>
        <time>2017-06-01T08:35:55.000Z</time>
      </trkpt>
      <trkpt lat="43.4732" lon="6.79513">
        <ele>121.19999694824</ele>
        <time>2017-06-01T08:36:02.000Z</time>
      </trkpt>
      <trkpt lat="43.47322" lon="6.79523">
        <ele>121.40000152588</ele>
        <time>2017-06-01T08:36:04.000Z</time>
      </trkpt>
      <trkpt lat="43.4733" lon="6.79574">
        <ele>122.40000152588</ele>
        <time>2017-06-01T08:36:14.000Z</time>
      </trkpt>
      <trkpt lat="43.47331" lon="6.79584">
        <ele>122.59999847412</ele>
        <time>2017-06-01T08:36:16.000Z</time>
      </trkpt>
      <trkpt lat="43.47338" lon="6.79605">
        <ele>123.19999694824</ele>
        <time>2017-06-01T08:36:21.000Z</time>
      </trkpt>
      <trkpt lat="43.47352" lon="6.7962">
        <ele>123.59999847412</ele>
        <time>2017-06-01T08:36:26.000Z</time>
      </trkpt>
      <trkpt lat="43.47355" lon="6.79623">
        <ele>123.80000305176</ele>
        <time>2017-06-01T08:36:27.000Z</time>
      </trkpt>
      <trkpt lat="43.47374" lon="6.79633">
        <ele>124.40000152588</ele>
        <time>2017-06-01T08:36:33.000Z</time>
      </trkpt>
      <trkpt lat="43.47389" lon="6.79637">
        <ele>124.59999847412</ele>
        <time>2017-06-01T08:36:38.000Z</time>
      </trkpt>
      <trkpt lat="43.47392" lon="6.79638">
        <ele>124.59999847412</ele>
        <time>2017-06-01T08:36:39.000Z</time>
      </trkpt>
      <trkpt lat="43.47417" lon="6.79638">
        <ele>125.59999847412</ele>
        <time>2017-06-01T08:36:47.000Z</time>
      </trkpt>
      <trkpt lat="43.47427" lon="6.79636">
        <ele>125.80000305176</ele>
        <time>2017-06-01T08:36:50.000Z</time>
      </trkpt>
      <trkpt lat="43.47435" lon="6.79633">
        <ele>126.19999694824</ele>
        <time>2017-06-01T08:36:53.000Z</time>
      </trkpt>
      <trkpt lat="43.47452" lon="6.79625">
        <ele>126.80000305176</ele>
        <time>2017-06-01T08:36:59.000Z</time>
      </trkpt>
      <trkpt lat="43.4746" lon="6.79619">
        <ele>126.80000305176</ele>
        <time>2017-06-01T08:37:02.000Z</time>
      </trkpt>
      <trkpt lat="43.47473" lon="6.79602">
        <ele>127.59999847412</ele>
        <time>2017-06-01T08:37:08.000Z</time>
      </trkpt>
      <trkpt lat="43.47479" lon="6.79592">
        <ele>127.80000305176</ele>
        <time>2017-06-01T08:37:11.000Z</time>
      </trkpt>
      <trkpt lat="43.47483" lon="6.79584">
        <ele>128</ele>
        <time>2017-06-01T08:37:14.000Z</time>
      </trkpt>
      <trkpt lat="43.47495" lon="6.79553">
        <ele>128.80000305176</ele>
        <time>2017-06-01T08:37:22.000Z</time>
      </trkpt>
      <trkpt lat="43.47497" lon="6.7955">
        <ele>129</ele>
        <time>2017-06-01T08:37:23.000Z</time>
      </trkpt>
      <trkpt lat="43.47504" lon="6.79534">
        <ele>129.19999694824</ele>
        <time>2017-06-01T08:37:28.000Z</time>
      </trkpt>
      <trkpt lat="43.47516" lon="6.79516">
        <ele>130</ele>
        <time>2017-06-01T08:37:35.000Z</time>
      </trkpt>
      <trkpt lat="43.47533" lon="6.795">
        <ele>130.60000610352</ele>
        <time>2017-06-01T08:37:42.000Z</time>
      </trkpt>
      <trkpt lat="43.47552" lon="6.79485">
        <ele>131</ele>
        <time>2017-06-01T08:37:49.000Z</time>
      </trkpt>
      <trkpt lat="43.47572" lon="6.79466">
        <ele>131.60000610352</ele>
        <time>2017-06-01T08:37:57.000Z</time>
      </trkpt>
      <trkpt lat="43.47593" lon="6.79447">
        <ele>132.19999694824</ele>
        <time>2017-06-01T08:38:06.000Z</time>
      </trkpt>
      <trkpt lat="43.47611" lon="6.79434">
        <ele>133</ele>
        <time>2017-06-01T08:38:13.000Z</time>
      </trkpt>
      <trkpt lat="43.47624" lon="6.79425">
        <ele>133.19999694824</ele>
        <time>2017-06-01T08:38:18.000Z</time>
      </trkpt>
      <trkpt lat="43.47631" lon="6.79419">
        <ele>133.39999389648</ele>
        <time>2017-06-01T08:38:21.000Z</time>
      </trkpt>
      <trkpt lat="43.47653" lon="6.794">
        <ele>134.39999389648</ele>
        <time>2017-06-01T08:38:30.000Z</time>
      </trkpt>
      <trkpt lat="43.47655" lon="6.79398">
        <ele>134.39999389648</ele>
        <time>2017-06-01T08:38:31.000Z</time>
      </trkpt>
      <trkpt lat="43.47677" lon="6.79387">
        <ele>135</ele>
        <time>2017-06-01T08:38:39.000Z</time>
      </trkpt>
      <trkpt lat="43.4769" lon="6.79389">
        <ele>135.39999389648</ele>
        <time>2017-06-01T08:38:43.000Z</time>
      </trkpt>
      <trkpt lat="43.47696" lon="6.79392">
        <ele>135.60000610352</ele>
        <time>2017-06-01T08:38:45.000Z</time>
      </trkpt>
      <trkpt lat="43.4772" lon="6.79408">
        <ele>136.39999389648</ele>
        <time>2017-06-01T08:38:53.000Z</time>
      </trkpt>
      <trkpt lat="43.47722" lon="6.7941">
        <ele>136.60000610352</ele>
        <time>2017-06-01T08:38:54.000Z</time>
      </trkpt>
      <trkpt lat="43.47734" lon="6.79411">
        <ele>136.60000610352</ele>
        <time>2017-06-01T08:38:58.000Z</time>
      </trkpt>
      <trkpt lat="43.47764" lon="6.79406">
        <ele>137.39999389648</ele>
        <time>2017-06-01T08:39:07.000Z</time>
      </trkpt>
      <trkpt lat="43.4778" lon="6.79406">
        <ele>137.80000305176</ele>
        <time>2017-06-01T08:39:12.000Z</time>
      </trkpt>
      <trkpt lat="43.47798" lon="6.79405">
        <ele>137.60000610352</ele>
        <time>2017-06-01T08:39:17.000Z</time>
      </trkpt>
      <trkpt lat="43.47802" lon="6.79402">
        <ele>137.80000305176</ele>
        <time>2017-06-01T08:39:18.000Z</time>
      </trkpt>
      <trkpt lat="43.47814" lon="6.79392">
        <ele>137.60000610352</ele>
        <time>2017-06-01T08:39:21.000Z</time>
      </trkpt>
      <trkpt lat="43.47819" lon="6.79391">
        <ele>137.60000610352</ele>
        <time>2017-06-01T08:39:22.000Z</time>
      </trkpt>
      <trkpt lat="43.47828" lon="6.79387">
        <ele>137.19999694824</ele>
        <time>2017-06-01T08:39:24.000Z</time>
      </trkpt>
      <trkpt lat="43.47846" lon="6.79377">
        <ele>137.19999694824</ele>
        <time>2017-06-01T08:39:28.000Z</time>
      </trkpt>
      <trkpt lat="43.47855" lon="6.79373">
        <ele>137</ele>
        <time>2017-06-01T08:39:30.000Z</time>
      </trkpt>
      <trkpt lat="43.4786" lon="6.7937">
        <ele>136.80000305176</ele>
        <time>2017-06-01T08:39:31.000Z</time>
      </trkpt>
      <trkpt lat="43.4787" lon="6.79366">
        <ele>136.80000305176</ele>
        <time>2017-06-01T08:39:33.000Z</time>
      </trkpt>
      <trkpt lat="43.47875" lon="6.79364">
        <ele>137</ele>
        <time>2017-06-01T08:39:34.000Z</time>
      </trkpt>
      <trkpt lat="43.47895" lon="6.79359">
        <ele>136.60000610352</ele>
        <time>2017-06-01T08:39:38.000Z</time>
      </trkpt>
      <trkpt lat="43.47915" lon="6.7935">
        <ele>137.19999694824</ele>
        <time>2017-06-01T08:39:43.000Z</time>
      </trkpt>
      <trkpt lat="43.47928" lon="6.79343">
        <ele>137.80000305176</ele>
        <time>2017-06-01T08:39:48.000Z</time>
      </trkpt>
      <trkpt lat="43.47942" lon="6.79336">
        <ele>138.60000610352</ele>
        <time>2017-06-01T08:39:55.000Z</time>
      </trkpt>
      <trkpt lat="43.47944" lon="6.79335">
        <ele>139</ele>
        <time>2017-06-01T08:39:56.000Z</time>
      </trkpt>
      <trkpt lat="43.47954" lon="6.79331">
        <ele>139.60000610352</ele>
        <time>2017-06-01T08:40:01.000Z</time>
      </trkpt>
      <trkpt lat="43.47958" lon="6.79329">
        <ele>140</ele>
        <time>2017-06-01T08:40:03.000Z</time>
      </trkpt>
      <trkpt lat="43.4796" lon="6.79328">
        <ele>139.80000305176</ele>
        <time>2017-06-01T08:40:04.000Z</time>
      </trkpt>
      <trkpt lat="43.47973" lon="6.79322">
        <ele>141</ele>
        <time>2017-06-01T08:40:11.000Z</time>
      </trkpt>
      <trkpt lat="43.47984" lon="6.79317">
        <ele>141.39999389648</ele>
        <time>2017-06-01T08:40:17.000Z</time>
      </trkpt>
      <trkpt lat="43.47991" lon="6.79316">
        <ele>142</ele>
        <time>2017-06-01T08:40:21.000Z</time>
      </trkpt>
      <trkpt lat="43.47995" lon="6.79317">
        <ele>142.19999694824</ele>
        <time>2017-06-01T08:40:23.000Z</time>
      </trkpt>
      <trkpt lat="43.48008" lon="6.7932">
        <ele>143.19999694824</ele>
        <time>2017-06-01T08:40:30.000Z</time>
      </trkpt>
      <trkpt lat="43.48009" lon="6.7932">
        <ele>143.19999694824</ele>
        <time>2017-06-01T08:40:31.000Z</time>
      </trkpt>
      <trkpt lat="43.4802" lon="6.7932">
        <ele>143.80000305176</ele>
        <time>2017-06-01T08:40:37.000Z</time>
      </trkpt>
      <trkpt lat="43.48028" lon="6.79319">
        <ele>144.19999694824</ele>
        <time>2017-06-01T08:40:41.000Z</time>
      </trkpt>
      <trkpt lat="43.48034" lon="6.79318">
        <ele>144.39999389648</ele>
        <time>2017-06-01T08:40:44.000Z</time>
      </trkpt>
      <trkpt lat="43.48046" lon="6.79315">
        <ele>145.39999389648</ele>
        <time>2017-06-01T08:40:51.000Z</time>
      </trkpt>
      <trkpt lat="43.4805" lon="6.79313">
        <ele>145.80000305176</ele>
        <time>2017-06-01T08:40:53.000Z</time>
      </trkpt>
      <trkpt lat="43.48059" lon="6.79306">
        <ele>146.39999389648</ele>
        <time>2017-06-01T08:40:58.000Z</time>
      </trkpt>
      <trkpt lat="43.48061" lon="6.79304">
        <ele>146.60000610352</ele>
        <time>2017-06-01T08:40:59.000Z</time>
      </trkpt>
      <trkpt lat="43.48069" lon="6.79293">
        <ele>147.19999694824</ele>
        <time>2017-06-01T08:41:05.000Z</time>
      </trkpt>
      <trkpt lat="43.48071" lon="6.79292">
        <ele>147.19999694824</ele>
        <time>2017-06-01T08:41:06.000Z</time>
      </trkpt>
      <trkpt lat="43.48075" lon="6.79293">
        <ele>147.39999389648</ele>
        <time>2017-06-01T08:41:08.000Z</time>
      </trkpt>
      <trkpt lat="43.48077" lon="6.79294">
        <ele>147.60000610352</ele>
        <time>2017-06-01T08:41:09.000Z</time>
      </trkpt>
      <trkpt lat="43.4808" lon="6.79299">
        <ele>147.80000305176</ele>
        <time>2017-06-01T08:41:11.000Z</time>
      </trkpt>
      <trkpt lat="43.48087" lon="6.79307">
        <ele>148.39999389648</ele>
        <time>2017-06-01T08:41:16.000Z</time>
      </trkpt>
      <trkpt lat="43.48088" lon="6.79308">
        <ele>148.39999389648</ele>
        <time>2017-06-01T08:41:17.000Z</time>
      </trkpt>
      <trkpt lat="43.48099" lon="6.79316">
        <ele>149.19999694824</ele>
        <time>2017-06-01T08:41:23.000Z</time>
      </trkpt>
      <trkpt lat="43.48103" lon="6.79318">
        <ele>149.60000610352</ele>
        <time>2017-06-01T08:41:25.000Z</time>
      </trkpt>
      <trkpt lat="43.48113" lon="6.79318">
        <ele>150</ele>
        <time>2017-06-01T08:41:30.000Z</time>
      </trkpt>
      <trkpt lat="43.48123" lon="6.79309">
        <ele>150.60000610352</ele>
        <time>2017-06-01T08:41:35.000Z</time>
      </trkpt>
      <trkpt lat="43.48134" lon="6.79301">
        <ele>151.39999389648</ele>
        <time>2017-06-01T08:41:40.000Z</time>
      </trkpt>
      <trkpt lat="43.48137" lon="6.79301">
        <ele>151.80000305176</ele>
        <time>2017-06-01T08:41:41.000Z</time>
      </trkpt>
      <trkpt lat="43.48147" lon="6.79306">
        <ele>152.19999694824</ele>
        <time>2017-06-01T08:41:45.000Z</time>
      </trkpt>
      <trkpt lat="43.48158" lon="6.79314">
        <ele>152.80000305176</ele>
        <time>2017-06-01T08:41:50.000Z</time>
      </trkpt>
      <trkpt lat="43.48163" lon="6.79316">
        <ele>153.19999694824</ele>
        <time>2017-06-01T08:41:52.000Z</time>
      </trkpt>
      <trkpt lat="43.48175" lon="6.79321">
        <ele>153.80000305176</ele>
        <time>2017-06-01T08:41:57.000Z</time>
      </trkpt>
      <trkpt lat="43.48183" lon="6.79323">
        <ele>154.19999694824</ele>
        <time>2017-06-01T08:42:00.000Z</time>
      </trkpt>
      <trkpt lat="43.48195" lon="6.79329">
        <ele>155</ele>
        <time>2017-06-01T08:42:05.000Z</time>
      </trkpt>
      <trkpt lat="43.48202" lon="6.79334">
        <ele>155.39999389648</ele>
        <time>2017-06-01T08:42:08.000Z</time>
      </trkpt>
      <trkpt lat="43.48211" lon="6.79339">
        <ele>156.19999694824</ele>
        <time>2017-06-01T08:42:12.000Z</time>
      </trkpt>
      <trkpt lat="43.48219" lon="6.79341">
        <ele>156.60000610352</ele>
        <time>2017-06-01T08:42:15.000Z</time>
      </trkpt>
      <trkpt lat="43.48229" lon="6.79339">
        <ele>157.19999694824</ele>
        <time>2017-06-01T08:42:19.000Z</time>
      </trkpt>
      <trkpt lat="43.48234" lon="6.79336">
        <ele>157.39999389648</ele>
        <time>2017-06-01T08:42:21.000Z</time>
      </trkpt>
      <trkpt lat="43.48248" lon="6.79329">
        <ele>158.39999389648</ele>
        <time>2017-06-01T08:42:27.000Z</time>
      </trkpt>
      <trkpt lat="43.48253" lon="6.79327">
        <ele>158.80000305176</ele>
        <time>2017-06-01T08:42:29.000Z</time>
      </trkpt>
      <trkpt lat="43.48265" lon="6.79324">
        <ele>159.60000610352</ele>
        <time>2017-06-01T08:42:34.000Z</time>
      </trkpt>
      <trkpt lat="43.48271" lon="6.79321">
        <ele>160.19999694824</ele>
        <time>2017-06-01T08:42:37.000Z</time>
      </trkpt>
      <trkpt lat="43.48277" lon="6.79316">
        <ele>160.60000610352</ele>
        <time>2017-06-01T08:42:40.000Z</time>
      </trkpt>
      <trkpt lat="43.48283" lon="6.79308">
        <ele>161.39999389648</ele>
        <time>2017-06-01T08:42:44.000Z</time>
      </trkpt>
      <trkpt lat="43.48286" lon="6.79304">
        <ele>161.60000610352</ele>
        <time>2017-06-01T08:42:46.000Z</time>
      </trkpt>
      <trkpt lat="43.48294" lon="6.79303">
        <ele>161.80000305176</ele>
        <time>2017-06-01T08:42:49.000Z</time>
      </trkpt>
      <trkpt lat="43.48296" lon="6.79305">
        <ele>162</ele>
        <time>2017-06-01T08:42:50.000Z</time>
      </trkpt>
      <trkpt lat="43.48299" lon="6.79314">
        <ele>162.39999389648</ele>
        <time>2017-06-01T08:42:53.000Z</time>
      </trkpt>
      <trkpt lat="43.48299" lon="6.79317">
        <ele>162.60000610352</ele>
        <time>2017-06-01T08:42:54.000Z</time>
      </trkpt>
      <trkpt lat="43.48298" lon="6.7934">
        <ele>163.39999389648</ele>
        <time>2017-06-01T08:43:01.000Z</time>
      </trkpt>
      <trkpt lat="43.48297" lon="6.79346">
        <ele>163.60000610352</ele>
        <time>2017-06-01T08:43:03.000Z</time>
      </trkpt>
      <trkpt lat="43.48302" lon="6.79359">
        <ele>164.39999389648</ele>
        <time>2017-06-01T08:43:08.000Z</time>
      </trkpt>
      <trkpt lat="43.48308" lon="6.79365">
        <ele>164.80000305176</ele>
        <time>2017-06-01T08:43:11.000Z</time>
      </trkpt>
      <trkpt lat="43.48312" lon="6.79368">
        <ele>164.80000305176</ele>
        <time>2017-06-01T08:43:13.000Z</time>
      </trkpt>
      <trkpt lat="43.48325" lon="6.79381">
        <ele>165.80000305176</ele>
        <time>2017-06-01T08:43:20.000Z</time>
      </trkpt>
      <trkpt lat="43.48332" lon="6.79398">
        <ele>167</ele>
        <time>2017-06-01T08:43:27.000Z</time>
      </trkpt>
      <trkpt lat="43.48334" lon="6.79405">
        <ele>167.19999694824</ele>
        <time>2017-06-01T08:43:29.000Z</time>
      </trkpt>
      <trkpt lat="43.48338" lon="6.79425">
        <ele>168</ele>
        <time>2017-06-01T08:43:36.000Z</time>
      </trkpt>
      <trkpt lat="43.48339" lon="6.79427">
        <ele>168.19999694824</ele>
        <time>2017-06-01T08:43:37.000Z</time>
      </trkpt>
      <trkpt lat="43.48344" lon="6.79439">
        <ele>169</ele>
        <time>2017-06-01T08:43:42.000Z</time>
      </trkpt>
      <trkpt lat="43.48345" lon="6.79445">
        <ele>169.39999389648</ele>
        <time>2017-06-01T08:43:44.000Z</time>
      </trkpt>
      <trkpt lat="43.48338" lon="6.7946">
        <ele>170</ele>
        <time>2017-06-01T08:43:50.000Z</time>
      </trkpt>
      <trkpt lat="43.48336" lon="6.79461">
        <ele>170.19999694824</ele>
        <time>2017-06-01T08:43:51.000Z</time>
      </trkpt>
      <trkpt lat="43.48327" lon="6.7946">
        <ele>170.80000305176</ele>
        <time>2017-06-01T08:43:55.000Z</time>
      </trkpt>
      <trkpt lat="43.48318" lon="6.79454">
        <ele>171.19999694824</ele>
        <time>2017-06-01T08:43:59.000Z</time>
      </trkpt>
      <trkpt lat="43.48312" lon="6.79451">
        <ele>171.60000610352</ele>
        <time>2017-06-01T08:44:02.000Z</time>
      </trkpt>
      <trkpt lat="43.483" lon="6.79444">
        <ele>172.19999694824</ele>
        <time>2017-06-01T08:44:08.000Z</time>
      </trkpt>
      <trkpt lat="43.48298" lon="6.79443">
        <ele>172.39999389648</ele>
        <time>2017-06-01T08:44:09.000Z</time>
      </trkpt>
      <trkpt lat="43.4828" lon="6.7944">
        <ele>173.39999389648</ele>
        <time>2017-06-01T08:44:17.000Z</time>
      </trkpt>
      <trkpt lat="43.48264" lon="6.79441">
        <ele>174.60000610352</ele>
        <time>2017-06-01T08:44:24.000Z</time>
      </trkpt>
      <trkpt lat="43.48251" lon="6.79446">
        <ele>175.80000305176</ele>
        <time>2017-06-01T08:44:30.000Z</time>
      </trkpt>
      <trkpt lat="43.4824" lon="6.7945">
        <ele>176.19999694824</ele>
        <time>2017-06-01T08:44:36.000Z</time>
      </trkpt>
      <trkpt lat="43.48234" lon="6.79452">
        <ele>177</ele>
        <time>2017-06-01T08:44:39.000Z</time>
      </trkpt>
      <trkpt lat="43.48224" lon="6.79456">
        <ele>177.39999389648</ele>
        <time>2017-06-01T08:44:44.000Z</time>
      </trkpt>
      <trkpt lat="43.48213" lon="6.79461">
        <ele>178.19999694824</ele>
        <time>2017-06-01T08:44:50.000Z</time>
      </trkpt>
      <trkpt lat="43.48206" lon="6.79465">
        <ele>178.60000610352</ele>
        <time>2017-06-01T08:44:54.000Z</time>
      </trkpt>
      <trkpt lat="43.482" lon="6.79468">
        <ele>179.19999694824</ele>
        <time>2017-06-01T08:44:57.000Z</time>
      </trkpt>
      <trkpt lat="43.4819" lon="6.79477">
        <ele>179.80000305176</ele>
        <time>2017-06-01T08:45:03.000Z</time>
      </trkpt>
      <trkpt lat="43.48185" lon="6.79482">
        <ele>180.19999694824</ele>
        <time>2017-06-01T08:45:06.000Z</time>
      </trkpt>
      <trkpt lat="43.48174" lon="6.79492">
        <ele>181</ele>
        <time>2017-06-01T08:45:12.000Z</time>
      </trkpt>
      <trkpt lat="43.48172" lon="6.79493">
        <ele>181.19999694824</ele>
        <time>2017-06-01T08:45:13.000Z</time>
      </trkpt>
      <trkpt lat="43.4816" lon="6.79502">
        <ele>182.19999694824</ele>
        <time>2017-06-01T08:45:19.000Z</time>
      </trkpt>
      <trkpt lat="43.48158" lon="6.79504">
        <ele>182.39999389648</ele>
        <time>2017-06-01T08:45:20.000Z</time>
      </trkpt>
      <trkpt lat="43.48144" lon="6.79516">
        <ele>183.60000610352</ele>
        <time>2017-06-01T08:45:27.000Z</time>
      </trkpt>
      <trkpt lat="43.4814" lon="6.79519">
        <ele>183.80000305176</ele>
        <time>2017-06-01T08:45:29.000Z</time>
      </trkpt>
      <trkpt lat="43.48127" lon="6.79531">
        <ele>184.60000610352</ele>
        <time>2017-06-01T08:45:36.000Z</time>
      </trkpt>
      <trkpt lat="43.48123" lon="6.79534">
        <ele>184.80000305176</ele>
        <time>2017-06-01T08:45:38.000Z</time>
      </trkpt>
      <trkpt lat="43.48112" lon="6.79542">
        <ele>185.80000305176</ele>
        <time>2017-06-01T08:45:44.000Z</time>
      </trkpt>
      <trkpt lat="43.48109" lon="6.79546">
        <ele>186</ele>
        <time>2017-06-01T08:45:46.000Z</time>
      </trkpt>
      <trkpt lat="43.48101" lon="6.79558">
        <ele>186.80000305176</ele>
        <time>2017-06-01T08:45:52.000Z</time>
      </trkpt>
      <trkpt lat="43.48092" lon="6.79576">
        <ele>187.80000305176</ele>
        <time>2017-06-01T08:45:59.000Z</time>
      </trkpt>
      <trkpt lat="43.4809" lon="6.79582">
        <ele>188.19999694824</ele>
        <time>2017-06-01T08:46:01.000Z</time>
      </trkpt>
      <trkpt lat="43.48087" lon="6.79593">
        <ele>188.80000305176</ele>
        <time>2017-06-01T08:46:05.000Z</time>
      </trkpt>
      <trkpt lat="43.48084" lon="6.79609">
        <ele>189.19999694824</ele>
        <time>2017-06-01T08:46:10.000Z</time>
      </trkpt>
      <trkpt lat="43.48084" lon="6.7962">
        <ele>190</ele>
        <time>2017-06-01T08:46:14.000Z</time>
      </trkpt>
      <trkpt lat="43.48084" lon="6.79631">
        <ele>190.39999389648</ele>
        <time>2017-06-01T08:46:18.000Z</time>
      </trkpt>
      <trkpt lat="43.48087" lon="6.79643">
        <ele>191</ele>
        <time>2017-06-01T08:46:22.000Z</time>
      </trkpt>
      <trkpt lat="43.48088" lon="6.79652">
        <ele>191.39999389648</ele>
        <time>2017-06-01T08:46:25.000Z</time>
      </trkpt>
      <trkpt lat="43.48091" lon="6.79662">
        <ele>192</ele>
        <time>2017-06-01T08:46:29.000Z</time>
      </trkpt>
      <trkpt lat="43.48093" lon="6.7967">
        <ele>192.39999389648</ele>
        <time>2017-06-01T08:46:32.000Z</time>
      </trkpt>
      <trkpt lat="43.48096" lon="6.79686">
        <ele>193.19999694824</ele>
        <time>2017-06-01T08:46:38.000Z</time>
      </trkpt>
      <trkpt lat="43.48098" lon="6.79694">
        <ele>193.60000610352</ele>
        <time>2017-06-01T08:46:41.000Z</time>
      </trkpt>
      <trkpt lat="43.48102" lon="6.79711">
        <ele>194.19999694824</ele>
        <time>2017-06-01T08:46:47.000Z</time>
      </trkpt>
      <trkpt lat="43.48103" lon="6.79714">
        <ele>194.39999389648</ele>
        <time>2017-06-01T08:46:48.000Z</time>
      </trkpt>
      <trkpt lat="43.48109" lon="6.79727">
        <ele>195.19999694824</ele>
        <time>2017-06-01T08:46:53.000Z</time>
      </trkpt>
      <trkpt lat="43.48113" lon="6.79736">
        <ele>195.80000305176</ele>
        <time>2017-06-01T08:46:57.000Z</time>
      </trkpt>
      <trkpt lat="43.48114" lon="6.79743">
        <ele>196.19999694824</ele>
        <time>2017-06-01T08:47:00.000Z</time>
      </trkpt>
      <trkpt lat="43.48113" lon="6.79756">
        <ele>196.80000305176</ele>
        <time>2017-06-01T08:47:05.000Z</time>
      </trkpt>
      <trkpt lat="43.48112" lon="6.79765">
        <ele>197.19999694824</ele>
        <time>2017-06-01T08:47:08.000Z</time>
      </trkpt>
      <trkpt lat="43.48109" lon="6.79778">
        <ele>197.80000305176</ele>
        <time>2017-06-01T08:47:13.000Z</time>
      </trkpt>
      <trkpt lat="43.48106" lon="6.79787">
        <ele>198.39999389648</ele>
        <time>2017-06-01T08:47:17.000Z</time>
      </trkpt>
      <trkpt lat="43.48104" lon="6.79795">
        <ele>198.80000305176</ele>
        <time>2017-06-01T08:47:20.000Z</time>
      </trkpt>
      <trkpt lat="43.48099" lon="6.79808">
        <ele>199.60000610352</ele>
        <time>2017-06-01T08:47:25.000Z</time>
      </trkpt>
      <trkpt lat="43.48096" lon="6.79816">
        <ele>199.80000305176</ele>
        <time>2017-06-01T08:47:28.000Z</time>
      </trkpt>
      <trkpt lat="43.4809" lon="6.79829">
        <ele>200.60000610352</ele>
        <time>2017-06-01T08:47:33.000Z</time>
      </trkpt>
      <trkpt lat="43.48084" lon="6.79841">
        <ele>201.19999694824</ele>
        <time>2017-06-01T08:47:38.000Z</time>
      </trkpt>
      <trkpt lat="43.4808" lon="6.79848">
        <ele>201.80000305176</ele>
        <time>2017-06-01T08:47:41.000Z</time>
      </trkpt>
      <trkpt lat="43.48073" lon="6.79858">
        <ele>202.39999389648</ele>
        <time>2017-06-01T08:47:46.000Z</time>
      </trkpt>
      <trkpt lat="43.48068" lon="6.79864">
        <ele>203</ele>
        <time>2017-06-01T08:47:49.000Z</time>
      </trkpt>
      <trkpt lat="43.4806" lon="6.79875">
        <ele>203.80000305176</ele>
        <time>2017-06-01T08:47:54.000Z</time>
      </trkpt>
      <trkpt lat="43.48057" lon="6.79878">
        <ele>204</ele>
        <time>2017-06-01T08:47:56.000Z</time>
      </trkpt>
      <trkpt lat="43.48051" lon="6.79891">
        <ele>204.80000305176</ele>
        <time>2017-06-01T08:48:02.000Z</time>
      </trkpt>
      <trkpt lat="43.48049" lon="6.79897">
        <ele>205</ele>
        <time>2017-06-01T08:48:05.000Z</time>
      </trkpt>
      <trkpt lat="43.48055" lon="6.79913">
        <ele>205.60000610352</ele>
        <time>2017-06-01T08:48:57.000Z</time>
      </trkpt>
      <trkpt lat="43.4806" lon="6.79918">
        <ele>205.60000610352</ele>
        <time>2017-06-01T08:49:00.000Z</time>
      </trkpt>
      <trkpt lat="43.48071" lon="6.79926">
        <ele>205.80000305176</ele>
        <time>2017-06-01T08:49:06.000Z</time>
      </trkpt>
      <trkpt lat="43.48073" lon="6.79928">
        <ele>206</ele>
        <time>2017-06-01T08:49:07.000Z</time>
      </trkpt>
      <trkpt lat="43.48086" lon="6.79942">
        <ele>206.80000305176</ele>
        <time>2017-06-01T08:49:14.000Z</time>
      </trkpt>
      <trkpt lat="43.48092" lon="6.79949">
        <ele>207</ele>
        <time>2017-06-01T08:49:17.000Z</time>
      </trkpt>
      <trkpt lat="43.48101" lon="6.79958">
        <ele>207.60000610352</ele>
        <time>2017-06-01T08:49:21.000Z</time>
      </trkpt>
      <trkpt lat="43.48109" lon="6.79967">
        <ele>208.19999694824</ele>
        <time>2017-06-01T08:49:25.000Z</time>
      </trkpt>
      <trkpt lat="43.48115" lon="6.79973">
        <ele>208.60000610352</ele>
        <time>2017-06-01T08:49:28.000Z</time>
      </trkpt>
      <trkpt lat="43.48124" lon="6.79983">
        <ele>209.39999389648</ele>
        <time>2017-06-01T08:49:32.000Z</time>
      </trkpt>
      <trkpt lat="43.48131" lon="6.79991">
        <ele>209.60000610352</ele>
        <time>2017-06-01T08:49:35.000Z</time>
      </trkpt>
      <trkpt lat="43.48145" lon="6.80006">
        <ele>210.39999389648</ele>
        <time>2017-06-01T08:49:41.000Z</time>
      </trkpt>
      <trkpt lat="43.48151" lon="6.80013">
        <ele>210.80000305176</ele>
        <time>2017-06-01T08:49:44.000Z</time>
      </trkpt>
      <trkpt lat="43.48159" lon="6.80023">
        <ele>211.39999389648</ele>
        <time>2017-06-01T08:49:48.000Z</time>
      </trkpt>
      <trkpt lat="43.48167" lon="6.80031">
        <ele>212</ele>
        <time>2017-06-01T08:49:52.000Z</time>
      </trkpt>
      <trkpt lat="43.48182" lon="6.80041">
        <ele>212.60000610352</ele>
        <time>2017-06-01T08:49:58.000Z</time>
      </trkpt>
      <trkpt lat="43.48184" lon="6.80043">
        <ele>212.60000610352</ele>
        <time>2017-06-01T08:49:59.000Z</time>
      </trkpt>
      <trkpt lat="43.48202" lon="6.80052">
        <ele>213.80000305176</ele>
        <time>2017-06-01T08:50:06.000Z</time>
      </trkpt>
      <trkpt lat="43.48219" lon="6.8006">
        <ele>214.60000610352</ele>
        <time>2017-06-01T08:50:13.000Z</time>
      </trkpt>
      <trkpt lat="43.48228" lon="6.80062">
        <ele>214.80000305176</ele>
        <time>2017-06-01T08:50:17.000Z</time>
      </trkpt>
      <trkpt lat="43.48233" lon="6.80063">
        <ele>215.19999694824</ele>
        <time>2017-06-01T08:50:19.000Z</time>
      </trkpt>
      <trkpt lat="43.48247" lon="6.80066">
        <ele>215.80000305176</ele>
        <time>2017-06-01T08:50:26.000Z</time>
      </trkpt>
      <trkpt lat="43.48249" lon="6.80066">
        <ele>215.80000305176</ele>
        <time>2017-06-01T08:50:27.000Z</time>
      </trkpt>
      <trkpt lat="43.48261" lon="6.80064">
        <ele>216.39999389648</ele>
        <time>2017-06-01T08:50:32.000Z</time>
      </trkpt>
      <trkpt lat="43.48268" lon="6.80064">
        <ele>217</ele>
        <time>2017-06-01T08:50:36.000Z</time>
      </trkpt>
      <trkpt lat="43.48273" lon="6.80063">
        <ele>217</ele>
        <time>2017-06-01T08:50:38.000Z</time>
      </trkpt>
      <trkpt lat="43.4829" lon="6.80056">
        <ele>217.80000305176</ele>
        <time>2017-06-01T08:50:46.000Z</time>
      </trkpt>
      <trkpt lat="43.48292" lon="6.80056">
        <ele>218</ele>
        <time>2017-06-01T08:50:47.000Z</time>
      </trkpt>
      <trkpt lat="43.48308" lon="6.80049">
        <ele>218.60000610352</ele>
        <time>2017-06-01T08:50:54.000Z</time>
      </trkpt>
      <trkpt lat="43.48317" lon="6.80044">
        <ele>219.19999694824</ele>
        <time>2017-06-01T08:50:58.000Z</time>
      </trkpt>
      <trkpt lat="43.48327" lon="6.80037">
        <ele>219.60000610352</ele>
        <time>2017-06-01T08:51:03.000Z</time>
      </trkpt>
      <trkpt lat="43.4834" lon="6.80028">
        <ele>220.19999694824</ele>
        <time>2017-06-01T08:51:09.000Z</time>
      </trkpt>
      <trkpt lat="43.48342" lon="6.80027">
        <ele>220.19999694824</ele>
        <time>2017-06-01T08:51:10.000Z</time>
      </trkpt>
      <trkpt lat="43.48358" lon="6.80012">
        <ele>221.19999694824</ele>
        <time>2017-06-01T08:51:18.000Z</time>
      </trkpt>
      <trkpt lat="43.48377" lon="6.80001">
        <ele>221.80000305176</ele>
        <time>2017-06-01T08:51:26.000Z</time>
      </trkpt>
      <trkpt lat="43.48383" lon="6.79996">
        <ele>222.60000610352</ele>
        <time>2017-06-01T08:51:29.000Z</time>
      </trkpt>
      <trkpt lat="43.48389" lon="6.79992">
        <ele>223</ele>
        <time>2017-06-01T08:51:32.000Z</time>
      </trkpt>
      <trkpt lat="43.48395" lon="6.79979">
        <ele>223.80000305176</ele>
        <time>2017-06-01T08:51:37.000Z</time>
      </trkpt>
      <trkpt lat="43.484" lon="6.79961">
        <ele>224.39999389648</ele>
        <time>2017-06-01T08:51:43.000Z</time>
      </trkpt>
      <trkpt lat="43.48406" lon="6.7995">
        <ele>225</ele>
        <time>2017-06-01T08:51:47.000Z</time>
      </trkpt>
      <trkpt lat="43.48407" lon="6.79947">
        <ele>225</ele>
        <time>2017-06-01T08:51:48.000Z</time>
      </trkpt>
      <trkpt lat="43.48417" lon="6.79932">
        <ele>225.39999389648</ele>
        <time>2017-06-01T08:51:54.000Z</time>
      </trkpt>
      <trkpt lat="43.48429" lon="6.79933">
        <ele>225.80000305176</ele>
        <time>2017-06-01T08:51:59.000Z</time>
      </trkpt>
      <trkpt lat="43.48431" lon="6.79934">
        <ele>226</ele>
        <time>2017-06-01T08:52:00.000Z</time>
      </trkpt>
      <trkpt lat="43.48437" lon="6.79947">
        <ele>226.60000610352</ele>
        <time>2017-06-01T08:52:05.000Z</time>
      </trkpt>
      <trkpt lat="43.48446" lon="6.79966">
        <ele>226.80000305176</ele>
        <time>2017-06-01T08:52:12.000Z</time>
      </trkpt>
      <trkpt lat="43.48453" lon="6.79975">
        <ele>227</ele>
        <time>2017-06-01T08:52:16.000Z</time>
      </trkpt>
      <trkpt lat="43.48464" lon="6.79986">
        <ele>227.60000610352</ele>
        <time>2017-06-01T08:52:22.000Z</time>
      </trkpt>
      <trkpt lat="43.48471" lon="6.79995">
        <ele>228</ele>
        <time>2017-06-01T08:52:27.000Z</time>
      </trkpt>
      <trkpt lat="43.48474" lon="6.8">
        <ele>228.19999694824</ele>
        <time>2017-06-01T08:52:29.000Z</time>
      </trkpt>
      <trkpt lat="43.48481" lon="6.80016">
        <ele>229.19999694824</ele>
        <time>2017-06-01T08:52:35.000Z</time>
      </trkpt>
      <trkpt lat="43.48483" lon="6.80025">
        <ele>229.39999389648</ele>
        <time>2017-06-01T08:52:38.000Z</time>
      </trkpt>
      <trkpt lat="43.48485" lon="6.80053">
        <ele>230.19999694824</ele>
        <time>2017-06-01T08:52:46.000Z</time>
      </trkpt>
      <trkpt lat="43.4849" lon="6.80075">
        <ele>230.80000305176</ele>
        <time>2017-06-01T08:52:53.000Z</time>
      </trkpt>
      <trkpt lat="43.4849" lon="6.80078">
        <ele>231.19999694824</ele>
        <time>2017-06-01T08:52:54.000Z</time>
      </trkpt>
      <trkpt lat="43.48497" lon="6.80093">
        <ele>231.80000305176</ele>
        <time>2017-06-01T08:53:00.000Z</time>
      </trkpt>
      <trkpt lat="43.48504" lon="6.80106">
        <ele>232.39999389648</ele>
        <time>2017-06-01T08:53:06.000Z</time>
      </trkpt>
      <trkpt lat="43.48507" lon="6.80111">
        <ele>232.39999389648</ele>
        <time>2017-06-01T08:53:08.000Z</time>
      </trkpt>
      <trkpt lat="43.48515" lon="6.80131">
        <ele>233.39999389648</ele>
        <time>2017-06-01T08:53:15.000Z</time>
      </trkpt>
      <trkpt lat="43.48527" lon="6.80154">
        <ele>234.19999694824</ele>
        <time>2017-06-01T08:53:23.000Z</time>
      </trkpt>
      <trkpt lat="43.4853" lon="6.80159">
        <ele>234.60000610352</ele>
        <time>2017-06-01T08:53:25.000Z</time>
      </trkpt>
      <trkpt lat="43.48537" lon="6.80171">
        <ele>235</ele>
        <time>2017-06-01T08:53:30.000Z</time>
      </trkpt>
      <trkpt lat="43.4855" lon="6.80186">
        <ele>235.60000610352</ele>
        <time>2017-06-01T08:53:37.000Z</time>
      </trkpt>
      <trkpt lat="43.48555" lon="6.80193">
        <ele>236</ele>
        <time>2017-06-01T08:53:40.000Z</time>
      </trkpt>
      <trkpt lat="43.48565" lon="6.80205">
        <ele>236.80000305176</ele>
        <time>2017-06-01T08:53:45.000Z</time>
      </trkpt>
      <trkpt lat="43.48573" lon="6.80215">
        <ele>237.19999694824</ele>
        <time>2017-06-01T08:53:49.000Z</time>
      </trkpt>
      <trkpt lat="43.48583" lon="6.80227">
        <ele>237.80000305176</ele>
        <time>2017-06-01T08:53:54.000Z</time>
      </trkpt>
      <trkpt lat="43.48589" lon="6.80234">
        <ele>238.39999389648</ele>
        <time>2017-06-01T08:53:57.000Z</time>
      </trkpt>
      <trkpt lat="43.48603" lon="6.8025">
        <ele>238.80000305176</ele>
        <time>2017-06-01T08:54:04.000Z</time>
      </trkpt>
      <trkpt lat="43.48622" lon="6.8027">
        <ele>239.80000305176</ele>
        <time>2017-06-01T08:54:13.000Z</time>
      </trkpt>
      <trkpt lat="43.48624" lon="6.80272">
        <ele>240</ele>
        <time>2017-06-01T08:54:14.000Z</time>
      </trkpt>
      <trkpt lat="43.48631" lon="6.80278">
        <ele>240.60000610352</ele>
        <time>2017-06-01T08:54:17.000Z</time>
      </trkpt>
      <trkpt lat="43.48641" lon="6.80286">
        <ele>240.80000305176</ele>
        <time>2017-06-01T08:54:21.000Z</time>
      </trkpt>
      <trkpt lat="43.48646" lon="6.8029">
        <ele>241.19999694824</ele>
        <time>2017-06-01T08:54:23.000Z</time>
      </trkpt>
      <trkpt lat="43.48665" lon="6.80305">
        <ele>242</ele>
        <time>2017-06-01T08:54:30.000Z</time>
      </trkpt>
      <trkpt lat="43.48667" lon="6.80307">
        <ele>242.19999694824</ele>
        <time>2017-06-01T08:54:31.000Z</time>
      </trkpt>
      <trkpt lat="43.48677" lon="6.80325">
        <ele>243.19999694824</ele>
        <time>2017-06-01T08:54:37.000Z</time>
      </trkpt>
      <trkpt lat="43.48678" lon="6.80329">
        <ele>243.19999694824</ele>
        <time>2017-06-01T08:54:38.000Z</time>
      </trkpt>
      <trkpt lat="43.48688" lon="6.8034">
        <ele>243.60000610352</ele>
        <time>2017-06-01T08:54:43.000Z</time>
      </trkpt>
      <trkpt lat="43.48699" lon="6.80345">
        <ele>244.19999694824</ele>
        <time>2017-06-01T08:54:47.000Z</time>
      </trkpt>
      <trkpt lat="43.48706" lon="6.80345">
        <ele>244.39999389648</ele>
        <time>2017-06-01T08:54:49.000Z</time>
      </trkpt>
      <trkpt lat="43.48718" lon="6.80335">
        <ele>245</ele>
        <time>2017-06-01T08:54:54.000Z</time>
      </trkpt>
      <trkpt lat="43.48721" lon="6.80333">
        <ele>245.39999389648</ele>
        <time>2017-06-01T08:54:55.000Z</time>
      </trkpt>
      <trkpt lat="43.48732" lon="6.8032">
        <ele>245.80000305176</ele>
        <time>2017-06-01T08:55:00.000Z</time>
      </trkpt>
      <trkpt lat="43.48738" lon="6.80313">
        <ele>246.39999389648</ele>
        <time>2017-06-01T08:55:03.000Z</time>
      </trkpt>
      <trkpt lat="43.4874" lon="6.80305">
        <ele>246.80000305176</ele>
        <time>2017-06-01T08:55:05.000Z</time>
      </trkpt>
      <trkpt lat="43.48744" lon="6.80287">
        <ele>247.60000610352</ele>
        <time>2017-06-01T08:55:10.000Z</time>
      </trkpt>
      <trkpt lat="43.48745" lon="6.80279">
        <ele>247.60000610352</ele>
        <time>2017-06-01T08:55:12.000Z</time>
      </trkpt>
      <trkpt lat="43.48751" lon="6.80254">
        <ele>248.60000610352</ele>
        <time>2017-06-01T08:55:19.000Z</time>
      </trkpt>
      <trkpt lat="43.48761" lon="6.80225">
        <ele>249.80000305176</ele>
        <time>2017-06-01T08:55:27.000Z</time>
      </trkpt>
      <trkpt lat="43.48762" lon="6.80222">
        <ele>250</ele>
        <time>2017-06-01T08:55:28.000Z</time>
      </trkpt>
      <trkpt lat="43.48771" lon="6.80198">
        <ele>250.80000305176</ele>
        <time>2017-06-01T08:55:35.000Z</time>
      </trkpt>
      <trkpt lat="43.48772" lon="6.80194">
        <ele>250.80000305176</ele>
        <time>2017-06-01T08:55:36.000Z</time>
      </trkpt>
      <trkpt lat="43.48778" lon="6.80173">
        <ele>251.80000305176</ele>
        <time>2017-06-01T08:55:42.000Z</time>
      </trkpt>
      <trkpt lat="43.48778" lon="6.80169">
        <ele>252</ele>
        <time>2017-06-01T08:55:43.000Z</time>
      </trkpt>
      <trkpt lat="43.48783" lon="6.80145">
        <ele>252.80000305176</ele>
        <time>2017-06-01T08:55:50.000Z</time>
      </trkpt>
      <trkpt lat="43.48784" lon="6.80135">
        <ele>253.39999389648</ele>
        <time>2017-06-01T08:55:53.000Z</time>
      </trkpt>
      <trkpt lat="43.48786" lon="6.80109">
        <ele>254</ele>
        <time>2017-06-01T08:56:00.000Z</time>
      </trkpt>
      <trkpt lat="43.48786" lon="6.80098">
        <ele>254.60000610352</ele>
        <time>2017-06-01T08:56:03.000Z</time>
      </trkpt>
      <trkpt lat="43.48781" lon="6.80076">
        <ele>254.80000305176</ele>
        <time>2017-06-01T08:56:09.000Z</time>
      </trkpt>
      <trkpt lat="43.48779" lon="6.80069">
        <ele>255.19999694824</ele>
        <time>2017-06-01T08:56:11.000Z</time>
      </trkpt>
      <trkpt lat="43.48772" lon="6.80048">
        <ele>255.60000610352</ele>
        <time>2017-06-01T08:56:17.000Z</time>
      </trkpt>
      <trkpt lat="43.48767" lon="6.80037">
        <ele>256.20001220703</ele>
        <time>2017-06-01T08:56:21.000Z</time>
      </trkpt>
      <trkpt lat="43.48762" lon="6.80025">
        <ele>256.60000610352</ele>
        <time>2017-06-01T08:56:25.000Z</time>
      </trkpt>
      <trkpt lat="43.48754" lon="6.80009">
        <ele>257.20001220703</ele>
        <time>2017-06-01T08:56:31.000Z</time>
      </trkpt>
      <trkpt lat="43.48752" lon="6.80006">
        <ele>257.39999389648</ele>
        <time>2017-06-01T08:56:32.000Z</time>
      </trkpt>
      <trkpt lat="43.48742" lon="6.79987">
        <ele>258.20001220703</ele>
        <time>2017-06-01T08:56:39.000Z</time>
      </trkpt>
      <trkpt lat="43.48738" lon="6.7998">
        <ele>258.20001220703</ele>
        <time>2017-06-01T08:56:42.000Z</time>
      </trkpt>
      <trkpt lat="43.48732" lon="6.79966">
        <ele>259</ele>
        <time>2017-06-01T08:56:47.000Z</time>
      </trkpt>
      <trkpt lat="43.48729" lon="6.79954">
        <ele>259.39999389648</ele>
        <time>2017-06-01T08:56:51.000Z</time>
      </trkpt>
      <trkpt lat="43.48729" lon="6.79944">
        <ele>259.79998779297</ele>
        <time>2017-06-01T08:56:54.000Z</time>
      </trkpt>
      <trkpt lat="43.48732" lon="6.79919">
        <ele>260.20001220703</ele>
        <time>2017-06-01T08:56:59.000Z</time>
      </trkpt>
      <trkpt lat="43.48733" lon="6.79914">
        <ele>260.39999389648</ele>
        <time>2017-06-01T08:57:00.000Z</time>
      </trkpt>
      <trkpt lat="43.48738" lon="6.7989">
        <ele>261.60000610352</ele>
        <time>2017-06-01T08:57:05.000Z</time>
      </trkpt>
      <trkpt lat="43.48753" lon="6.79863">
        <ele>262.39999389648</ele>
        <time>2017-06-01T08:57:12.000Z</time>
      </trkpt>
      <trkpt lat="43.48771" lon="6.79848">
        <ele>262.79998779297</ele>
        <time>2017-06-01T08:57:18.000Z</time>
      </trkpt>
      <trkpt lat="43.48774" lon="6.79846">
        <ele>263.20001220703</ele>
        <time>2017-06-01T08:57:19.000Z</time>
      </trkpt>
      <trkpt lat="43.4879" lon="6.79832">
        <ele>263.79998779297</ele>
        <time>2017-06-01T08:57:24.000Z</time>
      </trkpt>
      <trkpt lat="43.48803" lon="6.7982">
        <ele>264.60000610352</ele>
        <time>2017-06-01T08:57:28.000Z</time>
      </trkpt>
      <trkpt lat="43.48806" lon="6.79817">
        <ele>265</ele>
        <time>2017-06-01T08:57:29.000Z</time>
      </trkpt>
      <trkpt lat="43.48821" lon="6.79793">
        <ele>265.60000610352</ele>
        <time>2017-06-01T08:57:35.000Z</time>
      </trkpt>
      <trkpt lat="43.48825" lon="6.79784">
        <ele>266</ele>
        <time>2017-06-01T08:57:37.000Z</time>
      </trkpt>
      <trkpt lat="43.48832" lon="6.79766">
        <ele>266.60000610352</ele>
        <time>2017-06-01T08:57:41.000Z</time>
      </trkpt>
      <trkpt lat="43.48835" lon="6.79758">
        <ele>267.20001220703</ele>
        <time>2017-06-01T08:57:43.000Z</time>
      </trkpt>
      <trkpt lat="43.48839" lon="6.7974">
        <ele>267.60000610352</ele>
        <time>2017-06-01T08:57:47.000Z</time>
      </trkpt>
      <trkpt lat="43.48844" lon="6.79723">
        <ele>268.60000610352</ele>
        <time>2017-06-01T08:57:51.000Z</time>
      </trkpt>
      <trkpt lat="43.48848" lon="6.79709">
        <ele>269</ele>
        <time>2017-06-01T08:57:54.000Z</time>
      </trkpt>
      <trkpt lat="43.48852" lon="6.79697">
        <ele>269.60000610352</ele>
        <time>2017-06-01T08:57:57.000Z</time>
      </trkpt>
      <trkpt lat="43.48858" lon="6.79674">
        <ele>270.39999389648</ele>
        <time>2017-06-01T08:58:03.000Z</time>
      </trkpt>
      <trkpt lat="43.48861" lon="6.79656">
        <ele>270.79998779297</ele>
        <time>2017-06-01T08:58:07.000Z</time>
      </trkpt>
      <trkpt lat="43.48864" lon="6.79642">
        <ele>271.39999389648</ele>
        <time>2017-06-01T08:58:10.000Z</time>
      </trkpt>
      <trkpt lat="43.48867" lon="6.79629">
        <ele>272</ele>
        <time>2017-06-01T08:58:13.000Z</time>
      </trkpt>
      <trkpt lat="43.48873" lon="6.79608">
        <ele>272.60000610352</ele>
        <time>2017-06-01T08:58:18.000Z</time>
      </trkpt>
      <trkpt lat="43.48876" lon="6.79593">
        <ele>273.20001220703</ele>
        <time>2017-06-01T08:58:21.000Z</time>
      </trkpt>
      <trkpt lat="43.48882" lon="6.79576">
        <ele>273.60000610352</ele>
        <time>2017-06-01T08:58:25.000Z</time>
      </trkpt>
      <trkpt lat="43.48886" lon="6.79566">
        <ele>274.20001220703</ele>
        <time>2017-06-01T08:58:28.000Z</time>
      </trkpt>
      <trkpt lat="43.48893" lon="6.79559">
        <ele>274.39999389648</ele>
        <time>2017-06-01T08:58:31.000Z</time>
      </trkpt>
      <trkpt lat="43.48902" lon="6.79562">
        <ele>275</ele>
        <time>2017-06-01T08:58:34.000Z</time>
      </trkpt>
      <trkpt lat="43.48905" lon="6.79565">
        <ele>275.20001220703</ele>
        <time>2017-06-01T08:58:35.000Z</time>
      </trkpt>
      <trkpt lat="43.48908" lon="6.79569">
        <ele>275.20001220703</ele>
        <time>2017-06-01T08:58:36.000Z</time>
      </trkpt>
      <trkpt lat="43.48921" lon="6.79584">
        <ele>275.79998779297</ele>
        <time>2017-06-01T08:58:41.000Z</time>
      </trkpt>
      <trkpt lat="43.48937" lon="6.79598">
        <ele>276.20001220703</ele>
        <time>2017-06-01T08:58:47.000Z</time>
      </trkpt>
      <trkpt lat="43.4894" lon="6.796">
        <ele>276.39999389648</ele>
        <time>2017-06-01T08:58:48.000Z</time>
      </trkpt>
      <trkpt lat="43.48957" lon="6.79608">
        <ele>277.20001220703</ele>
        <time>2017-06-01T08:58:54.000Z</time>
      </trkpt>
      <trkpt lat="43.48962" lon="6.79608">
        <ele>277.60000610352</ele>
        <time>2017-06-01T08:58:56.000Z</time>
      </trkpt>
      <trkpt lat="43.48974" lon="6.79609">
        <ele>278.20001220703</ele>
        <time>2017-06-01T08:59:00.000Z</time>
      </trkpt>
      <trkpt lat="43.4898" lon="6.79607">
        <ele>278.60000610352</ele>
        <time>2017-06-01T08:59:02.000Z</time>
      </trkpt>
      <trkpt lat="43.48988" lon="6.79602">
        <ele>278.60000610352</ele>
        <time>2017-06-01T08:59:05.000Z</time>
      </trkpt>
      <trkpt lat="43.49007" lon="6.79594">
        <ele>279.39999389648</ele>
        <time>2017-06-01T08:59:11.000Z</time>
      </trkpt>
      <trkpt lat="43.49014" lon="6.79597">
        <ele>279.60000610352</ele>
        <time>2017-06-01T08:59:13.000Z</time>
      </trkpt>
      <trkpt lat="43.49021" lon="6.79605">
        <ele>280</ele>
        <time>2017-06-01T08:59:16.000Z</time>
      </trkpt>
      <trkpt lat="43.49024" lon="6.79617">
        <ele>280.79998779297</ele>
        <time>2017-06-01T08:59:19.000Z</time>
      </trkpt>
      <trkpt lat="43.49024" lon="6.79622">
        <ele>281</ele>
        <time>2017-06-01T08:59:20.000Z</time>
      </trkpt>
      <trkpt lat="43.49028" lon="6.79649">
        <ele>281.20001220703</ele>
        <time>2017-06-01T08:59:27.000Z</time>
      </trkpt>
      <trkpt lat="43.49032" lon="6.79664">
        <ele>281.79998779297</ele>
        <time>2017-06-01T08:59:31.000Z</time>
      </trkpt>
      <trkpt lat="43.49036" lon="6.79674">
        <ele>282</ele>
        <time>2017-06-01T08:59:34.000Z</time>
      </trkpt>
      <trkpt lat="43.49038" lon="6.79699">
        <ele>282.60000610352</ele>
        <time>2017-06-01T08:59:40.000Z</time>
      </trkpt>
      <trkpt lat="43.49039" lon="6.79707">
        <ele>282.79998779297</ele>
        <time>2017-06-01T08:59:42.000Z</time>
      </trkpt>
      <trkpt lat="43.49042" lon="6.79728">
        <ele>283.79998779297</ele>
        <time>2017-06-01T08:59:47.000Z</time>
      </trkpt>
      <trkpt lat="43.49044" lon="6.79736">
        <ele>284</ele>
        <time>2017-06-01T08:59:49.000Z</time>
      </trkpt>
      <trkpt lat="43.4905" lon="6.79751">
        <ele>284.39999389648</ele>
        <time>2017-06-01T08:59:53.000Z</time>
      </trkpt>
      <trkpt lat="43.49057" lon="6.79764">
        <ele>285</ele>
        <time>2017-06-01T08:59:57.000Z</time>
      </trkpt>
      <trkpt lat="43.49065" lon="6.79776">
        <ele>285.39999389648</ele>
        <time>2017-06-01T09:00:01.000Z</time>
      </trkpt>
      <trkpt lat="43.49077" lon="6.79794">
        <ele>286.20001220703</ele>
        <time>2017-06-01T09:00:07.000Z</time>
      </trkpt>
      <trkpt lat="43.4908" lon="6.79799">
        <ele>286.39999389648</ele>
        <time>2017-06-01T09:00:09.000Z</time>
      </trkpt>
      <trkpt lat="43.49094" lon="6.79813">
        <ele>287.20001220703</ele>
        <time>2017-06-01T09:00:15.000Z</time>
      </trkpt>
      <trkpt lat="43.49096" lon="6.79816">
        <ele>287.39999389648</ele>
        <time>2017-06-01T09:00:16.000Z</time>
      </trkpt>
      <trkpt lat="43.49106" lon="6.79828">
        <ele>288</ele>
        <time>2017-06-01T09:00:21.000Z</time>
      </trkpt>
      <trkpt lat="43.49116" lon="6.79842">
        <ele>288.60000610352</ele>
        <time>2017-06-01T09:00:26.000Z</time>
      </trkpt>
      <trkpt lat="43.49121" lon="6.79849">
        <ele>289</ele>
        <time>2017-06-01T09:00:28.000Z</time>
      </trkpt>
      <trkpt lat="43.4913" lon="6.79872">
        <ele>289.60000610352</ele>
        <time>2017-06-01T09:00:34.000Z</time>
      </trkpt>
      <trkpt lat="43.49142" lon="6.79908">
        <ele>290.79998779297</ele>
        <time>2017-06-01T09:00:42.000Z</time>
      </trkpt>
      <trkpt lat="43.4915" lon="6.79937">
        <ele>292</ele>
        <time>2017-06-01T09:00:49.000Z</time>
      </trkpt>
      <trkpt lat="43.49154" lon="6.79965">
        <ele>293.20001220703</ele>
        <time>2017-06-01T09:00:55.000Z</time>
      </trkpt>
      <trkpt lat="43.49156" lon="6.79972">
        <ele>293.39999389648</ele>
        <time>2017-06-01T09:00:57.000Z</time>
      </trkpt>
      <trkpt lat="43.49166" lon="6.79988">
        <ele>293.79998779297</ele>
        <time>2017-06-01T09:01:04.000Z</time>
      </trkpt>
      <trkpt lat="43.4917" lon="6.79989">
        <ele>294.20001220703</ele>
        <time>2017-06-01T09:01:06.000Z</time>
      </trkpt>
      <trkpt lat="43.49173" lon="6.7999">
        <ele>294.20001220703</ele>
        <time>2017-06-01T09:01:08.000Z</time>
      </trkpt>
      <trkpt lat="43.49182" lon="6.79992">
        <ele>294.60000610352</ele>
        <time>2017-06-01T09:01:35.000Z</time>
      </trkpt>
      <trkpt lat="43.4919" lon="6.79993">
        <ele>294.79998779297</ele>
        <time>2017-06-01T09:01:38.000Z</time>
      </trkpt>
      <trkpt lat="43.49195" lon="6.79997">
        <ele>295.20001220703</ele>
        <time>2017-06-01T09:01:41.000Z</time>
      </trkpt>
      <trkpt lat="43.49197" lon="6.8">
        <ele>295.39999389648</ele>
        <time>2017-06-01T09:01:42.000Z</time>
      </trkpt>
      <trkpt lat="43.49213" lon="6.80016">
        <ele>296.39999389648</ele>
        <time>2017-06-01T09:01:49.000Z</time>
      </trkpt>
      <trkpt lat="43.49215" lon="6.80018">
        <ele>296.60000610352</ele>
        <time>2017-06-01T09:01:50.000Z</time>
      </trkpt>
      <trkpt lat="43.49229" lon="6.80024">
        <ele>296.79998779297</ele>
        <time>2017-06-01T09:01:55.000Z</time>
      </trkpt>
      <trkpt lat="43.49248" lon="6.80023">
        <ele>297.60000610352</ele>
        <time>2017-06-01T09:02:00.000Z</time>
      </trkpt>
      <trkpt lat="43.49254" lon="6.8002">
        <ele>297.79998779297</ele>
        <time>2017-06-01T09:02:02.000Z</time>
      </trkpt>
      <trkpt lat="43.4927" lon="6.80011">
        <ele>298.60000610352</ele>
        <time>2017-06-01T09:02:07.000Z</time>
      </trkpt>
      <trkpt lat="43.49274" lon="6.8001">
        <ele>298.60000610352</ele>
        <time>2017-06-01T09:02:08.000Z</time>
      </trkpt>
      <trkpt lat="43.49293" lon="6.8001">
        <ele>299.60000610352</ele>
        <time>2017-06-01T09:02:14.000Z</time>
      </trkpt>
      <trkpt lat="43.49299" lon="6.80012">
        <ele>299.79998779297</ele>
        <time>2017-06-01T09:02:16.000Z</time>
      </trkpt>
      <trkpt lat="43.49316" lon="6.8002">
        <ele>300.39999389648</ele>
        <time>2017-06-01T09:02:22.000Z</time>
      </trkpt>
      <trkpt lat="43.49324" lon="6.80028">
        <ele>301</ele>
        <time>2017-06-01T09:02:25.000Z</time>
      </trkpt>
      <trkpt lat="43.49329" lon="6.80031">
        <ele>301</ele>
        <time>2017-06-01T09:02:27.000Z</time>
      </trkpt>
      <trkpt lat="43.49347" lon="6.80045">
        <ele>302</ele>
        <time>2017-06-01T09:02:34.000Z</time>
      </trkpt>
      <trkpt lat="43.49352" lon="6.80049">
        <ele>302</ele>
        <time>2017-06-01T09:02:36.000Z</time>
      </trkpt>
      <trkpt lat="43.49372" lon="6.80066">
        <ele>303</ele>
        <time>2017-06-01T09:02:44.000Z</time>
      </trkpt>
      <trkpt lat="43.49374" lon="6.80068">
        <ele>303.20001220703</ele>
        <time>2017-06-01T09:02:45.000Z</time>
      </trkpt>
      <trkpt lat="43.49388" lon="6.80077">
        <ele>303.60000610352</ele>
        <time>2017-06-01T09:02:51.000Z</time>
      </trkpt>
      <trkpt lat="43.49398" lon="6.80086">
        <ele>304.20001220703</ele>
        <time>2017-06-01T09:02:55.000Z</time>
      </trkpt>
      <trkpt lat="43.49405" lon="6.80095">
        <ele>304.60000610352</ele>
        <time>2017-06-01T09:02:58.000Z</time>
      </trkpt>
      <trkpt lat="43.49411" lon="6.80117">
        <ele>305.20001220703</ele>
        <time>2017-06-01T09:03:04.000Z</time>
      </trkpt>
      <trkpt lat="43.49414" lon="6.80144">
        <ele>306</ele>
        <time>2017-06-01T09:03:11.000Z</time>
      </trkpt>
      <trkpt lat="43.49416" lon="6.80157">
        <ele>306.20001220703</ele>
        <time>2017-06-01T09:03:14.000Z</time>
      </trkpt>
      <trkpt lat="43.49421" lon="6.80176">
        <ele>307</ele>
        <time>2017-06-01T09:03:19.000Z</time>
      </trkpt>
      <trkpt lat="43.49425" lon="6.80181">
        <ele>307.20001220703</ele>
        <time>2017-06-01T09:03:21.000Z</time>
      </trkpt>
      <trkpt lat="43.49435" lon="6.80194">
        <ele>308</ele>
        <time>2017-06-01T09:03:27.000Z</time>
      </trkpt>
      <trkpt lat="43.49437" lon="6.80194">
        <ele>308</ele>
        <time>2017-06-01T09:03:28.000Z</time>
      </trkpt>
      <trkpt lat="43.49441" lon="6.80193">
        <ele>308.60000610352</ele>
        <time>2017-06-01T09:03:30.000Z</time>
      </trkpt>
      <trkpt lat="43.49442" lon="6.80194">
        <ele>309</ele>
        <time>2017-06-01T09:03:31.000Z</time>
      </trkpt>
      <trkpt lat="43.4945" lon="6.80199">
        <ele>309.60000610352</ele>
        <time>2017-06-01T09:03:36.000Z</time>
      </trkpt>
      <trkpt lat="43.49453" lon="6.802">
        <ele>309.60000610352</ele>
        <time>2017-06-01T09:03:37.000Z</time>
      </trkpt>
      <trkpt lat="43.49461" lon="6.80203">
        <ele>309.60000610352</ele>
        <time>2017-06-01T09:03:41.000Z</time>
      </trkpt>
      <trkpt lat="43.49466" lon="6.80202">
        <ele>309.39999389648</ele>
        <time>2017-06-01T09:05:22.000Z</time>
      </trkpt>
      <trkpt lat="43.49471" lon="6.80202">
        <ele>309.60000610352</ele>
        <time>2017-06-01T09:05:24.000Z</time>
      </trkpt>
      <trkpt lat="43.49498" lon="6.80197">
        <ele>310.20001220703</ele>
        <time>2017-06-01T09:05:32.000Z</time>
      </trkpt>
      <trkpt lat="43.49508" lon="6.80194">
        <ele>310.60000610352</ele>
        <time>2017-06-01T09:05:35.000Z</time>
      </trkpt>
      <trkpt lat="43.49517" lon="6.80192">
        <ele>311.39999389648</ele>
        <time>2017-06-01T09:05:38.000Z</time>
      </trkpt>
      <trkpt lat="43.49532" lon="6.80184">
        <ele>311.79998779297</ele>
        <time>2017-06-01T09:05:43.000Z</time>
      </trkpt>
      <trkpt lat="43.49536" lon="6.80183">
        <ele>311.79998779297</ele>
        <time>2017-06-01T09:05:44.000Z</time>
      </trkpt>
      <trkpt lat="43.49555" lon="6.80174">
        <ele>312.60000610352</ele>
        <time>2017-06-01T09:05:52.000Z</time>
      </trkpt>
      <trkpt lat="43.49561" lon="6.8017">
        <ele>312.79998779297</ele>
        <time>2017-06-01T09:09:25.000Z</time>
      </trkpt>
      <trkpt lat="43.49563" lon="6.8017">
        <ele>312.79998779297</ele>
        <time>2017-06-01T09:09:26.000Z</time>
      </trkpt>
      <trkpt lat="43.4957" lon="6.80168">
        <ele>310.79998779297</ele>
        <time>2017-06-01T09:09:29.000Z</time>
      </trkpt>
      <trkpt lat="43.49572" lon="6.80168">
        <ele>311.79998779297</ele>
        <time>2017-06-01T09:09:30.000Z</time>
      </trkpt>
      <trkpt lat="43.49575" lon="6.80167">
        <ele>313.20001220703</ele>
        <time>2017-06-01T09:09:31.000Z</time>
      </trkpt>
      <trkpt lat="43.4958" lon="6.80168">
        <ele>313</ele>
        <time>2017-06-01T09:09:33.000Z</time>
      </trkpt>
      <trkpt lat="43.49601" lon="6.80167">
        <ele>312.39999389648</ele>
        <time>2017-06-01T09:09:38.000Z</time>
      </trkpt>
      <trkpt lat="43.49611" lon="6.80166">
        <ele>312</ele>
        <time>2017-06-01T09:09:40.000Z</time>
      </trkpt>
      <trkpt lat="43.49627" lon="6.80164">
        <ele>312</ele>
        <time>2017-06-01T09:09:43.000Z</time>
      </trkpt>
      <trkpt lat="43.49663" lon="6.80157">
        <ele>310.79998779297</ele>
        <time>2017-06-01T09:09:49.000Z</time>
      </trkpt>
      <trkpt lat="43.49685" lon="6.80135">
        <ele>309.60000610352</ele>
        <time>2017-06-01T09:09:53.000Z</time>
      </trkpt>
      <trkpt lat="43.49718" lon="6.80101">
        <ele>308.39999389648</ele>
        <time>2017-06-01T09:09:58.000Z</time>
      </trkpt>
      <trkpt lat="43.49724" lon="6.80093">
        <ele>307.79998779297</ele>
        <time>2017-06-01T09:09:59.000Z</time>
      </trkpt>
      <trkpt lat="43.49731" lon="6.80085">
        <ele>307.20001220703</ele>
        <time>2017-06-01T09:10:00.000Z</time>
      </trkpt>
      <trkpt lat="43.49753" lon="6.80061">
        <ele>306</ele>
        <time>2017-06-01T09:10:03.000Z</time>
      </trkpt>
      <trkpt lat="43.49761" lon="6.80054">
        <ele>305.79998779297</ele>
        <time>2017-06-01T09:10:04.000Z</time>
      </trkpt>
      <trkpt lat="43.49769" lon="6.80048">
        <ele>305.20001220703</ele>
        <time>2017-06-01T09:10:05.000Z</time>
      </trkpt>
      <trkpt lat="43.49778" lon="6.80042">
        <ele>304.60000610352</ele>
        <time>2017-06-01T09:10:06.000Z</time>
      </trkpt>
      <trkpt lat="43.49785" lon="6.80035">
        <ele>303.79998779297</ele>
        <time>2017-06-01T09:10:07.000Z</time>
      </trkpt>
      <trkpt lat="43.49791" lon="6.80025">
        <ele>303.20001220703</ele>
        <time>2017-06-01T09:10:08.000Z</time>
      </trkpt>
      <trkpt lat="43.49802" lon="6.80003">
        <ele>302</ele>
        <time>2017-06-01T09:10:10.000Z</time>
      </trkpt>
      <trkpt lat="43.49808" lon="6.79992">
        <ele>301.39999389648</ele>
        <time>2017-06-01T09:10:11.000Z</time>
      </trkpt>
      <trkpt lat="43.49815" lon="6.79982">
        <ele>300.79998779297</ele>
        <time>2017-06-01T09:10:12.000Z</time>
      </trkpt>
      <trkpt lat="43.49831" lon="6.79966">
        <ele>299.60000610352</ele>
        <time>2017-06-01T09:10:14.000Z</time>
      </trkpt>
      <trkpt lat="43.49839" lon="6.79958">
        <ele>299.20001220703</ele>
        <time>2017-06-01T09:10:15.000Z</time>
      </trkpt>
      <trkpt lat="43.49856" lon="6.79943">
        <ele>298.20001220703</ele>
        <time>2017-06-01T09:10:17.000Z</time>
      </trkpt>
      <trkpt lat="43.49871" lon="6.79926">
        <ele>296.79998779297</ele>
        <time>2017-06-01T09:10:19.000Z</time>
      </trkpt>
      <trkpt lat="43.49885" lon="6.79908">
        <ele>296</ele>
        <time>2017-06-01T09:10:21.000Z</time>
      </trkpt>
      <trkpt lat="43.49893" lon="6.79898">
        <ele>295.39999389648</ele>
        <time>2017-06-01T09:10:22.000Z</time>
      </trkpt>
      <trkpt lat="43.49907" lon="6.79878">
        <ele>293.20001220703</ele>
        <time>2017-06-01T09:10:24.000Z</time>
      </trkpt>
      <trkpt lat="43.49923" lon="6.79861">
        <ele>291.79998779297</ele>
        <time>2017-06-01T09:10:26.000Z</time>
      </trkpt>
      <trkpt lat="43.49932" lon="6.79853">
        <ele>291.60000610352</ele>
        <time>2017-06-01T09:10:27.000Z</time>
      </trkpt>
      <trkpt lat="43.49949" lon="6.79837">
        <ele>290.39999389648</ele>
        <time>2017-06-01T09:10:29.000Z</time>
      </trkpt>
      <trkpt lat="43.49966" lon="6.79821">
        <ele>288.60000610352</ele>
        <time>2017-06-01T09:10:31.000Z</time>
      </trkpt>
      <trkpt lat="43.49984" lon="6.79806">
        <ele>287.20001220703</ele>
        <time>2017-06-01T09:10:33.000Z</time>
      </trkpt>
      <trkpt lat="43.49992" lon="6.79798">
        <ele>286.39999389648</ele>
        <time>2017-06-01T09:10:34.000Z</time>
      </trkpt>
      <trkpt lat="43.50001" lon="6.7979">
        <ele>285.20001220703</ele>
        <time>2017-06-01T09:10:35.000Z</time>
      </trkpt>
      <trkpt lat="43.50018" lon="6.79771">
        <ele>283.60000610352</ele>
        <time>2017-06-01T09:10:37.000Z</time>
      </trkpt>
      <trkpt lat="43.50029" lon="6.79746">
        <ele>282.79998779297</ele>
        <time>2017-06-01T09:10:39.000Z</time>
      </trkpt>
      <trkpt lat="43.50031" lon="6.79732">
        <ele>282.39999389648</ele>
        <time>2017-06-01T09:10:40.000Z</time>
      </trkpt>
      <trkpt lat="43.50035" lon="6.79717">
        <ele>281.79998779297</ele>
        <time>2017-06-01T09:10:41.000Z</time>
      </trkpt>
      <trkpt lat="43.50042" lon="6.79705">
        <ele>281.39999389648</ele>
        <time>2017-06-01T09:10:42.000Z</time>
      </trkpt>
      <trkpt lat="43.5005" lon="6.79695">
        <ele>280.79998779297</ele>
        <time>2017-06-01T09:10:43.000Z</time>
      </trkpt>
      <trkpt lat="43.50065" lon="6.79673">
        <ele>280.20001220703</ele>
        <time>2017-06-01T09:10:45.000Z</time>
      </trkpt>
      <trkpt lat="43.50069" lon="6.79659">
        <ele>279.60000610352</ele>
        <time>2017-06-01T09:10:46.000Z</time>
      </trkpt>
      <trkpt lat="43.50071" lon="6.79644">
        <ele>279.39999389648</ele>
        <time>2017-06-01T09:10:47.000Z</time>
      </trkpt>
      <trkpt lat="43.50075" lon="6.79614">
        <ele>278.60000610352</ele>
        <time>2017-06-01T09:10:49.000Z</time>
      </trkpt>
      <trkpt lat="43.50078" lon="6.79599">
        <ele>278</ele>
        <time>2017-06-01T09:10:50.000Z</time>
      </trkpt>
      <trkpt lat="43.50084" lon="6.79585">
        <ele>276.79998779297</ele>
        <time>2017-06-01T09:10:51.000Z</time>
      </trkpt>
      <trkpt lat="43.501" lon="6.79565">
        <ele>275.20001220703</ele>
        <time>2017-06-01T09:10:53.000Z</time>
      </trkpt>
      <trkpt lat="43.50106" lon="6.79553">
        <ele>275</ele>
        <time>2017-06-01T09:10:54.000Z</time>
      </trkpt>
      <trkpt lat="43.50112" lon="6.79524">
        <ele>273.60000610352</ele>
        <time>2017-06-01T09:10:56.000Z</time>
      </trkpt>
      <trkpt lat="43.50116" lon="6.7951">
        <ele>272.60000610352</ele>
        <time>2017-06-01T09:10:57.000Z</time>
      </trkpt>
      <trkpt lat="43.50121" lon="6.79497">
        <ele>271.79998779297</ele>
        <time>2017-06-01T09:10:58.000Z</time>
      </trkpt>
      <trkpt lat="43.50126" lon="6.79486">
        <ele>270.79998779297</ele>
        <time>2017-06-01T09:10:59.000Z</time>
      </trkpt>
      <trkpt lat="43.50129" lon="6.79474">
        <ele>270.20001220703</ele>
        <time>2017-06-01T09:11:00.000Z</time>
      </trkpt>
      <trkpt lat="43.50132" lon="6.79455">
        <ele>268.39999389648</ele>
        <time>2017-06-01T09:11:02.000Z</time>
      </trkpt>
      <trkpt lat="43.50133" lon="6.79448">
        <ele>267.60000610352</ele>
        <time>2017-06-01T09:11:03.000Z</time>
      </trkpt>
      <trkpt lat="43.50135" lon="6.79443">
        <ele>267.20001220703</ele>
        <time>2017-06-01T09:11:04.000Z</time>
      </trkpt>
      <trkpt lat="43.5014" lon="6.79437">
        <ele>266.39999389648</ele>
        <time>2017-06-01T09:11:06.000Z</time>
      </trkpt>
      <trkpt lat="43.50143" lon="6.79438">
        <ele>266.39999389648</ele>
        <time>2017-06-01T09:11:07.000Z</time>
      </trkpt>
      <trkpt lat="43.50146" lon="6.79438">
        <ele>266</ele>
        <time>2017-06-01T09:11:08.000Z</time>
      </trkpt>
      <trkpt lat="43.50151" lon="6.7944">
        <ele>266</ele>
        <time>2017-06-01T09:11:10.000Z</time>
      </trkpt>
      <trkpt lat="43.50158" lon="6.7944">
        <ele>265.79998779297</ele>
        <time>2017-06-01T09:11:24.000Z</time>
      </trkpt>
      <trkpt lat="43.50174" lon="6.79441">
        <ele>265.60000610352</ele>
        <time>2017-06-01T09:11:31.000Z</time>
      </trkpt>
      <trkpt lat="43.50182" lon="6.79429">
        <ele>265.79998779297</ele>
        <time>2017-06-01T09:11:35.000Z</time>
      </trkpt>
      <trkpt lat="43.50188" lon="6.79404">
        <ele>265.20001220703</ele>
        <time>2017-06-01T09:11:40.000Z</time>
      </trkpt>
      <trkpt lat="43.50192" lon="6.79392">
        <ele>265</ele>
        <time>2017-06-01T09:11:42.000Z</time>
      </trkpt>
      <trkpt lat="43.50197" lon="6.79374">
        <ele>264.60000610352</ele>
        <time>2017-06-01T09:11:45.000Z</time>
      </trkpt>
      <trkpt lat="43.50199" lon="6.7937">
        <ele>264.60000610352</ele>
        <time>2017-06-01T09:11:46.000Z</time>
      </trkpt>
      <trkpt lat="43.50212" lon="6.79343">
        <ele>264.20001220703</ele>
        <time>2017-06-01T09:11:53.000Z</time>
      </trkpt>
      <trkpt lat="43.50211" lon="6.79338">
        <ele>264.20001220703</ele>
        <time>2017-06-01T09:11:55.000Z</time>
      </trkpt>
      <trkpt lat="43.5021" lon="6.79335">
        <ele>264</ele>
        <time>2017-06-01T09:11:57.000Z</time>
      </trkpt>
      <trkpt lat="43.50209" lon="6.79325">
        <ele>264.20001220703</ele>
        <time>2017-06-01T09:12:13.000Z</time>
      </trkpt>
      <trkpt lat="43.50212" lon="6.7932">
        <ele>264</ele>
        <time>2017-06-01T09:12:15.000Z</time>
      </trkpt>
      <trkpt lat="43.50226" lon="6.79311">
        <ele>263.20001220703</ele>
        <time>2017-06-01T09:12:19.000Z</time>
      </trkpt>
      <trkpt lat="43.50235" lon="6.79304">
        <ele>262.79998779297</ele>
        <time>2017-06-01T09:12:21.000Z</time>
      </trkpt>
      <trkpt lat="43.50244" lon="6.79294">
        <ele>262</ele>
        <time>2017-06-01T09:12:23.000Z</time>
      </trkpt>
      <trkpt lat="43.5025" lon="6.79281">
        <ele>261.39999389648</ele>
        <time>2017-06-01T09:12:25.000Z</time>
      </trkpt>
      <trkpt lat="43.50255" lon="6.79276">
        <ele>261.39999389648</ele>
        <time>2017-06-01T09:12:26.000Z</time>
      </trkpt>
      <trkpt lat="43.5026" lon="6.79275">
        <ele>261.20001220703</ele>
        <time>2017-06-01T09:12:27.000Z</time>
      </trkpt>
      <trkpt lat="43.50278" lon="6.79277">
        <ele>260.20001220703</ele>
        <time>2017-06-01T09:12:30.000Z</time>
      </trkpt>
      <trkpt lat="43.50284" lon="6.7928">
        <ele>259.79998779297</ele>
        <time>2017-06-01T09:12:31.000Z</time>
      </trkpt>
      <trkpt lat="43.50295" lon="6.79287">
        <ele>259.60000610352</ele>
        <time>2017-06-01T09:12:33.000Z</time>
      </trkpt>
      <trkpt lat="43.50301" lon="6.79289">
        <ele>259.20001220703</ele>
        <time>2017-06-01T09:12:34.000Z</time>
      </trkpt>
      <trkpt lat="43.50308" lon="6.79289">
        <ele>258.60000610352</ele>
        <time>2017-06-01T09:12:35.000Z</time>
      </trkpt>
      <trkpt lat="43.50323" lon="6.79287">
        <ele>257.39999389648</ele>
        <time>2017-06-01T09:12:37.000Z</time>
      </trkpt>
      <trkpt lat="43.50336" lon="6.79281">
        <ele>256.79998779297</ele>
        <time>2017-06-01T09:12:39.000Z</time>
      </trkpt>
      <trkpt lat="43.50342" lon="6.79274">
        <ele>256.39999389648</ele>
        <time>2017-06-01T09:12:40.000Z</time>
      </trkpt>
      <trkpt lat="43.50353" lon="6.79259">
        <ele>256</ele>
        <time>2017-06-01T09:12:42.000Z</time>
      </trkpt>
      <trkpt lat="43.50377" lon="6.79228">
        <ele>255.19999694824</ele>
        <time>2017-06-01T09:12:46.000Z</time>
      </trkpt>
      <trkpt lat="43.50382" lon="6.79205">
        <ele>254.60000610352</ele>
        <time>2017-06-01T09:12:48.000Z</time>
      </trkpt>
      <trkpt lat="43.50381" lon="6.79184">
        <ele>253.80000305176</ele>
        <time>2017-06-01T09:12:50.000Z</time>
      </trkpt>
      <trkpt lat="43.50381" lon="6.79175">
        <ele>253.39999389648</ele>
        <time>2017-06-01T09:12:51.000Z</time>
      </trkpt>
      <trkpt lat="43.50388" lon="6.79161">
        <ele>252.80000305176</ele>
        <time>2017-06-01T09:12:53.000Z</time>
      </trkpt>
      <trkpt lat="43.50393" lon="6.79155">
        <ele>252.39999389648</ele>
        <time>2017-06-01T09:12:54.000Z</time>
      </trkpt>
      <trkpt lat="43.50398" lon="6.79148">
        <ele>252</ele>
        <time>2017-06-01T09:12:55.000Z</time>
      </trkpt>
      <trkpt lat="43.50402" lon="6.79141">
        <ele>251.19999694824</ele>
        <time>2017-06-01T09:12:56.000Z</time>
      </trkpt>
      <trkpt lat="43.50419" lon="6.79109">
        <ele>250</ele>
        <time>2017-06-01T09:13:00.000Z</time>
      </trkpt>
      <trkpt lat="43.50421" lon="6.79099">
        <ele>249.80000305176</ele>
        <time>2017-06-01T09:13:01.000Z</time>
      </trkpt>
      <trkpt lat="43.50418" lon="6.79077">
        <ele>249</ele>
        <time>2017-06-01T09:13:03.000Z</time>
      </trkpt>
      <trkpt lat="43.50416" lon="6.79068">
        <ele>248.39999389648</ele>
        <time>2017-06-01T09:13:04.000Z</time>
      </trkpt>
      <trkpt lat="43.50416" lon="6.79052">
        <ele>247.80000305176</ele>
        <time>2017-06-01T09:13:06.000Z</time>
      </trkpt>
      <trkpt lat="43.50418" lon="6.79047">
        <ele>247.80000305176</ele>
        <time>2017-06-01T09:13:07.000Z</time>
      </trkpt>
      <trkpt lat="43.50429" lon="6.79044">
        <ele>246.60000610352</ele>
        <time>2017-06-01T09:13:10.000Z</time>
      </trkpt>
      <trkpt lat="43.50438" lon="6.79055">
        <ele>246.19999694824</ele>
        <time>2017-06-01T09:13:13.000Z</time>
      </trkpt>
      <trkpt lat="43.50451" lon="6.79061">
        <ele>246</ele>
        <time>2017-06-01T09:13:16.000Z</time>
      </trkpt>
      <trkpt lat="43.50457" lon="6.79063">
        <ele>245.80000305176</ele>
        <time>2017-06-01T09:13:17.000Z</time>
      </trkpt>
      <trkpt lat="43.50463" lon="6.79064">
        <ele>245.60000610352</ele>
        <time>2017-06-01T09:13:18.000Z</time>
      </trkpt>
      <trkpt lat="43.50482" lon="6.79071">
        <ele>244</ele>
        <time>2017-06-01T09:13:21.000Z</time>
      </trkpt>
      <trkpt lat="43.50507" lon="6.79086">
        <ele>243</ele>
        <time>2017-06-01T09:13:25.000Z</time>
      </trkpt>
      <trkpt lat="43.50522" lon="6.79079">
        <ele>241.80000305176</ele>
        <time>2017-06-01T09:13:28.000Z</time>
      </trkpt>
      <trkpt lat="43.50529" lon="6.79068">
        <ele>241.39999389648</ele>
        <time>2017-06-01T09:13:31.000Z</time>
      </trkpt>
      <trkpt lat="43.50529" lon="6.79066">
        <ele>241</ele>
        <time>2017-06-01T09:13:34.000Z</time>
      </trkpt>
      <trkpt lat="43.50532" lon="6.7906">
        <ele>240.80000305176</ele>
        <time>2017-06-01T09:13:42.000Z</time>
      </trkpt>
      <trkpt lat="43.50535" lon="6.79054">
        <ele>240.60000610352</ele>
        <time>2017-06-01T09:13:44.000Z</time>
      </trkpt>
      <trkpt lat="43.50545" lon="6.79032">
        <ele>239.60000610352</ele>
        <time>2017-06-01T09:13:48.000Z</time>
      </trkpt>
      <trkpt lat="43.50548" lon="6.79025">
        <ele>239.39999389648</ele>
        <time>2017-06-01T09:13:49.000Z</time>
      </trkpt>
      <trkpt lat="43.50558" lon="6.78995">
        <ele>238.60000610352</ele>
        <time>2017-06-01T09:13:53.000Z</time>
      </trkpt>
      <trkpt lat="43.50566" lon="6.78972">
        <ele>238</ele>
        <time>2017-06-01T09:13:56.000Z</time>
      </trkpt>
      <trkpt lat="43.50568" lon="6.78963">
        <ele>237.60000610352</ele>
        <time>2017-06-01T09:13:57.000Z</time>
      </trkpt>
      <trkpt lat="43.50569" lon="6.78954">
        <ele>237.39999389648</ele>
        <time>2017-06-01T09:13:58.000Z</time>
      </trkpt>
      <trkpt lat="43.5057" lon="6.78945">
        <ele>237.19999694824</ele>
        <time>2017-06-01T09:13:59.000Z</time>
      </trkpt>
      <trkpt lat="43.5057" lon="6.78927">
        <ele>237</ele>
        <time>2017-06-01T09:14:01.000Z</time>
      </trkpt>
      <trkpt lat="43.50567" lon="6.78918">
        <ele>236.60000610352</ele>
        <time>2017-06-01T09:14:02.000Z</time>
      </trkpt>
      <trkpt lat="43.50564" lon="6.78911">
        <ele>236</ele>
        <time>2017-06-01T09:14:03.000Z</time>
      </trkpt>
      <trkpt lat="43.50561" lon="6.78906">
        <ele>235.60000610352</ele>
        <time>2017-06-01T09:14:04.000Z</time>
      </trkpt>
      <trkpt lat="43.50557" lon="6.78902">
        <ele>234.80000305176</ele>
        <time>2017-06-01T09:14:06.000Z</time>
      </trkpt>
      <trkpt lat="43.50556" lon="6.78902">
        <ele>234.60000610352</ele>
        <time>2017-06-01T09:14:07.000Z</time>
      </trkpt>
      <trkpt lat="43.50554" lon="6.789">
        <ele>234.39999389648</ele>
        <time>2017-06-01T09:14:15.000Z</time>
      </trkpt>
      <trkpt lat="43.50552" lon="6.78898">
        <ele>234.19999694824</ele>
        <time>2017-06-01T09:14:16.000Z</time>
      </trkpt>
      <trkpt lat="43.50535" lon="6.78882">
        <ele>233.80000305176</ele>
        <time>2017-06-01T09:14:21.000Z</time>
      </trkpt>
      <trkpt lat="43.50531" lon="6.78877">
        <ele>233.60000610352</ele>
        <time>2017-06-01T09:14:22.000Z</time>
      </trkpt>
      <trkpt lat="43.50526" lon="6.78856">
        <ele>232.60000610352</ele>
        <time>2017-06-01T09:14:25.000Z</time>
      </trkpt>
      <trkpt lat="43.50532" lon="6.78824">
        <ele>232.60000610352</ele>
        <time>2017-06-01T09:14:29.000Z</time>
      </trkpt>
      <trkpt lat="43.5054" lon="6.78799">
        <ele>230.80000305176</ele>
        <time>2017-06-01T09:14:32.000Z</time>
      </trkpt>
      <trkpt lat="43.50544" lon="6.78791">
        <ele>230.39999389648</ele>
        <time>2017-06-01T09:14:33.000Z</time>
      </trkpt>
      <trkpt lat="43.5055" lon="6.78785">
        <ele>230.39999389648</ele>
        <time>2017-06-01T09:14:34.000Z</time>
      </trkpt>
      <trkpt lat="43.50562" lon="6.78774">
        <ele>230</ele>
        <time>2017-06-01T09:14:36.000Z</time>
      </trkpt>
      <trkpt lat="43.5057" lon="6.78761">
        <ele>229.60000610352</ele>
        <time>2017-06-01T09:14:38.000Z</time>
      </trkpt>
      <trkpt lat="43.50574" lon="6.78742">
        <ele>228.60000610352</ele>
        <time>2017-06-01T09:14:40.000Z</time>
      </trkpt>
      <trkpt lat="43.50575" lon="6.78697">
        <ele>227.80000305176</ele>
        <time>2017-06-01T09:14:44.000Z</time>
      </trkpt>
      <trkpt lat="43.50573" lon="6.78687">
        <ele>227.39999389648</ele>
        <time>2017-06-01T09:14:45.000Z</time>
      </trkpt>
      <trkpt lat="43.50571" lon="6.78677">
        <ele>227</ele>
        <time>2017-06-01T09:14:46.000Z</time>
      </trkpt>
      <trkpt lat="43.50565" lon="6.7866">
        <ele>226.60000610352</ele>
        <time>2017-06-01T09:14:48.000Z</time>
      </trkpt>
      <trkpt lat="43.50559" lon="6.78644">
        <ele>226.39999389648</ele>
        <time>2017-06-01T09:14:50.000Z</time>
      </trkpt>
      <trkpt lat="43.50546" lon="6.78595">
        <ele>225.60000610352</ele>
        <time>2017-06-01T09:14:56.000Z</time>
      </trkpt>
      <trkpt lat="43.50545" lon="6.78587">
        <ele>225.39999389648</ele>
        <time>2017-06-01T09:14:57.000Z</time>
      </trkpt>
      <trkpt lat="43.50543" lon="6.78565">
        <ele>225.39999389648</ele>
        <time>2017-06-01T09:15:00.000Z</time>
      </trkpt>
      <trkpt lat="43.50544" lon="6.78559">
        <ele>225.39999389648</ele>
        <time>2017-06-01T09:15:01.000Z</time>
      </trkpt>
      <trkpt lat="43.50546" lon="6.78554">
        <ele>224.80000305176</ele>
        <time>2017-06-01T09:15:02.000Z</time>
      </trkpt>
      <trkpt lat="43.50554" lon="6.7855">
        <ele>224</ele>
        <time>2017-06-01T09:15:04.000Z</time>
      </trkpt>
      <trkpt lat="43.50559" lon="6.7855">
        <ele>224</ele>
        <time>2017-06-01T09:15:05.000Z</time>
      </trkpt>
      <trkpt lat="43.50564" lon="6.78553">
        <ele>224.19999694824</ele>
        <time>2017-06-01T09:15:06.000Z</time>
      </trkpt>
      <trkpt lat="43.50578" lon="6.78562">
        <ele>224</ele>
        <time>2017-06-01T09:15:09.000Z</time>
      </trkpt>
      <trkpt lat="43.50583" lon="6.78565">
        <ele>223.80000305176</ele>
        <time>2017-06-01T09:15:10.000Z</time>
      </trkpt>
      <trkpt lat="43.50607" lon="6.78585">
        <ele>223.19999694824</ele>
        <time>2017-06-01T09:15:15.000Z</time>
      </trkpt>
      <trkpt lat="43.50629" lon="6.78589">
        <ele>223</ele>
        <time>2017-06-01T09:15:19.000Z</time>
      </trkpt>
      <trkpt lat="43.5064" lon="6.78587">
        <ele>223</ele>
        <time>2017-06-01T09:15:21.000Z</time>
      </trkpt>
      <trkpt lat="43.50647" lon="6.78586">
        <ele>222.80000305176</ele>
        <time>2017-06-01T09:15:22.000Z</time>
      </trkpt>
      <trkpt lat="43.50665" lon="6.78587">
        <ele>222.19999694824</ele>
        <time>2017-06-01T09:15:25.000Z</time>
      </trkpt>
      <trkpt lat="43.50671" lon="6.78589">
        <ele>222</ele>
        <time>2017-06-01T09:15:26.000Z</time>
      </trkpt>
      <trkpt lat="43.50683" lon="6.78591">
        <ele>221.60000610352</ele>
        <time>2017-06-01T09:15:28.000Z</time>
      </trkpt>
      <trkpt lat="43.50696" lon="6.78591">
        <ele>221.60000610352</ele>
        <time>2017-06-01T09:15:30.000Z</time>
      </trkpt>
      <trkpt lat="43.50709" lon="6.78592">
        <ele>221</ele>
        <time>2017-06-01T09:15:32.000Z</time>
      </trkpt>
      <trkpt lat="43.50716" lon="6.78595">
        <ele>220.39999389648</ele>
        <time>2017-06-01T09:15:33.000Z</time>
      </trkpt>
      <trkpt lat="43.50722" lon="6.78599">
        <ele>220.39999389648</ele>
        <time>2017-06-01T09:15:34.000Z</time>
      </trkpt>
      <trkpt lat="43.50751" lon="6.78613">
        <ele>219.39999389648</ele>
        <time>2017-06-01T09:15:39.000Z</time>
      </trkpt>
      <trkpt lat="43.5077" lon="6.78606">
        <ele>219</ele>
        <time>2017-06-01T09:15:42.000Z</time>
      </trkpt>
      <trkpt lat="43.50776" lon="6.78602">
        <ele>218.60000610352</ele>
        <time>2017-06-01T09:15:43.000Z</time>
      </trkpt>
      <trkpt lat="43.50782" lon="6.78597">
        <ele>218.19999694824</ele>
        <time>2017-06-01T09:15:44.000Z</time>
      </trkpt>
      <trkpt lat="43.50804" lon="6.78577">
        <ele>217.80000305176</ele>
        <time>2017-06-01T09:15:48.000Z</time>
      </trkpt>
      <trkpt lat="43.50822" lon="6.78563">
        <ele>217</ele>
        <time>2017-06-01T09:15:51.000Z</time>
      </trkpt>
      <trkpt lat="43.50836" lon="6.78558">
        <ele>216.60000610352</ele>
        <time>2017-06-01T09:15:53.000Z</time>
      </trkpt>
      <trkpt lat="43.50857" lon="6.78552">
        <ele>216</ele>
        <time>2017-06-01T09:15:56.000Z</time>
      </trkpt>
      <trkpt lat="43.50885" lon="6.78543">
        <ele>215</ele>
        <time>2017-06-01T09:16:00.000Z</time>
      </trkpt>
      <trkpt lat="43.50892" lon="6.7854">
        <ele>214.80000305176</ele>
        <time>2017-06-01T09:16:01.000Z</time>
      </trkpt>
      <trkpt lat="43.50911" lon="6.78533">
        <ele>214.60000610352</ele>
        <time>2017-06-01T09:16:04.000Z</time>
      </trkpt>
      <trkpt lat="43.5092" lon="6.78526">
        <ele>214.39999389648</ele>
        <time>2017-06-01T09:16:06.000Z</time>
      </trkpt>
      <trkpt lat="43.50925" lon="6.78515">
        <ele>213.80000305176</ele>
        <time>2017-06-01T09:16:09.000Z</time>
      </trkpt>
      <trkpt lat="43.50924" lon="6.78508">
        <ele>213.19999694824</ele>
        <time>2017-06-01T09:16:12.000Z</time>
      </trkpt>
      <trkpt lat="43.50924" lon="6.78509">
        <ele>213.19999694824</ele>
        <time>2017-06-01T09:16:13.000Z</time>
      </trkpt>
      <trkpt lat="43.50924" lon="6.78503">
        <ele>213</ele>
        <time>2017-06-01T09:16:21.000Z</time>
      </trkpt>
      <trkpt lat="43.50922" lon="6.78499">
        <ele>212.80000305176</ele>
        <time>2017-06-01T09:16:22.000Z</time>
      </trkpt>
      <trkpt lat="43.5092" lon="6.78495">
        <ele>212.60000610352</ele>
        <time>2017-06-01T09:16:23.000Z</time>
      </trkpt>
      <trkpt lat="43.50918" lon="6.7849">
        <ele>212.39999389648</ele>
        <time>2017-06-01T09:16:24.000Z</time>
      </trkpt>
      <trkpt lat="43.5091" lon="6.7848">
        <ele>211.80000305176</ele>
        <time>2017-06-01T09:16:26.000Z</time>
      </trkpt>
      <trkpt lat="43.50901" lon="6.78469">
        <ele>211.60000610352</ele>
        <time>2017-06-01T09:16:28.000Z</time>
      </trkpt>
      <trkpt lat="43.50883" lon="6.78442">
        <ele>210.19999694824</ele>
        <time>2017-06-01T09:16:32.000Z</time>
      </trkpt>
      <trkpt lat="43.50861" lon="6.78403">
        <ele>209</ele>
        <time>2017-06-01T09:16:37.000Z</time>
      </trkpt>
      <trkpt lat="43.50857" lon="6.78394">
        <ele>208.60000610352</ele>
        <time>2017-06-01T09:16:38.000Z</time>
      </trkpt>
      <trkpt lat="43.50855" lon="6.78386">
        <ele>208.19999694824</ele>
        <time>2017-06-01T09:16:39.000Z</time>
      </trkpt>
      <trkpt lat="43.50854" lon="6.78377">
        <ele>207.80000305176</ele>
        <time>2017-06-01T09:16:40.000Z</time>
      </trkpt>
      <trkpt lat="43.50857" lon="6.78369">
        <ele>207.39999389648</ele>
        <time>2017-06-01T09:16:41.000Z</time>
      </trkpt>
      <trkpt lat="43.50871" lon="6.78345">
        <ele>206.39999389648</ele>
        <time>2017-06-01T09:16:44.000Z</time>
      </trkpt>
      <trkpt lat="43.50877" lon="6.78338">
        <ele>206</ele>
        <time>2017-06-01T09:16:45.000Z</time>
      </trkpt>
      <trkpt lat="43.50893" lon="6.78316">
        <ele>205.39999389648</ele>
        <time>2017-06-01T09:16:48.000Z</time>
      </trkpt>
      <trkpt lat="43.50911" lon="6.78292">
        <ele>204.19999694824</ele>
        <time>2017-06-01T09:16:51.000Z</time>
      </trkpt>
      <trkpt lat="43.50917" lon="6.78285">
        <ele>203.80000305176</ele>
        <time>2017-06-01T09:16:52.000Z</time>
      </trkpt>
      <trkpt lat="43.50935" lon="6.7826">
        <ele>203</ele>
        <time>2017-06-01T09:16:55.000Z</time>
      </trkpt>
      <trkpt lat="43.50941" lon="6.78252">
        <ele>201.80000305176</ele>
        <time>2017-06-01T09:16:56.000Z</time>
      </trkpt>
      <trkpt lat="43.50948" lon="6.78245">
        <ele>201.39999389648</ele>
        <time>2017-06-01T09:16:57.000Z</time>
      </trkpt>
      <trkpt lat="43.50976" lon="6.78224">
        <ele>200.60000610352</ele>
        <time>2017-06-01T09:17:01.000Z</time>
      </trkpt>
      <trkpt lat="43.50982" lon="6.7822">
        <ele>200.39999389648</ele>
        <time>2017-06-01T09:17:02.000Z</time>
      </trkpt>
      <trkpt lat="43.51003" lon="6.78207">
        <ele>199.80000305176</ele>
        <time>2017-06-01T09:17:05.000Z</time>
      </trkpt>
      <trkpt lat="43.51011" lon="6.78205">
        <ele>199.19999694824</ele>
        <time>2017-06-01T09:17:06.000Z</time>
      </trkpt>
      <trkpt lat="43.51019" lon="6.78202">
        <ele>198.80000305176</ele>
        <time>2017-06-01T09:17:07.000Z</time>
      </trkpt>
      <trkpt lat="43.5105" lon="6.7819">
        <ele>198</ele>
        <time>2017-06-01T09:17:11.000Z</time>
      </trkpt>
      <trkpt lat="43.51064" lon="6.78179">
        <ele>197.19999694824</ele>
        <time>2017-06-01T09:17:13.000Z</time>
      </trkpt>
      <trkpt lat="43.5107" lon="6.78172">
        <ele>197</ele>
        <time>2017-06-01T09:17:14.000Z</time>
      </trkpt>
      <trkpt lat="43.51079" lon="6.78156">
        <ele>196.60000610352</ele>
        <time>2017-06-01T09:17:16.000Z</time>
      </trkpt>
      <trkpt lat="43.51084" lon="6.78123">
        <ele>196.39999389648</ele>
        <time>2017-06-01T09:17:20.000Z</time>
      </trkpt>
      <trkpt lat="43.51085" lon="6.78108">
        <ele>196.39999389648</ele>
        <time>2017-06-01T09:17:22.000Z</time>
      </trkpt>
      <trkpt lat="43.5109" lon="6.78087">
        <ele>196.39999389648</ele>
        <time>2017-06-01T09:17:25.000Z</time>
      </trkpt>
      <trkpt lat="43.51102" lon="6.78042">
        <ele>196</ele>
        <time>2017-06-01T09:17:31.000Z</time>
      </trkpt>
      <trkpt lat="43.51105" lon="6.78026">
        <ele>195.80000305176</ele>
        <time>2017-06-01T09:17:33.000Z</time>
      </trkpt>
      <trkpt lat="43.51107" lon="6.7801">
        <ele>195.19999694824</ele>
        <time>2017-06-01T09:17:35.000Z</time>
      </trkpt>
      <trkpt lat="43.51108" lon="6.77985">
        <ele>195</ele>
        <time>2017-06-01T09:17:38.000Z</time>
      </trkpt>
      <trkpt lat="43.51108" lon="6.77976">
        <ele>194.80000305176</ele>
        <time>2017-06-01T09:17:39.000Z</time>
      </trkpt>
      <trkpt lat="43.51108" lon="6.77967">
        <ele>194.39999389648</ele>
        <time>2017-06-01T09:17:40.000Z</time>
      </trkpt>
      <trkpt lat="43.51112" lon="6.7795">
        <ele>193.60000610352</ele>
        <time>2017-06-01T09:17:42.000Z</time>
      </trkpt>
      <trkpt lat="43.51119" lon="6.77922">
        <ele>192.19999694824</ele>
        <time>2017-06-01T09:17:45.000Z</time>
      </trkpt>
      <trkpt lat="43.51124" lon="6.77904">
        <ele>191</ele>
        <time>2017-06-01T09:17:47.000Z</time>
      </trkpt>
      <trkpt lat="43.51125" lon="6.77895">
        <ele>191</ele>
        <time>2017-06-01T09:17:48.000Z</time>
      </trkpt>
      <trkpt lat="43.51122" lon="6.77873">
        <ele>190.39999389648</ele>
        <time>2017-06-01T09:17:51.000Z</time>
      </trkpt>
      <trkpt lat="43.51118" lon="6.77867">
        <ele>189.80000305176</ele>
        <time>2017-06-01T09:17:52.000Z</time>
      </trkpt>
      <trkpt lat="43.51107" lon="6.77856">
        <ele>188.60000610352</ele>
        <time>2017-06-01T09:17:54.000Z</time>
      </trkpt>
      <trkpt lat="43.51093" lon="6.7785">
        <ele>187.19999694824</ele>
        <time>2017-06-01T09:17:56.000Z</time>
      </trkpt>
      <trkpt lat="43.51077" lon="6.77847">
        <ele>185.39999389648</ele>
        <time>2017-06-01T09:17:58.000Z</time>
      </trkpt>
      <trkpt lat="43.51052" lon="6.77848">
        <ele>184</ele>
        <time>2017-06-01T09:18:01.000Z</time>
      </trkpt>
      <trkpt lat="43.51035" lon="6.77851">
        <ele>182.80000305176</ele>
        <time>2017-06-01T09:18:03.000Z</time>
      </trkpt>
      <trkpt lat="43.51008" lon="6.77859">
        <ele>181.19999694824</ele>
        <time>2017-06-01T09:18:06.000Z</time>
      </trkpt>
      <trkpt lat="43.50991" lon="6.77866">
        <ele>179</ele>
        <time>2017-06-01T09:18:08.000Z</time>
      </trkpt>
      <trkpt lat="43.50982" lon="6.77869">
        <ele>178.19999694824</ele>
        <time>2017-06-01T09:18:09.000Z</time>
      </trkpt>
      <trkpt lat="43.50975" lon="6.77871">
        <ele>177.39999389648</ele>
        <time>2017-06-01T09:18:10.000Z</time>
      </trkpt>
      <trkpt lat="43.50968" lon="6.77872">
        <ele>176.60000610352</ele>
        <time>2017-06-01T09:18:11.000Z</time>
      </trkpt>
      <trkpt lat="43.5096" lon="6.77871">
        <ele>176</ele>
        <time>2017-06-01T09:18:12.000Z</time>
      </trkpt>
      <trkpt lat="43.50938" lon="6.77857">
        <ele>174.39999389648</ele>
        <time>2017-06-01T09:18:15.000Z</time>
      </trkpt>
      <trkpt lat="43.50922" lon="6.77849">
        <ele>172.80000305176</ele>
        <time>2017-06-01T09:18:17.000Z</time>
      </trkpt>
      <trkpt lat="43.50905" lon="6.77844">
        <ele>171.60000610352</ele>
        <time>2017-06-01T09:18:19.000Z</time>
      </trkpt>
      <trkpt lat="43.50886" lon="6.77841">
        <ele>170.60000610352</ele>
        <time>2017-06-01T09:18:21.000Z</time>
      </trkpt>
      <trkpt lat="43.50858" lon="6.77837">
        <ele>169.19999694824</ele>
        <time>2017-06-01T09:18:24.000Z</time>
      </trkpt>
      <trkpt lat="43.50849" lon="6.77835">
        <ele>168</ele>
        <time>2017-06-01T09:18:25.000Z</time>
      </trkpt>
      <trkpt lat="43.50832" lon="6.77832">
        <ele>166.39999389648</ele>
        <time>2017-06-01T09:18:27.000Z</time>
      </trkpt>
      <trkpt lat="43.50818" lon="6.77831">
        <ele>165.19999694824</ele>
        <time>2017-06-01T09:18:29.000Z</time>
      </trkpt>
      <trkpt lat="43.50805" lon="6.7783">
        <ele>164</ele>
        <time>2017-06-01T09:18:31.000Z</time>
      </trkpt>
      <trkpt lat="43.50794" lon="6.77829">
        <ele>162.80000305176</ele>
        <time>2017-06-01T09:18:33.000Z</time>
      </trkpt>
      <trkpt lat="43.50788" lon="6.77827">
        <ele>162.19999694824</ele>
        <time>2017-06-01T09:18:34.000Z</time>
      </trkpt>
      <trkpt lat="43.50782" lon="6.77825">
        <ele>161.60000610352</ele>
        <time>2017-06-01T09:18:35.000Z</time>
      </trkpt>
      <trkpt lat="43.50769" lon="6.77816">
        <ele>160.19999694824</ele>
        <time>2017-06-01T09:18:37.000Z</time>
      </trkpt>
      <trkpt lat="43.50763" lon="6.77812">
        <ele>159.39999389648</ele>
        <time>2017-06-01T09:18:38.000Z</time>
      </trkpt>
      <trkpt lat="43.50755" lon="6.77809">
        <ele>158.60000610352</ele>
        <time>2017-06-01T09:18:39.000Z</time>
      </trkpt>
      <trkpt lat="43.50741" lon="6.77804">
        <ele>157</ele>
        <time>2017-06-01T09:18:41.000Z</time>
      </trkpt>
      <trkpt lat="43.50735" lon="6.77801">
        <ele>156.39999389648</ele>
        <time>2017-06-01T09:18:42.000Z</time>
      </trkpt>
      <trkpt lat="43.50728" lon="6.77793">
        <ele>155.80000305176</ele>
        <time>2017-06-01T09:18:44.000Z</time>
      </trkpt>
      <trkpt lat="43.50727" lon="6.77792">
        <ele>155.60000610352</ele>
        <time>2017-06-01T09:18:45.000Z</time>
      </trkpt>
      <trkpt lat="43.50725" lon="6.77788">
        <ele>154.80000305176</ele>
        <time>2017-06-01T09:18:56.000Z</time>
      </trkpt>
      <trkpt lat="43.50724" lon="6.77786">
        <ele>154.80000305176</ele>
        <time>2017-06-01T09:18:57.000Z</time>
      </trkpt>
      <trkpt lat="43.50724" lon="6.77782">
        <ele>154.80000305176</ele>
        <time>2017-06-01T09:18:58.000Z</time>
      </trkpt>
      <trkpt lat="43.50726" lon="6.77772">
        <ele>154.39999389648</ele>
        <time>2017-06-01T09:19:00.000Z</time>
      </trkpt>
      <trkpt lat="43.50734" lon="6.77759">
        <ele>153</ele>
        <time>2017-06-01T09:19:02.000Z</time>
      </trkpt>
      <trkpt lat="43.5074" lon="6.77752">
        <ele>152.19999694824</ele>
        <time>2017-06-01T09:19:03.000Z</time>
      </trkpt>
      <trkpt lat="43.50746" lon="6.77745">
        <ele>151.39999389648</ele>
        <time>2017-06-01T09:19:04.000Z</time>
      </trkpt>
      <trkpt lat="43.50753" lon="6.77737">
        <ele>150.39999389648</ele>
        <time>2017-06-01T09:19:05.000Z</time>
      </trkpt>
      <trkpt lat="43.50759" lon="6.77728">
        <ele>149.39999389648</ele>
        <time>2017-06-01T09:19:06.000Z</time>
      </trkpt>
      <trkpt lat="43.50765" lon="6.77719">
        <ele>148.80000305176</ele>
        <time>2017-06-01T09:19:07.000Z</time>
      </trkpt>
      <trkpt lat="43.50768" lon="6.77698">
        <ele>148.19999694824</ele>
        <time>2017-06-01T09:19:09.000Z</time>
      </trkpt>
      <trkpt lat="43.50762" lon="6.7768">
        <ele>147</ele>
        <time>2017-06-01T09:19:11.000Z</time>
      </trkpt>
      <trkpt lat="43.50744" lon="6.77665">
        <ele>146.39999389648</ele>
        <time>2017-06-01T09:19:14.000Z</time>
      </trkpt>
      <trkpt lat="43.50737" lon="6.77661">
        <ele>146.19999694824</ele>
        <time>2017-06-01T09:19:15.000Z</time>
      </trkpt>
      <trkpt lat="43.5073" lon="6.77658">
        <ele>145.60000610352</ele>
        <time>2017-06-01T09:19:16.000Z</time>
      </trkpt>
      <trkpt lat="43.50717" lon="6.7765">
        <ele>144.60000610352</ele>
        <time>2017-06-01T09:19:18.000Z</time>
      </trkpt>
      <trkpt lat="43.50706" lon="6.77636">
        <ele>142.39999389648</ele>
        <time>2017-06-01T09:19:20.000Z</time>
      </trkpt>
      <trkpt lat="43.50701" lon="6.77628">
        <ele>141.80000305176</ele>
        <time>2017-06-01T09:19:21.000Z</time>
      </trkpt>
      <trkpt lat="43.50696" lon="6.77618">
        <ele>141.19999694824</ele>
        <time>2017-06-01T09:19:22.000Z</time>
      </trkpt>
      <trkpt lat="43.50692" lon="6.77609">
        <ele>140.80000305176</ele>
        <time>2017-06-01T09:19:23.000Z</time>
      </trkpt>
      <trkpt lat="43.50688" lon="6.77589">
        <ele>139.80000305176</ele>
        <time>2017-06-01T09:19:25.000Z</time>
      </trkpt>
      <trkpt lat="43.50689" lon="6.77556">
        <ele>138.60000610352</ele>
        <time>2017-06-01T09:19:28.000Z</time>
      </trkpt>
      <trkpt lat="43.50691" lon="6.77545">
        <ele>138</ele>
        <time>2017-06-01T09:19:29.000Z</time>
      </trkpt>
      <trkpt lat="43.50694" lon="6.77534">
        <ele>137.19999694824</ele>
        <time>2017-06-01T09:19:30.000Z</time>
      </trkpt>
      <trkpt lat="43.50698" lon="6.77511">
        <ele>136.19999694824</ele>
        <time>2017-06-01T09:19:32.000Z</time>
      </trkpt>
      <trkpt lat="43.507" lon="6.775">
        <ele>135.60000610352</ele>
        <time>2017-06-01T09:19:33.000Z</time>
      </trkpt>
      <trkpt lat="43.50701" lon="6.7749">
        <ele>135</ele>
        <time>2017-06-01T09:19:34.000Z</time>
      </trkpt>
      <trkpt lat="43.50701" lon="6.77482">
        <ele>134.60000610352</ele>
        <time>2017-06-01T09:19:35.000Z</time>
      </trkpt>
      <trkpt lat="43.507" lon="6.77475">
        <ele>134.19999694824</ele>
        <time>2017-06-01T09:19:36.000Z</time>
      </trkpt>
      <trkpt lat="43.50699" lon="6.7747">
        <ele>133.60000610352</ele>
        <time>2017-06-01T09:19:37.000Z</time>
      </trkpt>
      <trkpt lat="43.50697" lon="6.77466">
        <ele>132.39999389648</ele>
        <time>2017-06-01T09:19:39.000Z</time>
      </trkpt>
      <trkpt lat="43.50694" lon="6.77459">
        <ele>131.60000610352</ele>
        <time>2017-06-01T09:19:52.000Z</time>
      </trkpt>
      <trkpt lat="43.50692" lon="6.77455">
        <ele>131.39999389648</ele>
        <time>2017-06-01T09:19:53.000Z</time>
      </trkpt>
      <trkpt lat="43.50692" lon="6.7745">
        <ele>131</ele>
        <time>2017-06-01T09:19:54.000Z</time>
      </trkpt>
      <trkpt lat="43.50694" lon="6.7744">
        <ele>130.39999389648</ele>
        <time>2017-06-01T09:19:56.000Z</time>
      </trkpt>
      <trkpt lat="43.50697" lon="6.77433">
        <ele>130</ele>
        <time>2017-06-01T09:19:57.000Z</time>
      </trkpt>
      <trkpt lat="43.50708" lon="6.77408">
        <ele>128.19999694824</ele>
        <time>2017-06-01T09:20:00.000Z</time>
      </trkpt>
      <trkpt lat="43.50711" lon="6.77398">
        <ele>127.40000152588</ele>
        <time>2017-06-01T09:20:01.000Z</time>
      </trkpt>
      <trkpt lat="43.50712" lon="6.77387">
        <ele>126.19999694824</ele>
        <time>2017-06-01T09:20:02.000Z</time>
      </trkpt>
      <trkpt lat="43.50713" lon="6.77375">
        <ele>124.80000305176</ele>
        <time>2017-06-01T09:20:03.000Z</time>
      </trkpt>
      <trkpt lat="43.50712" lon="6.77363">
        <ele>123.59999847412</ele>
        <time>2017-06-01T09:20:04.000Z</time>
      </trkpt>
      <trkpt lat="43.50711" lon="6.77351">
        <ele>122.19999694824</ele>
        <time>2017-06-01T09:20:05.000Z</time>
      </trkpt>
      <trkpt lat="43.5071" lon="6.77341">
        <ele>120.80000305176</ele>
        <time>2017-06-01T09:20:06.000Z</time>
      </trkpt>
      <trkpt lat="43.5071" lon="6.77331">
        <ele>119.80000305176</ele>
        <time>2017-06-01T09:20:07.000Z</time>
      </trkpt>
      <trkpt lat="43.5071" lon="6.77322">
        <ele>117.80000305176</ele>
        <time>2017-06-01T09:20:08.000Z</time>
      </trkpt>
      <trkpt lat="43.50714" lon="6.77306">
        <ele>116</ele>
        <time>2017-06-01T09:20:10.000Z</time>
      </trkpt>
      <trkpt lat="43.50727" lon="6.77292">
        <ele>114.19999694824</ele>
        <time>2017-06-01T09:20:12.000Z</time>
      </trkpt>
      <trkpt lat="43.50735" lon="6.77285">
        <ele>113.19999694824</ele>
        <time>2017-06-01T09:20:13.000Z</time>
      </trkpt>
      <trkpt lat="43.50743" lon="6.77279">
        <ele>111.80000305176</ele>
        <time>2017-06-01T09:20:14.000Z</time>
      </trkpt>
      <trkpt lat="43.50752" lon="6.77272">
        <ele>110.59999847412</ele>
        <time>2017-06-01T09:20:15.000Z</time>
      </trkpt>
      <trkpt lat="43.5076" lon="6.77267">
        <ele>109.59999847412</ele>
        <time>2017-06-01T09:20:16.000Z</time>
      </trkpt>
      <trkpt lat="43.50767" lon="6.77262">
        <ele>108.59999847412</ele>
        <time>2017-06-01T09:20:17.000Z</time>
      </trkpt>
      <trkpt lat="43.50774" lon="6.7726">
        <ele>107.59999847412</ele>
        <time>2017-06-01T09:20:18.000Z</time>
      </trkpt>
      <trkpt lat="43.50782" lon="6.7726">
        <ele>106.59999847412</ele>
        <time>2017-06-01T09:20:19.000Z</time>
      </trkpt>
      <trkpt lat="43.50798" lon="6.77266">
        <ele>104.80000305176</ele>
        <time>2017-06-01T09:20:21.000Z</time>
      </trkpt>
      <trkpt lat="43.50806" lon="6.77269">
        <ele>104</ele>
        <time>2017-06-01T09:20:22.000Z</time>
      </trkpt>
      <trkpt lat="43.50813" lon="6.77271">
        <ele>103.19999694824</ele>
        <time>2017-06-01T09:20:23.000Z</time>
      </trkpt>
      <trkpt lat="43.50819" lon="6.77271">
        <ele>102.19999694824</ele>
        <time>2017-06-01T09:20:24.000Z</time>
      </trkpt>
      <trkpt lat="43.50826" lon="6.77269">
        <ele>101.40000152588</ele>
        <time>2017-06-01T09:20:25.000Z</time>
      </trkpt>
      <trkpt lat="43.50838" lon="6.77257">
        <ele>99.800003051758</ele>
        <time>2017-06-01T09:20:27.000Z</time>
      </trkpt>
      <trkpt lat="43.50845" lon="6.7725">
        <ele>98.599998474121</ele>
        <time>2017-06-01T09:20:28.000Z</time>
      </trkpt>
      <trkpt lat="43.50851" lon="6.77242">
        <ele>97.400001525879</ele>
        <time>2017-06-01T09:20:29.000Z</time>
      </trkpt>
      <trkpt lat="43.50857" lon="6.77235">
        <ele>96.199996948242</ele>
        <time>2017-06-01T09:20:30.000Z</time>
      </trkpt>
      <trkpt lat="43.50862" lon="6.77228">
        <ele>95.400001525879</ele>
        <time>2017-06-01T09:20:31.000Z</time>
      </trkpt>
      <trkpt lat="43.50865" lon="6.77221">
        <ele>93.800003051758</ele>
        <time>2017-06-01T09:20:32.000Z</time>
      </trkpt>
      <trkpt lat="43.50866" lon="6.77208">
        <ele>92.199996948242</ele>
        <time>2017-06-01T09:20:34.000Z</time>
      </trkpt>
      <trkpt lat="43.5086" lon="6.77196">
        <ele>90.400001525879</ele>
        <time>2017-06-01T09:20:36.000Z</time>
      </trkpt>
      <trkpt lat="43.50855" lon="6.7719">
        <ele>89.400001525879</ele>
        <time>2017-06-01T09:20:37.000Z</time>
      </trkpt>
      <trkpt lat="43.50851" lon="6.77183">
        <ele>88.599998474121</ele>
        <time>2017-06-01T09:20:38.000Z</time>
      </trkpt>
      <trkpt lat="43.50848" lon="6.77175">
        <ele>87.800003051758</ele>
        <time>2017-06-01T09:20:39.000Z</time>
      </trkpt>
      <trkpt lat="43.50846" lon="6.77166">
        <ele>87.199996948242</ele>
        <time>2017-06-01T09:20:40.000Z</time>
      </trkpt>
      <trkpt lat="43.50843" lon="6.77147">
        <ele>86.599998474121</ele>
        <time>2017-06-01T09:20:42.000Z</time>
      </trkpt>
      <trkpt lat="43.5084" lon="6.77139">
        <ele>86</ele>
        <time>2017-06-01T09:20:43.000Z</time>
      </trkpt>
      <trkpt lat="43.50836" lon="6.77132">
        <ele>85</ele>
        <time>2017-06-01T09:20:44.000Z</time>
      </trkpt>
      <trkpt lat="43.50829" lon="6.77126">
        <ele>83.599998474121</ele>
        <time>2017-06-01T09:20:45.000Z</time>
      </trkpt>
      <trkpt lat="43.50823" lon="6.77121">
        <ele>82.199996948242</ele>
        <time>2017-06-01T09:20:46.000Z</time>
      </trkpt>
      <trkpt lat="43.50816" lon="6.77116">
        <ele>80.800003051758</ele>
        <time>2017-06-01T09:20:47.000Z</time>
      </trkpt>
      <trkpt lat="43.50811" lon="6.77111">
        <ele>79.800003051758</ele>
        <time>2017-06-01T09:20:48.000Z</time>
      </trkpt>
      <trkpt lat="43.50807" lon="6.77104">
        <ele>79</ele>
        <time>2017-06-01T09:20:49.000Z</time>
      </trkpt>
      <trkpt lat="43.50804" lon="6.77097">
        <ele>78.400001525879</ele>
        <time>2017-06-01T09:20:50.000Z</time>
      </trkpt>
      <trkpt lat="43.50802" lon="6.77088">
        <ele>78</ele>
        <time>2017-06-01T09:20:51.000Z</time>
      </trkpt>
      <trkpt lat="43.50802" lon="6.77067">
        <ele>76</ele>
        <time>2017-06-01T09:20:53.000Z</time>
      </trkpt>
      <trkpt lat="43.50804" lon="6.77056">
        <ele>75</ele>
        <time>2017-06-01T09:20:54.000Z</time>
      </trkpt>
      <trkpt lat="43.50806" lon="6.77034">
        <ele>71.599998474121</ele>
        <time>2017-06-01T09:20:56.000Z</time>
      </trkpt>
      <trkpt lat="43.50808" lon="6.77025">
        <ele>70.599998474121</ele>
        <time>2017-06-01T09:20:57.000Z</time>
      </trkpt>
      <trkpt lat="43.50809" lon="6.77018">
        <ele>69.599998474121</ele>
        <time>2017-06-01T09:20:58.000Z</time>
      </trkpt>
      <trkpt lat="43.50812" lon="6.77014">
        <ele>69</ele>
        <time>2017-06-01T09:20:59.000Z</time>
      </trkpt>
      <trkpt lat="43.50816" lon="6.77012">
        <ele>68.199996948242</ele>
        <time>2017-06-01T09:21:00.000Z</time>
      </trkpt>
      <trkpt lat="43.5082" lon="6.77014">
        <ele>67.599998474121</ele>
        <time>2017-06-01T09:21:01.000Z</time>
      </trkpt>
      <trkpt lat="43.50829" lon="6.77021">
        <ele>66.400001525879</ele>
        <time>2017-06-01T09:21:03.000Z</time>
      </trkpt>
      <trkpt lat="43.50836" lon="6.77019">
        <ele>65.199996948242</ele>
        <time>2017-06-01T09:21:05.000Z</time>
      </trkpt>
      <trkpt lat="43.50836" lon="6.77001">
        <ele>64</ele>
        <time>2017-06-01T09:21:08.000Z</time>
      </trkpt>
      <trkpt lat="43.50836" lon="6.76994">
        <ele>63.599998474121</ele>
        <time>2017-06-01T09:21:09.000Z</time>
      </trkpt>
      <trkpt lat="43.50835" lon="6.76986">
        <ele>63</ele>
        <time>2017-06-01T09:21:10.000Z</time>
      </trkpt>
      <trkpt lat="43.50836" lon="6.76967">
        <ele>62</ele>
        <time>2017-06-01T09:21:12.000Z</time>
      </trkpt>
      <trkpt lat="43.50836" lon="6.76958">
        <ele>61.599998474121</ele>
        <time>2017-06-01T09:21:13.000Z</time>
      </trkpt>
      <trkpt lat="43.50835" lon="6.76947">
        <ele>61</ele>
        <time>2017-06-01T09:21:14.000Z</time>
      </trkpt>
      <trkpt lat="43.50833" lon="6.76936">
        <ele>60.400001525879</ele>
        <time>2017-06-01T09:21:15.000Z</time>
      </trkpt>
      <trkpt lat="43.5083" lon="6.76924">
        <ele>59.400001525879</ele>
        <time>2017-06-01T09:21:16.000Z</time>
      </trkpt>
      <trkpt lat="43.50826" lon="6.76913">
        <ele>58.799999237061</ele>
        <time>2017-06-01T09:21:17.000Z</time>
      </trkpt>
      <trkpt lat="43.50814" lon="6.76892">
        <ele>56.799999237061</ele>
        <time>2017-06-01T09:21:19.000Z</time>
      </trkpt>
      <trkpt lat="43.50807" lon="6.76885">
        <ele>54.400001525879</ele>
        <time>2017-06-01T09:21:20.000Z</time>
      </trkpt>
      <trkpt lat="43.50799" lon="6.7688">
        <ele>53.200000762939</ele>
        <time>2017-06-01T09:21:21.000Z</time>
      </trkpt>
      <trkpt lat="43.50791" lon="6.76878">
        <ele>52.400001525879</ele>
        <time>2017-06-01T09:21:22.000Z</time>
      </trkpt>
      <trkpt lat="43.50782" lon="6.76878">
        <ele>52</ele>
        <time>2017-06-01T09:21:23.000Z</time>
      </trkpt>
      <trkpt lat="43.50766" lon="6.76886">
        <ele>50.799999237061</ele>
        <time>2017-06-01T09:21:25.000Z</time>
      </trkpt>
      <trkpt lat="43.50759" lon="6.76893">
        <ele>49.599998474121</ele>
        <time>2017-06-01T09:21:26.000Z</time>
      </trkpt>
      <trkpt lat="43.50754" lon="6.76902">
        <ele>48.400001525879</ele>
        <time>2017-06-01T09:21:27.000Z</time>
      </trkpt>
      <trkpt lat="43.50749" lon="6.76911">
        <ele>48</ele>
        <time>2017-06-01T09:21:28.000Z</time>
      </trkpt>
      <trkpt lat="43.50745" lon="6.76931">
        <ele>46.799999237061</ele>
        <time>2017-06-01T09:21:30.000Z</time>
      </trkpt>
      <trkpt lat="43.50741" lon="6.76946">
        <ele>45.400001525879</ele>
        <time>2017-06-01T09:21:32.000Z</time>
      </trkpt>
      <trkpt lat="43.50733" lon="6.76949">
        <ele>44.200000762939</ele>
        <time>2017-06-01T09:21:35.000Z</time>
      </trkpt>
      <trkpt lat="43.50731" lon="6.76937">
        <ele>42.799999237061</ele>
        <time>2017-06-01T09:21:38.000Z</time>
      </trkpt>
      <trkpt lat="43.5073" lon="6.76932">
        <ele>42.400001525879</ele>
        <time>2017-06-01T09:21:39.000Z</time>
      </trkpt>
      <trkpt lat="43.5073" lon="6.76927">
        <ele>41.400001525879</ele>
        <time>2017-06-01T09:21:41.000Z</time>
      </trkpt>
      <trkpt lat="43.5073" lon="6.76922">
        <ele>40.799999237061</ele>
        <time>2017-06-01T09:21:52.000Z</time>
      </trkpt>
      <trkpt lat="43.50728" lon="6.76903">
        <ele>41</ele>
        <time>2017-06-01T09:21:57.000Z</time>
      </trkpt>
      <trkpt lat="43.5073" lon="6.7687">
        <ele>40.799999237061</ele>
        <time>2017-06-01T09:22:03.000Z</time>
      </trkpt>
      <trkpt lat="43.50733" lon="6.7686">
        <ele>40.799999237061</ele>
        <time>2017-06-01T09:22:05.000Z</time>
      </trkpt>
      <trkpt lat="43.50738" lon="6.7685">
        <ele>41</ele>
        <time>2017-06-01T09:22:07.000Z</time>
      </trkpt>
      <trkpt lat="43.50741" lon="6.76845">
        <ele>40.599998474121</ele>
        <time>2017-06-01T09:22:08.000Z</time>
      </trkpt>
      <trkpt lat="43.50754" lon="6.76823">
        <ele>40.200000762939</ele>
        <time>2017-06-01T09:22:12.000Z</time>
      </trkpt>
      <trkpt lat="43.50758" lon="6.76817">
        <ele>40</ele>
        <time>2017-06-01T09:22:13.000Z</time>
      </trkpt>
      <trkpt lat="43.50767" lon="6.76794">
        <ele>39.400001525879</ele>
        <time>2017-06-01T09:22:16.000Z</time>
      </trkpt>
      <trkpt lat="43.5077" lon="6.76784">
        <ele>39</ele>
        <time>2017-06-01T09:22:17.000Z</time>
      </trkpt>
      <trkpt lat="43.50775" lon="6.76763">
        <ele>38</ele>
        <time>2017-06-01T09:22:19.000Z</time>
      </trkpt>
      <trkpt lat="43.50776" lon="6.76752">
        <ele>37.400001525879</ele>
        <time>2017-06-01T09:22:20.000Z</time>
      </trkpt>
      <trkpt lat="43.50775" lon="6.7674">
        <ele>37</ele>
        <time>2017-06-01T09:22:21.000Z</time>
      </trkpt>
      <trkpt lat="43.50771" lon="6.76719">
        <ele>36</ele>
        <time>2017-06-01T09:22:23.000Z</time>
      </trkpt>
      <trkpt lat="43.50769" lon="6.76712">
        <ele>35.400001525879</ele>
        <time>2017-06-01T09:22:24.000Z</time>
      </trkpt>
      <trkpt lat="43.50769" lon="6.76705">
        <ele>35</ele>
        <time>2017-06-01T09:22:25.000Z</time>
      </trkpt>
      <trkpt lat="43.50769" lon="6.767">
        <ele>34.400001525879</ele>
        <time>2017-06-01T09:22:26.000Z</time>
      </trkpt>
      <trkpt lat="43.50772" lon="6.76692">
        <ele>33.200000762939</ele>
        <time>2017-06-01T09:22:28.000Z</time>
      </trkpt>
      <trkpt lat="43.50779" lon="6.76686">
        <ele>32.200000762939</ele>
        <time>2017-06-01T09:22:30.000Z</time>
      </trkpt>
      <trkpt lat="43.50784" lon="6.76684">
        <ele>31.799999237061</ele>
        <time>2017-06-01T09:22:31.000Z</time>
      </trkpt>
      <trkpt lat="43.50789" lon="6.76682">
        <ele>31.39999961853</ele>
        <time>2017-06-01T09:22:32.000Z</time>
      </trkpt>
      <trkpt lat="43.50794" lon="6.76679">
        <ele>31</ele>
        <time>2017-06-01T09:22:33.000Z</time>
      </trkpt>
      <trkpt lat="43.50798" lon="6.76675">
        <ele>30.799999237061</ele>
        <time>2017-06-01T09:22:34.000Z</time>
      </trkpt>
      <trkpt lat="43.50803" lon="6.7667">
        <ele>30.60000038147</ele>
        <time>2017-06-01T09:22:35.000Z</time>
      </trkpt>
      <trkpt lat="43.50811" lon="6.76649">
        <ele>30.200000762939</ele>
        <time>2017-06-01T09:22:38.000Z</time>
      </trkpt>
      <trkpt lat="43.50814" lon="6.76624">
        <ele>29.39999961853</ele>
        <time>2017-06-01T09:22:41.000Z</time>
      </trkpt>
      <trkpt lat="43.50813" lon="6.76615">
        <ele>29.200000762939</ele>
        <time>2017-06-01T09:22:42.000Z</time>
      </trkpt>
      <trkpt lat="43.50813" lon="6.76607">
        <ele>29.200000762939</ele>
        <time>2017-06-01T09:22:43.000Z</time>
      </trkpt>
      <trkpt lat="43.50809" lon="6.76575">
        <ele>29.799999237061</ele>
        <time>2017-06-01T09:22:48.000Z</time>
      </trkpt>
      <trkpt lat="43.50804" lon="6.76558">
        <ele>30.60000038147</ele>
        <time>2017-06-01T09:22:53.000Z</time>
      </trkpt>
      <trkpt lat="43.508" lon="6.7655">
        <ele>32.400001525879</ele>
        <time>2017-06-01T09:22:56.000Z</time>
      </trkpt>
      <trkpt lat="43.50795" lon="6.76543">
        <ele>33.400001525879</ele>
        <time>2017-06-01T09:23:00.000Z</time>
      </trkpt>
      <trkpt lat="43.5079" lon="6.76528">
        <ele>34.400001525879</ele>
        <time>2017-06-01T09:23:05.000Z</time>
      </trkpt>
      <trkpt lat="43.50789" lon="6.76524">
        <ele>34.799999237061</ele>
        <time>2017-06-01T09:23:06.000Z</time>
      </trkpt>
      <trkpt lat="43.50787" lon="6.76513">
        <ele>35.799999237061</ele>
        <time>2017-06-01T09:23:09.000Z</time>
      </trkpt>
      <trkpt lat="43.50787" lon="6.76501">
        <ele>36.799999237061</ele>
        <time>2017-06-01T09:23:12.000Z</time>
      </trkpt>
      <trkpt lat="43.50787" lon="6.76497">
        <ele>37</ele>
        <time>2017-06-01T09:23:13.000Z</time>
      </trkpt>
      <trkpt lat="43.50781" lon="6.7647">
        <ele>37.400001525879</ele>
        <time>2017-06-01T09:23:20.000Z</time>
      </trkpt>
      <trkpt lat="43.50769" lon="6.76455">
        <ele>37.200000762939</ele>
        <time>2017-06-01T09:23:25.000Z</time>
      </trkpt>
      <trkpt lat="43.50756" lon="6.7644">
        <ele>38</ele>
        <time>2017-06-01T09:23:31.000Z</time>
      </trkpt>
      <trkpt lat="43.50744" lon="6.76422">
        <ele>38.200000762939</ele>
        <time>2017-06-01T09:23:36.000Z</time>
      </trkpt>
      <trkpt lat="43.5074" lon="6.76418">
        <ele>38</ele>
        <time>2017-06-01T09:23:37.000Z</time>
      </trkpt>
      <trkpt lat="43.50724" lon="6.76406">
        <ele>36.799999237061</ele>
        <time>2017-06-01T09:23:40.000Z</time>
      </trkpt>
      <trkpt lat="43.50712" lon="6.76397">
        <ele>36.400001525879</ele>
        <time>2017-06-01T09:23:42.000Z</time>
      </trkpt>
      <trkpt lat="43.507" lon="6.7639">
        <ele>35.599998474121</ele>
        <time>2017-06-01T09:23:44.000Z</time>
      </trkpt>
      <trkpt lat="43.50671" lon="6.76373">
        <ele>34.799999237061</ele>
        <time>2017-06-01T09:23:49.000Z</time>
      </trkpt>
      <trkpt lat="43.50666" lon="6.7637">
        <ele>34.599998474121</ele>
        <time>2017-06-01T09:23:50.000Z</time>
      </trkpt>
      <trkpt lat="43.5066" lon="6.76368">
        <ele>34.400001525879</ele>
        <time>2017-06-01T09:23:51.000Z</time>
      </trkpt>
      <trkpt lat="43.50649" lon="6.76364">
        <ele>34</ele>
        <time>2017-06-01T09:23:53.000Z</time>
      </trkpt>
      <trkpt lat="43.50643" lon="6.76362">
        <ele>33.799999237061</ele>
        <time>2017-06-01T09:23:54.000Z</time>
      </trkpt>
      <trkpt lat="43.5063" lon="6.76357">
        <ele>33</ele>
        <time>2017-06-01T09:23:56.000Z</time>
      </trkpt>
      <trkpt lat="43.50617" lon="6.7635">
        <ele>32.200000762939</ele>
        <time>2017-06-01T09:23:58.000Z</time>
      </trkpt>
      <trkpt lat="43.50611" lon="6.76345">
        <ele>31.799999237061</ele>
        <time>2017-06-01T09:23:59.000Z</time>
      </trkpt>
      <trkpt lat="43.50603" lon="6.76327">
        <ele>30.799999237061</ele>
        <time>2017-06-01T09:24:01.000Z</time>
      </trkpt>
      <trkpt lat="43.50602" lon="6.76316">
        <ele>29.799999237061</ele>
        <time>2017-06-01T09:24:02.000Z</time>
      </trkpt>
      <trkpt lat="43.50601" lon="6.76304">
        <ele>29</ele>
        <time>2017-06-01T09:24:03.000Z</time>
      </trkpt>
      <trkpt lat="43.506" lon="6.7629">
        <ele>28.200000762939</ele>
        <time>2017-06-01T09:24:04.000Z</time>
      </trkpt>
      <trkpt lat="43.50599" lon="6.76277">
        <ele>27.60000038147</ele>
        <time>2017-06-01T09:24:05.000Z</time>
      </trkpt>
      <trkpt lat="43.50598" lon="6.76263">
        <ele>26.799999237061</ele>
        <time>2017-06-01T09:24:06.000Z</time>
      </trkpt>
      <trkpt lat="43.50594" lon="6.76251">
        <ele>25.799999237061</ele>
        <time>2017-06-01T09:24:07.000Z</time>
      </trkpt>
      <trkpt lat="43.50589" lon="6.76241">
        <ele>24.200000762939</ele>
        <time>2017-06-01T09:24:08.000Z</time>
      </trkpt>
      <trkpt lat="43.50571" lon="6.76214">
        <ele>22.799999237061</ele>
        <time>2017-06-01T09:24:11.000Z</time>
      </trkpt>
      <trkpt lat="43.50565" lon="6.76205">
        <ele>22.39999961853</ele>
        <time>2017-06-01T09:24:12.000Z</time>
      </trkpt>
      <trkpt lat="43.50561" lon="6.76196">
        <ele>22.200000762939</ele>
        <time>2017-06-01T09:24:13.000Z</time>
      </trkpt>
      <trkpt lat="43.50557" lon="6.76186">
        <ele>21.799999237061</ele>
        <time>2017-06-01T09:24:14.000Z</time>
      </trkpt>
      <trkpt lat="43.5055" lon="6.76166">
        <ele>21.200000762939</ele>
        <time>2017-06-01T09:24:16.000Z</time>
      </trkpt>
      <trkpt lat="43.50543" lon="6.76135">
        <ele>20.799999237061</ele>
        <time>2017-06-01T09:24:19.000Z</time>
      </trkpt>
      <trkpt lat="43.50538" lon="6.76107">
        <ele>20.200000762939</ele>
        <time>2017-06-01T09:24:22.000Z</time>
      </trkpt>
      <trkpt lat="43.50527" lon="6.76063">
        <ele>19.39999961853</ele>
        <time>2017-06-01T09:24:27.000Z</time>
      </trkpt>
      <trkpt lat="43.50524" lon="6.76054">
        <ele>19</ele>
        <time>2017-06-01T09:24:28.000Z</time>
      </trkpt>
      <trkpt lat="43.50521" lon="6.76045">
        <ele>18.39999961853</ele>
        <time>2017-06-01T09:24:29.000Z</time>
      </trkpt>
      <trkpt lat="43.50514" lon="6.76028">
        <ele>17</ele>
        <time>2017-06-01T09:24:31.000Z</time>
      </trkpt>
      <trkpt lat="43.50502" lon="6.76016">
        <ele>14.39999961853</ele>
        <time>2017-06-01T09:24:33.000Z</time>
      </trkpt>
      <trkpt lat="43.50487" lon="6.76009">
        <ele>12.60000038147</ele>
        <time>2017-06-01T09:24:35.000Z</time>
      </trkpt>
      <trkpt lat="43.50474" lon="6.76003">
        <ele>11</ele>
        <time>2017-06-01T09:24:37.000Z</time>
      </trkpt>
      <trkpt lat="43.50467" lon="6.76">
        <ele>10.39999961853</ele>
        <time>2017-06-01T09:24:38.000Z</time>
      </trkpt>
      <trkpt lat="43.50462" lon="6.75995">
        <ele>9.8000001907349</ele>
        <time>2017-06-01T09:24:39.000Z</time>
      </trkpt>
      <trkpt lat="43.5045" lon="6.75984">
        <ele>8.8000001907349</ele>
        <time>2017-06-01T09:24:41.000Z</time>
      </trkpt>
      <trkpt lat="43.50438" lon="6.7597">
        <ele>7.1999998092651</ele>
        <time>2017-06-01T09:24:43.000Z</time>
      </trkpt>
      <trkpt lat="43.50429" lon="6.75956">
        <ele>5.8000001907349</ele>
        <time>2017-06-01T09:24:45.000Z</time>
      </trkpt>
      <trkpt lat="43.50425" lon="6.7595">
        <ele>5.1999998092651</ele>
        <time>2017-06-01T09:24:46.000Z</time>
      </trkpt>
      <trkpt lat="43.50422" lon="6.75944">
        <ele>4.5999999046326</ele>
        <time>2017-06-01T09:24:47.000Z</time>
      </trkpt>
      <trkpt lat="43.50421" lon="6.75931">
        <ele>3.5999999046326</ele>
        <time>2017-06-01T09:24:49.000Z</time>
      </trkpt>
      <trkpt lat="43.50422" lon="6.75924">
        <ele>3.4000000953674</ele>
        <time>2017-06-01T09:24:50.000Z</time>
      </trkpt>
      <trkpt lat="43.50432" lon="6.75908">
        <ele>2.4000000953674</ele>
        <time>2017-06-01T09:24:53.000Z</time>
      </trkpt>
      <trkpt lat="43.50446" lon="6.75906">
        <ele>1.3999999761581</ele>
        <time>2017-06-01T09:24:56.000Z</time>
      </trkpt>
      <trkpt lat="43.5045" lon="6.75907">
        <ele>1.2000000476837</ele>
        <time>2017-06-01T09:24:57.000Z</time>
      </trkpt>
      <trkpt lat="43.50457" lon="6.7591">
        <ele>1.2000000476837</ele>
        <time>2017-06-01T09:24:59.000Z</time>
      </trkpt>
      <trkpt lat="43.50462" lon="6.75911">
        <ele>1.2000000476837</ele>
        <time>2017-06-01T09:25:01.000Z</time>
      </trkpt>
      <trkpt lat="43.50467" lon="6.75906">
        <ele>1</ele>
        <time>2017-06-01T09:25:03.000Z</time>
      </trkpt>
      <trkpt lat="43.50469" lon="6.75901">
        <ele>0.80000001192093</ele>
        <time>2017-06-01T09:25:04.000Z</time>
      </trkpt>
      <trkpt lat="43.50471" lon="6.75878">
        <ele>-0.40000000596046</ele>
        <time>2017-06-01T09:25:07.000Z</time>
      </trkpt>
      <trkpt lat="43.50472" lon="6.75863">
        <ele>-0.80000001192093</ele>
        <time>2017-06-01T09:25:09.000Z</time>
      </trkpt>
      <trkpt lat="43.50469" lon="6.75853">
        <ele>38.4</ele>
        <time>2017-06-01T09:25:11.000Z</time>
      </trkpt>
      <trkpt lat="43.50466" lon="6.75849">
        <ele>0.80000001192093</ele>
        <time>2017-06-01T09:25:13.000Z</time>
      </trkpt>
      <trkpt lat="43.50461" lon="6.75846">
        <ele>1</ele>
        <time>2017-06-01T09:25:15.000Z</time>
      </trkpt>
      <trkpt lat="43.50459" lon="6.75845">
        <ele>1</ele>
        <time>2017-06-01T09:25:16.000Z</time>
      </trkpt>
      <trkpt lat="43.50442" lon="6.75836">
        <ele>0.60000002384186</ele>
        <time>2017-06-01T09:25:21.000Z</time>
      </trkpt>
      <trkpt lat="43.50425" lon="6.75824">
        <ele>-0.40000000596046</ele>
        <time>2017-06-01T09:25:25.000Z</time>
      </trkpt>
      <trkpt lat="43.50419" lon="6.75819">
        <ele>-1</ele>
        <time>2017-06-01T09:25:26.000Z</time>
      </trkpt>
      <trkpt lat="43.50413" lon="6.75815">
        <ele>-1.6000000238419</ele>
        <time>2017-06-01T09:25:27.000Z</time>
      </trkpt>
      <trkpt lat="43.50393" lon="6.758">
        <ele>-1.3999999761581</ele>
        <time>2017-06-01T09:25:31.000Z</time>
      </trkpt>
      <trkpt lat="43.50378" lon="6.75789">
        <ele>-1.3999999761581</ele>
        <time>2017-06-01T09:25:36.000Z</time>
      </trkpt>
      <trkpt lat="43.50376" lon="6.75788">
        <ele>-1.3999999761581</ele>
        <time>2017-06-01T09:25:37.000Z</time>
      </trkpt>
      <trkpt lat="43.50371" lon="6.75788">
        <ele>-1.3999999761581</ele>
        <time>2017-06-01T09:25:40.000Z</time>
      </trkpt>
      <trkpt lat="43.50369" lon="6.75783">
        <ele>-1.3999999761581</ele>
        <time>2017-06-01T09:25:44.000Z</time>
      </trkpt>
      <trkpt lat="43.50365" lon="6.75779">
        <ele>-1.2000000476837</ele>
        <time>2017-06-01T09:25:46.000Z</time>
      </trkpt>
      <trkpt lat="43.50356" lon="6.75773">
        <ele>-0.40000000596046</ele>
        <time>2017-06-01T09:25:50.000Z</time>
      </trkpt>
      <trkpt lat="43.50354" lon="6.75772">
        <ele>-0.20000000298023</ele>
        <time>2017-06-01T09:25:51.000Z</time>
      </trkpt>
      <trkpt lat="43.50345" lon="6.75766">
        <ele>0.20000000298023</ele>
        <time>2017-06-01T09:25:57.000Z</time>
      </trkpt>
    </trkseg>
  </trk>
</gpx>